[[{"header":{"parameterUnit":"m.s-1","parameterCategory":1,"la1":30.6,"la2":28.766,"lo1":-90.7593,"lo2":-88.6598,"dy":0.0162,"dx":0.0183,"nx":116,"ny":114,"refTime":"2023-08-31T18:00:00:Z","depth":0,"parameterNumber":2,"parameterNumberName":"U-component_of_WINDS"},"data":[0.0,0.0,0.0,0.0,0.0,0.0,0.0,0.0,0.0,0.0,0.0,0.0,0.0,0.0,0.0,0.0,0.0,0.0,0.0,0.0,0.0,0.0,0.0,0.0,0.0,0.0,0.0,0.0,0.0,0.0,0.0,0.0,0.0,0.0,0.0,0.0,0.0,0.0,0.0,0.0,0.0,0.0,0.0,0.0,0.0,0.0,0.0,0.0,0.0,0.0,0.0,0.0,0.0,0.0,0.0,0.0,0.0,0.0,0.0,0.0,0.0,0.0,0.0,0.0,0.0,0.0,0.0,0.0,0.0,0.0,0.0,0.0,0.0,0.0,0.0,0.0,0.0,0.0,0.0,0.0,0.0,0.0,0.0,0.0,0.0,0.0,0.0,0.0,0.0,0.0,0.0,0.0,0.0,0.0,0.0,0.0,0.0,0.0,0.0,0.0,0.0,0.0,0.0,0.0,0.0,0.0,0.0,0.0,0.0,0.0,0.0,0.0,0.0,0.0,0.0,0.0,0.0,0.0,0.0,0.0,0.0,0.0,0.0,0.0,0.0,0.0,0.0,0.0,0.0,0.0,0.0,0.0,0.0,0.0,0.0,0.0,0.0,0.0,0.0,0.0,0.0,0.0,0.0,0.0,0.0,0.0,0.0,0.0,0.0,0.0,0.0,0.0,0.0,0.0,0.0,0.0,0.0,0.0,0.0,0.0,0.0,0.0,0.0,0.0,0.0,0.0,0.0,0.0,0.0,0.0,0.0,0.0,0.0,0.0,0.0,0.0,0.0,0.0,0.0,0.0,0.0,0.0,0.0,0.0,0.0,0.0,0.0,0.0,0.0,0.0,0.0,0.0,0.0,0.0,0.0,0.0,0.0,0.0,0.0,0.0,0.0,0.0,0.0,0.0,0.0,0.0,0.0,0.0,0.0,0.0,0.0,0.0,0.0,0.0,0.0,0.0,0.0,0.0,0.0,0.0,0.0,0.0,0.0,0.0,0.0,0.0,0.0,0.0,0.0,0.0,0.0,0.0,0.0,0.0,0.0,0.0,0.0,0.0,0.0,0.0,0.0,0.0,0.0,0.0,0.0,0.0,0.0,0.0,0.0,0.0,0.0,0.0,0.0,0.0,0.0,0.0,0.0,0.0,0.0,0.0,0.0,0.0,0.0,0.0,0.0,0.0,0.0,0.0,0.0,0.0,0.0,0.0,0.0,0.0,0.0,0.0,0.0,0.0,0.0,0.0,0.0,0.0,0.0,0.0,0.0,0.0,0.0,0.0,0.0,0.0,0.0,0.0,0.0,0.0,0.0,0.0,0.0,0.0,0.0,0.0,0.0,0.0,0.0,0.0,0.0,0.0,0.0,0.0,0.0,0.0,0.0,0.0,0.0,0.0,0.0,0.0,0.0,0.0,0.0,0.0,0.0,0.0,0.0,0.0,0.0,0.0,0.0,0.0,0.0,0.0,0.0,0.0,0.0,0.0,0.0,0.0,0.0,0.0,0.0,0.0,0.0,0.0,0.0,0.0,0.0,0.0,0.0,0.0,0.0,0.0,0.0,0.0,0.0,0.0,0.0,0.0,0.0,0.0,0.0,0.0,0.0,0.0,0.0,0.0,0.0,0.0,0.0,0.0,0.0,0.0,0.0,0.0,0.0,0.0,0.0,0.0,0.0,0.0,0.0,0.0,0.0,0.0,0.0,0.0,0.0,0.0,0.0,0.0,0.0,0.0,0.0,0.0,0.0,0.0,0.0,0.0,0.0,0.0,0.0,0.0,0.0,0.0,0.0,0.0,0.0,0.0,0.0,0.0,0.0,0.0,0.0,0.0,0.0,0.0,0.0,0.0,0.0,0.0,0.0,0.0,0.0,0.0,0.0,0.0,0.0,0.0,0.0,0.0,0.0,0.0,0.0,0.0,0.0,0.0,0.0,0.0,0.0,0.0,0.0,0.0,0.0,0.0,0.0,0.0,0.0,0.0,0.0,0.0,0.0,0.0,0.0,0.0,0.0,0.0,0.0,0.0,0.0,0.0,0.0,0.0,0.0,0.0,0.0,0.0,0.0,0.0,0.0,0.0,0.0,0.0,0.0,0.0,0.0,0.0,0.0,0.0,0.0,0.0,0.0,0.0,0.0,0.0,0.0,0.0,0.0,0.0,0.0,0.0,0.0,0.0,0.0,0.0,0.0,0.0,0.0,0.0,0.0,0.0,0.0,0.0,0.0,0.0,0.0,0.0,0.0,0.0,0.0,0.0,0.0,0.0,0.0,0.0,0.0,0.0,0.0,0.0,0.0,0.0,0.0,0.0,0.0,0.0,0.0,0.0,0.0,0.0,0.0,0.0,0.0,0.0,0.0,0.0,0.0,0.0,0.0,0.0,0.0,0.0,0.0,0.0,0.0,0.0,0.0,0.0,0.0,0.0,0.0,0.0,0.0,0.0,0.0,0.0,0.0,0.0,0.0,0.0,0.0,0.0,0.0,0.0,0.0,0.0,0.0,0.0,0.0,0.0,0.0,0.0,0.0,0.0,0.0,0.0,0.0,0.0,0.0,0.0,0.0,0.0,0.0,0.0,0.0,0.0,0.0,0.0,0.0,0.0,0.0,0.0,0.0,0.0,0.0,0.0,0.0,0.0,0.0,0.0,0.0,0.0,0.0,0.0,0.0,0.0,0.0,0.0,0.0,0.0,0.0,0.0,0.0,0.0,0.0,0.0,0.0,0.0,0.0,0.0,0.0,0.0,0.0,0.0,0.0,0.0,0.0,0.0,0.0,0.0,0.0,0.0,0.0,0.0,0.0,0.0,0.0,0.0,0.0,0.0,0.0,0.0,0.0,0.0,0.0,0.0,0.0,0.0,0.0,0.0,0.0,0.0,0.0,0.0,0.0,0.0,0.0,0.0,0.0,0.0,0.0,0.0,0.0,0.0,0.0,0.0,0.0,0.0,0.0,0.0,0.0,0.0,0.0,0.0,0.0,0.0,0.0,0.0,0.0,0.0,0.0,0.0,0.0,0.0,0.0,0.0,0.0,0.0,0.0,0.0,0.0,0.0,0.0,0.0,0.0,0.0,0.0,0.0,0.0,0.0,0.0,0.0,0.0,0.0,0.0,0.0,0.0,0.0,0.0,0.0,0.0,0.0,0.0,0.0,0.0,0.0,0.0,0.0,0.0,0.0,0.0,0.0,0.0,0.0,0.0,0.0,0.0,0.0,0.0,0.0,0.0,0.0,0.0,0.0,0.0,0.0,0.0,0.0,0.0,0.0,0.0,0.0,0.0,0.0,0.0,0.0,0.0,0.0,0.0,0.0,0.0,0.0,0.0,0.0,0.0,0.0,0.0,0.0,0.0,0.0,0.0,0.0,0.0,0.0,0.0,0.0,0.0,0.0,0.0,0.0,0.0,0.0,0.0,0.0,0.0,0.0,0.0,0.0,0.0,0.0,0.0,0.0,0.0,0.0,0.0,0.0,0.0,0.0,0.0,0.0,0.0,0.0,0.0,0.0,0.0,0.0,0.0,0.0,0.0,0.0,0.0,0.0,0.0,0.0,0.0,0.0,0.0,0.0,0.0,0.0,0.0,0.0,0.0,0.0,0.0,0.0,0.0,0.0,0.0,0.0,0.0,0.0,0.0,0.0,0.0,0.0,0.0,0.0,0.0,0.0,0.0,0.0,0.0,0.0,0.0,0.0,0.0,0.0,0.0,0.0,0.0,0.0,0.0,0.0,0.0,0.0,0.0,0.0,0.0,0.0,0.0,0.0,0.0,0.0,0.0,0.0,0.0,0.0,0.0,0.0,0.0,0.0,0.0,0.0,0.0,0.0,0.0,0.0,0.0,0.0,0.0,0.0,0.0,0.0,0.0,0.0,0.0,0.0,0.0,0.0,0.0,0.0,0.0,0.0,0.0,0.0,0.0,0.0,0.0,0.0,0.0,0.0,0.0,0.0,0.0,0.0,0.0,0.0,0.0,0.0,0.0,0.0,0.0,0.0,0.0,0.0,0.0,0.0,0.0,0.0,0.0,0.0,0.0,0.0,0.0,0.0,0.0,0.0,0.0,0.0,0.0,0.0,0.0,0.0,0.0,0.0,0.0,0.0,0.0,0.0,0.0,0.0,0.0,0.0,0.0,0.0,0.0,0.0,0.0,0.0,0.0,0.0,0.0,0.0,0.0,0.0,0.0,0.0,0.0,0.0,0.0,0.0,0.0,0.0,0.0,0.0,0.0,0.0,0.0,0.0,0.0,0.0,0.0,0.0,0.0,0.0,0.0,0.0,0.0,0.0,0.0,0.0,0.0,0.0,0.0,0.0,0.0,0.0,0.0,0.0,0.0,0.0,0.0,0.0,0.0,0.0,0.0,0.0,0.0,0.0,0.0,0.0,0.0,0.0,0.0,0.0,0.0,0.0,0.0,0.0,0.0,0.0,0.0,0.0,0.0,0.0,0.0,0.0,0.0,0.0,0.0,0.0,0.0,0.0,0.0,0.0,0.0,0.0,0.0,0.0,0.0,0.0,0.0,0.0,0.0,0.0,0.0,0.0,0.0,0.0,0.0,0.0,0.0,0.0,0.0,0.0,0.0,0.0,0.0,0.0,0.0,0.0,0.0,0.0,0.0,0.0,0.0,0.0,0.0,0.0,0.0,0.0,0.0,0.0,0.0,0.0,0.0,0.0,0.0,0.0,0.0,0.0,0.0,0.0,0.0,0.0,0.0,0.0,0.0,0.0,0.0,0.0,0.0,0.0,0.0,0.0,0.0,0.0,0.0,0.0,0.0,0.0,0.0,0.0,0.0,0.0,0.0,0.0,0.0,0.0,0.0,0.0,0.0,0.0,0.0,0.0,0.0,0.0,0.0,0.0,0.0,0.0,0.0,0.0,0.0,0.0,0.0,0.0,0.0,0.0,0.0,0.0,0.0,0.0,0.0,0.0,0.0,0.0,0.0,0.0,0.0,0.0,0.0,0.0,0.0,0.0,0.0,0.0,0.0,0.0,0.0,0.0,0.0,0.0,0.0,0.0,0.0,0.0,0.0,0.0,0.0,0.0,0.0,0.0,0.0,0.0,0.0,0.0,0.0,0.0,0.0,0.0,0.0,0.0,0.0,0.0,0.0,0.0,0.0,0.0,0.0,0.0,0.0,0.0,0.0,0.0,0.0,0.0,0.0,0.0,0.0,0.0,0.0,0.0,0.0,0.0,0.0,0.0,0.0,0.0,0.0,0.0,0.0,0.0,0.0,0.0,0.0,0.0,0.0,0.0,0.0,0.0,0.0,0.0,0.0,0.0,0.0,0.0,0.0,0.0,0.0,0.0,0.0,0.0,0.0,0.0,0.0,0.0,0.0,0.0,0.0,0.0,0.0,0.0,0.0,0.0,0.0,0.0,0.0,0.0,0.0,0.0,0.0,0.0,0.0,0.0,0.0,0.0,0.0,0.0,0.0,0.0,0.0,0.0,0.0,0.0,0.0,0.0,0.0,0.0,0.0,0.0,0.0,0.0,0.0,0.0,0.0,0.0,0.0,0.0,0.0,0.0,0.0,0.0,0.0,0.0,0.0,0.0,0.0,0.0,0.0,0.0,0.0,0.0,0.0,0.0,0.0,0.0,0.0,0.0,0.0,0.0,0.0,0.0,0.0,0.0,0.0,0.0,0.0,0.0,0.0,0.0,0.0,0.0,0.0,0.0,0.0,0.0,0.0,0.0,0.0,0.0,0.0,0.0,0.0,0.0,0.0,0.0,0.0,0.0,0.0,0.0,0.0,0.0,0.0,0.0,0.0,0.0,0.0,0.0,0.0,0.0,0.0,0.0,0.0,0.0,0.0,0.0,0.0,0.0,0.0,0.0,0.0,0.0,0.0,0.0,0.0,0.0,0.0,0.0,0.0,0.0,0.0,0.0,0.0,0.0,0.0,0.0,0.0,0.0,0.0,0.0,0.0,0.0,0.0,0.0,0.0,0.0,0.0,0.0,0.0,0.0,0.0,0.0,0.0,0.0,0.0,0.0,0.0,0.0,0.0,0.0,0.0,0.0,0.0,0.0,0.0,0.0,0.0,0.0,0.0,0.0,0.0,0.0,0.0,0.0,0.0,0.0,0.0,0.0,0.0,0.0,0.0,0.0,0.4894,0.0,0.0,0.0,0.0,0.0,0.0,0.0,0.0,0.0,0.0,0.0,0.0,0.0,0.0,0.0,0.0,0.0,0.0,0.0,0.0,0.0,0.0,0.0,0.0,0.0,0.0,0.0,0.0,0.0,0.0,0.0,0.0,0.0,0.0,0.0,0.0,0.0,0.0,1.1814,1.2129,1.2605,1.3174,1.2978,1.3105,1.3496,0.0,0.0,0.0,0.0,0.0,0.0,0.0,0.0,0.0,0.0,0.0,0.0,0.0,0.0,0.0,0.0,0.0,0.0,0.0,0.0,0.0,0.0,0.0,0.0,0.0,0.0,0.0,0.0,0.0,0.0,0.0,0.0,0.0,0.0,0.0,0.0,0.0,0.0,0.0,0.0,0.0,0.0,0.0,0.0,0.0,0.0,0.0,0.0,0.0,0.0,0.0,0.0,0.0,0.0,0.0,0.0,0.0,0.0,0.0,0.0,0.0,0.0,0.0,0.0,0.0,0.0,0.0,0.0,0.0,0.0,0.0,0.4405,0.0,0.0,0.0,0.0,0.0,0.0,0.0,0.0,0.0,0.0,0.0,0.0,0.0,0.0,0.0,0.0,0.0,0.0,0.0,0.0,0.0,0.0,0.0,1.002,1.0643,1.1822,1.2346,1.2707,0.0,0.0,0.0,0.0,0.0,0.0,0.0,1.1986,1.2332,1.1872,1.2615,1.3242,1.3721,1.3379,1.3477,1.3936,1.3564,0.0,0.0,0.0,0.0,0.0,0.0,0.0,0.0,0.0,0.0,0.0,0.0,0.0,0.0,0.0,0.0,0.0,0.0,0.0,0.0,0.0,0.0,0.0,0.0,0.0,0.0,0.0,0.0,0.0,0.0,0.0,0.0,0.0,0.0,0.0,0.0,0.0,0.0,0.0,0.0,0.0,0.0,0.0,0.0,0.0,0.0,0.0,0.0,0.0,0.0,0.0,0.0,0.0,0.0,0.0,0.0,0.0,0.0,0.0,0.0,0.0,0.0,0.0,0.6668,0.6746,0.6817,0.6561,0.5805,0.4594,0.3867,0.3583,0.347,0.2533,0.0,0.0,0.0,0.0,0.0,0.0,0.0,0.0,0.0,0.0,0.0,0.0,0.0,0.0,0.0,0.0,0.0,0.0,0.0,0.0,0.0,1.0864,1.1758,1.2337,1.2676,1.2987,1.3408,0.0,0.0,0.0,0.0,0.0,1.1231,1.1132,1.1447,1.2209,1.3052,1.3838,1.4619,1.4561,1.4961,1.5704,1.3789,1.3809,1.5137,0.0,0.0,0.0,0.0,0.0,0.0,0.0,0.0,0.0,0.0,0.0,0.0,0.0,0.0,0.0,0.0,0.0,0.0,0.0,0.0,0.0,0.0,0.0,0.0,0.0,0.0,0.0,0.0,0.0,0.0,0.0,0.0,0.0,0.0,0.0,0.0,0.0,0.0,0.0,0.0,0.0,0.6829,0.9106,0.0,0.0,0.0,0.0,0.0,0.0,0.0,0.0,0.0,0.0,0.0,0.0,0.0,0.6962,0.651,0.6997,0.7146,0.7058,0.7448,0.7512,0.7282,0.6099,0.5399,0.4932,0.279,0.0,0.242,0.2245,0.0,0.0,0.0,0.0,0.0,0.0,0.0,0.0,0.0,0.0,0.0,0.0,0.0,0.0,0.0,0.0,0.0,0.0,0.0,0.0,0.0,1.1467,1.2449,1.3685,1.4328,1.4541,1.4248,1.3533,0.0,0.0,0.0,1.102,1.0416,1.1469,1.2538,1.3723,1.4289,1.4893,1.5498,1.5254,1.5469,1.6076,1.5361,1.5216,1.5553,1.5592,0.0,0.0,0.0,0.0,0.0,0.0,0.0,0.0,0.0,0.0,0.0,0.0,0.0,0.0,0.0,0.0,0.0,0.0,0.0,0.0,0.0,0.0,0.0,0.0,0.0,0.0,0.0,0.0,0.0,0.0,0.0,0.0,0.0,0.0,0.0,0.0,0.0,0.0,0.0,0.3588,0.5975,0.7542,1.0808,1.3186,0.0,0.0,0.0,0.0,0.0,0.0,0.0,0.0,0.0,0.7443,0.7152,0.7158,0.7221,0.757,0.7797,0.7896,0.8092,0.8079,0.7875,0.6491,0.5352,0.4391,0.2553,0.1453,0.0934,0.0949,0.1282,0.1684,0.0,0.0,0.0,0.0,0.7507,1.0149,0.0,0.0,0.0,0.0,0.0,0.0,0.0,0.0,0.0,0.0,0.0,0.0,1.1457,1.2341,1.344,1.5011,1.5596,1.5576,1.4834,1.4277,1.3239,1.1787,1.1575,1.0937,0.9852,1.1954,1.3796,1.5283,1.5713,1.6191,1.6719,1.6279,1.6309,1.6762,1.7142,1.6854,1.6147,1.6964,1.658,1.5565,0.0,0.0,0.0,0.0,0.0,0.0,0.0,0.0,0.0,0.0,0.0,0.0,0.0,0.0,0.0,0.0,0.0,0.0,0.0,0.0,0.0,0.0,0.0,0.0,0.0,0.0,0.0,0.0,0.0,0.0,0.0,0.0,0.0,0.0,0.0,0.0,0.0,0.286,0.4585,0.5834,0.9008,1.1209,0.0,0.0,0.0,0.0,0.0,0.0,0.8936,0.8251,0.7855,0.7952,0.7513,0.7573,0.8096,0.8248,0.8435,0.8652,0.8615,0.8543,0.8438,0.6575,0.5144,0.3942,0.2196,0.0883,0.0,0.0,0.042,0.0973,0.0865,0.2255,0.4358,0.4985,0.6986,0.9876,0.0,0.0,0.0,0.0,0.0,0.0,0.0,0.0,0.0,0.0,0.0,1.1042,1.1986,1.3645,1.5031,1.5928,1.5664,1.5254,1.4814,1.3746,1.2625,1.1407,1.1059,1.0654,1.0087,1.2367,1.4531,1.6568,1.707,1.7705,1.8496,1.8076,1.8105,1.8486,1.8838,1.8291,1.7174,1.779,1.7855,1.7561,1.7392,0.0,0.0,0.0,0.0,0.0,0.0,0.0,0.0,0.0,0.0,0.0,0.0,0.0,0.0,0.0,0.0,0.0,0.0,0.0,0.0,0.0,0.0,0.0,0.0,0.0,0.0,0.0,0.0,0.0,0.0,0.0,0.0,0.0,0.0,0.0,0.0,0.0,0.0,0.507,0.7277,0.0,0.0,0.0,0.0,1.0211,0.9931,0.9355,0.85,0.8553,0.8512,0.8275,0.833,0.8557,0.8879,0.9025,0.9106,0.9117,0.8981,0.8913,0.8783,0.5699,0.4301,0.4022,0.124,0.0101,0.0,0.0,0.0,0.0089,0.0085,0.0678,0.1715,0.3755,0.5829,0.826,0.0,0.0,0.0,0.0,0.0,0.0,0.0,0.0,0.8804,0.8804,1.008,1.1463,1.2772,1.4653,1.6208,1.72,1.7178,1.6904,1.6484,1.4423,1.2864,1.2174,1.1211,1.1476,1.3053,1.4739,1.656,1.8379,1.8799,1.917,1.9453,1.9307,1.917,1.9043,1.9776,1.9931,1.9777,2.0213,2.0117,1.9592,1.9545,1.8731,0.0,0.0,0.0,0.0,0.0,0.0,0.0,0.0,0.0,0.0,0.0,0.0,0.0,0.0,0.0,0.0,0.0,0.0,0.0,0.0,0.0,0.0,0.0,0.0,0.0,0.0,0.0,0.0,0.0,0.0,0.0,0.0,0.0,0.0,0.0,0.0,0.0,0.1406,0.4026,0.0,0.5563,0.6033,0.657,0.7266,0.6994,0.7097,0.8005,0.829,0.848,0.8682,0.8838,0.9059,0.9367,0.9323,0.9351,0.9445,0.9293,0.9123,0.8823,0.5841,0.4426,0.4095,0.125,0.0,0.0,0.0,0.0,0.0,0.0,0.0642,0.1837,0.3291,0.5768,0.8768,0.0,0.0,0.0,0.0,0.0,0.0,0.0,0.0,0.8844,0.8938,1.0561,1.219,1.3644,1.5731,1.7316,1.783,1.7805,1.7288,1.6261,1.4481,1.3076,1.229,1.1804,1.2817,1.5523,1.6848,1.8255,1.9941,2.0371,2.0576,2.0576,2.043,2.0215,1.9941,2.0521,2.1125,2.1734,2.2125,2.1851,2.1217,2.1217,2.0564,1.9422,0.0,0.0,0.0,0.0,0.0,0.0,0.0,0.0,0.0,0.0,0.0,0.0,0.0,0.0,0.0,0.0,0.0,0.0,0.0,0.0,0.0,0.0,0.0,0.0,0.0,0.0,0.0,0.0,0.0,0.0,0.0,0.0,0.0,0.0,0.0,-0.0524,-0.0433,0.1894,0.3261,0.2891,0.3381,0.433,0.57,0.553,0.6154,0.7992,0.8357,0.8676,0.9076,0.9276,0.9476,0.968,0.9632,0.9632,0.968,0.953,0.9357,0.9047,0.6559,0.5097,0.4206,0.1806,0.042,0.0,0.0,0.03,0.0582,0.0193,0.0483,0.1355,0.301,0.5542,0.8693,0.0,0.0,0.0,0.0,0.0,0.0,0.0,0.8804,0.8918,0.9157,1.1313,1.3279,1.4391,1.6986,1.84,1.7766,1.7424,1.6263,1.4072,1.39,1.3186,1.1737,1.2908,1.4812,1.7388,1.8311,1.9596,2.1279,2.1699,2.1904,2.1894,2.1475,2.1269,2.125,2.125,2.1779,2.2783,2.3154,2.2972,2.2368,2.233,2.2351,2.2133,0.0,0.0,0.0,0.0,0.0,0.0,0.0,0.0,0.0,0.0,0.0,0.0,0.0,0.0,0.0,0.0,0.0,0.0,0.0,0.0,0.0,0.0,0.0,0.0,0.0,0.0,0.0,0.0,0.0,0.0,0.0,0.0,0.0,-0.1829,-0.193,-0.1422,-0.0186,0.0978,0.1681,0.1679,0.2685,0.4046,0.5727,0.594,0.6829,0.8592,0.8866,0.9086,0.9378,0.9669,0.9822,0.9829,0.9971,0.9971,0.9825,0.9683,0.9612,0.9479,0.7786,0.6127,0.4686,0.2968,0.1501,0.0104,0.0104,0.0923,0.1908,0.0593,0.0099,0.0402,0.2891,0.5277,0.7996,0.0,0.0,0.0,0.0,0.0,0.0,0.8804,0.8804,0.8991,0.9499,1.1975,1.4098,1.5155,1.7831,1.9154,1.819,1.7577,1.6597,1.5199,1.3593,1.2897,1.3377,1.4808,1.674,1.9104,2.0014,2.1047,2.2158,2.2285,2.2344,2.2334,2.2217,2.2002,2.1709,2.1709,2.2241,2.3165,2.3717,2.3981,2.4013,2.3199,2.3143,2.3353,0.0,0.0,0.0,0.0,0.0,0.0,0.0,0.0,0.0,0.0,0.0,0.0,0.0,0.0,0.0,0.0,0.0,0.0,0.0,0.0,0.0,0.0,0.0,0.0,0.0,0.0,0.0,0.0,0.0,0.0,0.0,0.0,-0.2284,-0.3278,-0.1386,0.0102,0.0104,0.2322,0.3796,0.3693,0.4025,0.4782,0.6162,0.6482,0.7152,0.8756,0.912,0.9347,0.954,0.9727,0.9873,0.9985,0.9917,0.9917,0.9985,0.9836,0.9707,0.9605,0.7971,0.6884,0.624,0.4689,0.37,0.3054,0.3014,0.3168,0.3313,0.2001,0.1988,0.2948,0.4498,0.7191,1.0457,0.0,0.0,0.0,0.0,0.0,0.0,0.8804,0.8804,0.9119,1.0101,1.2565,1.4516,1.5118,1.7688,1.8672,1.6961,1.6338,1.543,1.4118,1.3361,1.3871,1.5864,1.7115,1.8708,2.062,2.1414,2.21,2.2773,2.2773,2.2773,2.2773,2.2773,2.2646,2.2412,2.2412,2.272,2.3203,2.3551,2.4158,2.4659,2.3551,2.372,2.4481,2.2534,2.1784,2.1521,2.0608,1.9832,1.9023,1.7916,0.0,0.0,0.0,0.0,0.0,0.0,0.0,0.0,0.0,0.0,0.0,0.0,0.0,0.0,0.0,0.0,0.0,0.0,0.0,0.0,0.0,0.0,0.0,0.0,0.01,0.0829,0.0842,0.1277,0.2057,0.3004,0.5351,0.6448,0.574,0.5625,0.5962,0.6751,0.747,0.8552,1.0006,1.0371,1.059,1.064,1.0267,1.0056,1.0144,1.0117,1.0083,1.0046,0.9961,0.9839,0.9696,0.8791,0.7814,0.6924,0.6019,0.509,0.4288,0.435,0.4598,0.4924,0.0,0.0,0.0,0.0,0.8822,1.1566,0.0,0.0,0.0,0.0,0.0,0.0,0.8804,0.8838,0.9343,1.0701,1.3099,1.4695,1.4772,1.6905,1.7464,1.5073,1.4592,1.3748,1.2326,1.3578,1.5675,1.8583,1.9558,2.0667,2.2021,2.2393,2.2764,2.3135,2.3135,2.3135,2.3135,2.3135,2.3135,2.3135,2.3135,2.3164,2.3213,2.3213,2.3794,2.4615,2.363,2.4155,2.536,2.3273,2.3108,2.3699,2.2154,2.1182,2.0483,1.9586,0.0,0.0,0.0,0.0,0.0,0.0,0.0,0.0,0.0,0.0,0.0,0.0,0.0,0.0,0.0,0.0,0.0,0.0,0.0,0.0,0.0,0.0,0.0,0.0,0.3522,0.6354,0.8511,0.6766,0.5992,0.8096,0.9706,1.0045,0.8456,0.8117,0.8026,0.7951,0.9225,1.062,1.2038,0.0,0.0,0.0,0.0,1.027,1.0304,1.0412,1.0344,1.01,1.0066,0.9978,0.9842,0.97,0.8831,0.7397,0.7276,0.6305,0.5023,0.5013,0.5703,0.6736,0.5286,0.4706,0.5266,0.8182,1.0329,1.1786,0.0,0.0,0.0,0.0,0.0,0.0,0.8804,0.9005,0.9509,1.052,1.2908,1.4664,1.5052,1.6589,1.6996,1.5585,1.4529,1.4081,1.4403,1.565,1.7499,1.9889,2.0964,2.1942,2.2881,2.2969,2.3057,2.3135,2.3135,2.3135,2.3135,2.3135,2.3135,2.3135,2.3135,2.333,2.3662,2.3662,2.3751,2.3999,2.3742,2.4444,2.5436,2.4132,2.3545,2.334,2.2706,2.2285,2.1935,2.07,2.0407,2.0322,1.9346,1.8281,0.0,0.0,0.0,0.0,0.0,0.0,0.0,0.0,0.0,0.0,0.0,0.0,0.0,0.0,0.0,0.0,0.0,0.0,0.0,0.3727,0.7453,1.1713,1.6181,1.9017,1.9085,1.5087,1.5916,1.6345,1.482,1.3512,1.2752,1.2771,1.3159,1.3611,1.3857,1.2767,1.2247,1.2314,1.0798,1.0209,1.0449,1.0365,1.0351,1.0402,0.0,0.0,0.9998,0.9849,0.958,0.9078,0.8933,0.8593,0.7996,0.7883,0.853,0.9478,0.8973,0.9393,1.0283,1.0793,1.1844,1.29,0.0,0.0,0.0,0.0,0.0,0.0,0.9005,0.909,0.9613,1.0831,1.2482,1.3623,1.37,1.4772,1.4947,1.3641,1.3142,1.377,1.591,1.6855,1.8519,2.1334,2.2129,2.2715,2.3125,2.3135,2.3135,2.3135,2.3135,2.3135,2.3135,2.3135,2.3262,2.3467,2.3467,2.3701,2.4102,2.4102,2.4102,2.4102,2.4102,2.4315,2.4617,2.3815,2.3422,2.318,2.2968,2.2854,2.2695,2.1826,2.1689,2.168,2.0586,1.9805,1.8918,0.0,0.0,0.0,0.0,0.0,0.0,0.0,0.0,0.0,0.0,0.0,0.0,0.0,0.0,0.5017,0.0,0.0,0.7197,1.0494,1.4706,1.9417,2.4481,2.842,2.8664,2.2988,2.2789,2.1915,1.9077,1.7484,1.596,1.4492,1.5184,1.537,1.455,1.3827,1.3188,1.2623,1.1029,1.0307,1.0602,1.0534,1.0497,1.049,1.027,1.0124,1.0042,0.989,0.9744,0.9602,0.9449,0.9703,1.0128,1.0716,1.1581,1.2329,1.2435,1.2167,1.1844,1.2269,1.2757,1.3097,0.0,0.0,0.0,0.0,0.0,0.0,0.0,0.923,0.9754,1.0996,1.1962,1.2466,1.225,1.281,1.2682,1.1424,1.1824,1.3606,1.6979,1.77,1.9335,2.2493,2.2959,2.3135,2.3135,2.3135,2.3135,2.3135,2.3135,2.3135,2.3135,2.3223,2.3457,2.3799,2.3877,2.4199,2.4668,2.458,2.459,2.4668,2.458,2.4238,2.375,2.3398,2.3213,2.3135,2.3135,2.3086,2.2978,2.2725,2.2637,2.2461,2.1494,2.1074,2.0469,1.7715,1.6607,0.0,0.0,0.0,0.0,0.0,0.0,0.0,0.0,0.0,0.7513,0.7726,0.7386,0.763,0.9013,1.0343,1.28,1.7616,2.253,2.7457,3.2369,3.596,3.6288,3.1414,2.9446,2.6701,2.2498,2.0629,1.8539,1.5784,1.6738,1.6733,1.5192,1.4723,1.3942,1.2703,1.1136,1.0409,1.0673,1.0707,1.0643,1.049,1.0348,1.0198,1.0046,1.0131,1.0236,1.0112,1.0266,1.0874,1.1908,1.3133,1.409,1.4634,1.5409,1.4637,1.3238,1.3992,1.4297,1.4191,0.0,0.0,0.0,0.0,0.0,0.0,0.0,0.0,0.9905,1.0615,1.1674,1.2337,1.2193,1.2183,1.1851,1.1081,1.2278,1.4345,1.746,1.8472,2.0132,2.295,2.3115,2.3135,2.3135,2.3135,2.3135,2.3135,2.3135,2.3135,2.3144,2.3535,2.374,2.3809,2.418,2.4805,2.5566,2.5166,2.5225,2.5557,2.5156,2.4512,2.3779,2.374,2.3477,2.3135,2.3135,2.29,2.2627,2.2959,2.3066,2.3115,2.3359,2.29,2.1755,1.898,1.7324,1.5891,1.3769,1.3534,1.4038,1.4687,1.2934,1.138,0.0,0.0,0.8494,0.7652,0.8602,0.961,0.9687,1.3193,1.7516,2.2182,2.8533,3.433,3.8657,4.1618,4.2519,4.055,3.4957,2.9712,2.5694,2.2839,2.0673,1.9004,1.901,1.8409,1.685,1.5429,1.3875,1.2521,1.108,1.0354,1.0517,1.0653,1.0643,1.049,1.0348,1.0198,1.0042,1.1339,1.1964,1.1927,1.2966,1.3463,1.3573,1.4656,1.5036,1.5178,1.7296,1.7771,1.7426,1.7493,1.8107,1.8715,0.0,0.0,0.0,0.0,0.0,0.0,0.0,0.0,0.0,1.0247,1.0774,1.103,1.0961,1.1073,1.1177,1.1202,1.2124,1.4142,1.7502,1.8414,2.0131,2.2931,2.3135,2.3135,2.3135,2.3135,2.3135,2.3135,2.3135,2.3271,2.3525,2.3711,2.4053,2.4541,2.4717,2.5146,2.5742,2.581,2.5801,2.5742,2.581,2.5156,2.415,2.415,2.3584,2.2773,2.2773,2.2656,0.0,2.2715,2.2939,2.3164,2.335,2.2998,2.1901,1.9103,1.7863,1.702,1.5234,1.5037,0.0,0.0,1.5358,1.4708,1.5205,1.3989,1.2931,1.3625,1.4251,1.5587,1.825,2.166,2.5631,0.0,3.6096,4.0636,4.292,4.4718,4.431,4.0329,3.5587,3.1129,2.7343,2.4488,2.1934,1.9597,1.9366,1.8286,1.5784,1.4955,1.3504,1.1024,1.0482,1.0256,1.049,1.0555,1.0555,1.049,1.1352,1.156,1.1391,1.2902,1.358,1.3565,1.464,1.5149,1.5119,1.6178,1.6958,1.749,1.8491,1.94,2.0212,1.9244,1.9039,1.9231,0.0,0.0,0.0,0.0,0.0,0.0,0.0,0.0,0.0,0.0,1.0,1.0,1.0,1.0261,1.0675,1.1256,1.1917,1.3809,1.7334,1.8205,1.9912,2.2843,2.3076,2.3135,2.3135,2.3135,2.3135,2.3135,2.3135,2.3301,2.3613,2.3848,2.4355,2.5078,2.5322,2.5742,2.6279,2.6475,2.6377,2.6094,2.6182,2.5488,2.4394,2.416,2.335,2.2344,2.2344,2.2178,2.1973,2.1973,2.2256,2.2617,2.2617,2.248,2.1861,1.9459,1.836,1.764,1.6147,0.0,0.0,1.7301,1.7407,1.7286,1.7298,1.6867,1.6825,1.8125,1.9343,2.1383,2.5569,2.8949,3.2735,3.7405,4.1773,4.4908,4.5579,4.5958,4.4227,3.8891,3.4735,3.0813,2.7211,2.4533,2.2053,1.9584,1.8932,1.7493,1.4718,1.4188,1.2702,0.9981,1.0025,1.0151,1.0368,1.0412,1.0666,1.1002,1.2134,1.2721,1.3021,1.4555,1.5456,1.5859,1.6464,1.666,1.6673,1.7716,1.8579,1.9363,1.9775,2.0853,2.194,2.0858,2.041,2.0166,0.0,0.0,0.0,0.0,0.0,0.0,0.0,0.0,0.0,0.0,0.0,0.0,0.0,0.9953,1.0367,1.0955,1.1797,1.3647,1.6904,1.8071,1.9797,2.2425,2.292,2.3135,2.3135,2.3135,2.3135,2.3135,2.3135,2.3144,2.3174,2.4014,2.4639,2.5107,2.5967,2.6816,2.7578,2.7168,2.6982,2.6904,2.6084,2.5225,2.4326,2.3506,2.2666,2.1904,2.1904,2.1357,2.0625,2.0625,2.0918,2.1289,2.1289,2.1572,2.1719,2.0457,1.8717,1.7039,1.6014,1.6667,1.7822,1.8998,1.8728,1.8213,1.8841,1.8771,1.8724,1.8735,2.2324,2.6109,2.8726,3.2907,3.7317,4.1608,4.4443,4.6122,4.6222,4.5184,4.2673,3.8106,3.322,2.861,0.0,2.2379,2.0815,1.9455,1.7784,1.6113,1.4708,1.2981,1.1438,0.9822,0.9971,1.0053,1.0063,1.0212,1.0958,1.239,1.2386,1.3134,1.4614,1.6144,1.78,1.9203,1.8625,1.8373,1.8534,1.9281,1.9517,1.9751,2.1556,2.2321,2.2402,2.2805,2.295,2.2882,0.0,0.0,0.0,0.0,0.0,0.0,0.0,0.0,0.0,0.0,0.0,0.0,0.0,0.0,0.0,0.0,1.1617,1.3025,1.5268,1.6495,1.7847,1.9605,2.029,2.065,2.0483,2.1441,2.1933,2.1933,2.2677,2.3291,2.3574,2.3867,2.4375,2.5098,2.5693,2.6279,2.6826,2.6963,2.7012,2.6943,2.6084,2.5381,2.4697,2.3271,2.2197,2.1338,0.0,2.0156,2.0088,1.9814,2.0,2.041,2.0703,2.0498,2.0033,1.9432,1.8189,1.7239,1.7959,1.849,1.9052,2.0234,2.0788,2.1371,2.2924,2.2939,2.3485,2.6653,2.7396,2.867,3.3207,3.5746,3.8411,4.1854,4.5104,4.678,4.536,4.4218,4.0859,3.3831,2.9974,0.0,0.0,0.0,0.0,1.887,1.7458,1.5913,1.4366,1.2908,1.1435,0.9819,0.9869,0.9947,1.0046,1.1087,1.1949,1.2373,1.4415,1.6222,1.7812,1.8402,1.9219,2.0358,1.9943,2.0178,2.0894,2.0933,2.1309,2.1849,2.2231,2.2824,2.3281,2.3173,2.3135,2.3115,0.0,0.0,0.0,0.0,0.0,0.0,0.0,0.0,0.0,0.0,0.0,0.0,0.0,0.0,0.0,0.0,0.0,1.2403,1.4228,1.5071,1.6186,1.7727,1.8414,1.8654,1.864,1.9548,2.0086,2.0227,2.1085,2.1729,2.2138,2.2806,2.3499,2.4269,2.5102,2.5517,2.5648,2.5872,2.5538,2.479,2.4524,2.4011,2.329,2.2259,2.1377,0.0,1.9297,1.9004,1.917,1.875,1.8887,1.9277,1.957,1.9805,1.985,1.917,1.917,1.9525,2.056,2.0795,2.1054,2.2279,2.298,2.3778,2.5056,2.6178,2.7753,3.0367,3.0792,3.1853,3.5775,3.7299,3.8824,4.1608,4.3677,4.4421,4.2682,4.065,3.6967,3.0639,2.7026,2.3512,0.0,0.0,0.0,1.7759,1.6351,1.4981,1.3436,1.2048,1.0842,0.9819,0.9822,0.9869,0.9968,1.1547,1.2878,1.4086,1.669,1.8402,1.9366,1.9807,2.0309,2.0959,2.1055,2.1478,2.2084,2.2317,2.2728,2.3268,2.3358,2.3625,2.3965,2.3535,2.2997,2.2492,0.0,0.0,0.0,0.0,0.0,0.0,0.0,0.0,0.0,0.0,0.0,0.0,0.0,0.0,0.0,0.0,0.0,0.0,1.3531,1.3924,1.4891,1.6752,1.7008,1.72,1.7374,1.756,1.7744,1.8012,1.8379,1.8729,1.9071,2.0896,2.2005,2.2478,2.4032,2.4562,2.4061,2.3791,2.2611,2.1052,2.1692,2.1307,2.0458,2.0534,2.0264,1.9717,1.8486,1.8018,1.792,1.7539,1.7725,1.8115,1.8135,1.958,2.1028,2.009,2.1427,2.3314,2.3614,2.3391,2.3316,2.458,2.5263,2.5398,2.5061,2.842,3.1178,2.9785,3.2273,3.5054,0.0,0.0,3.858,4.0778,4.048,3.9558,3.8528,3.4958,3.1366,0.0,0.0,0.0,0.0,0.0,0.0,1.6263,0.0,1.3341,1.2156,1.0547,0.9683,0.9819,0.9819,0.994,0.994,1.1615,1.3999,1.7085,1.8642,1.9482,1.9584,2.0492,2.0989,2.1136,2.19,2.222,2.237,2.3335,2.3782,2.3826,2.4708,2.4766,2.4336,2.3816,2.2645,2.1471,0.0,0.0,0.0,0.0,0.0,0.0,0.0,0.0,0.0,0.0,0.0,0.0,0.0,0.0,0.0,0.0,0.0,0.0,1.074,1.1995,1.2984,1.3515,1.4209,1.4211,1.3523,1.539,1.6041,1.534,1.7311,1.8263,1.8095,1.8812,1.9264,1.954,2.0263,2.0704,2.0881,2.0785,2.1075,2.1446,2.063,2.0838,2.1399,2.0459,1.9814,1.9355,1.8711,1.8076,1.7578,1.7783,1.8555,1.9482,1.9814,2.0742,2.188,2.2861,2.2694,2.2399,2.3916,2.3104,2.2133,2.2882,2.4052,2.5265,2.5675,2.7727,2.9648,3.0611,3.0746,3.1168,0.0,0.0,0.0,3.7282,3.8365,0.0,3.636,3.3818,0.0,2.5406,0.0,2.1145,1.9078,1.8712,0.0,0.0,1.4035,1.3675,1.366,1.1121,0.9785,0.9819,1.102,1.1615,1.1615,1.4351,1.6733,1.8765,1.9243,2.004,2.1031,2.1277,2.2285,2.3823,2.4062,2.4395,2.4768,2.5068,2.5034,2.4699,2.4652,2.4326,2.3806,2.2438,2.166,2.1203,0.0,0.0,0.0,0.0,0.0,0.0,0.0,0.0,0.0,0.0,0.0,0.0,0.0,0.0,0.0,0.0,0.0,0.0,0.0,0.9979,1.0611,1.0912,1.1244,1.1248,1.0807,1.2186,1.2641,1.2151,1.3892,1.4657,1.4493,1.5426,1.6073,1.646,1.7228,1.7787,1.8055,1.7899,1.7957,0.0,0.0,1.878,1.9247,1.9322,1.9209,1.8965,1.8721,1.8701,1.8877,1.9502,2.0185,2.0918,2.1728,2.2131,2.256,2.4019,2.3528,2.2909,2.4382,2.3771,2.2765,2.3102,2.4228,2.5329,2.5332,2.7447,2.9496,2.9661,2.9382,2.9364,3.0385,3.0747,0.0,0.0,0.0,0.0,3.2329,2.9656,2.6839,0.0,2.2372,0.0,2.043,1.974,1.8526,0.0,1.4871,1.3428,1.2277,1.0759,1.0131,1.0781,1.1817,1.2897,1.4237,1.6133,1.7806,1.9366,1.9366,2.0141,2.1578,2.2104,2.3168,2.4855,2.533,2.5619,2.5742,2.5742,2.5586,2.5226,2.4288,2.3682,2.3072,2.1425,2.0352,1.9579,0.0,0.0,0.0,0.0,0.0,0.0,0.0,0.0,0.0,0.0,0.0,0.0,0.0,0.0,0.0,0.0,0.0,0.0,0.0,0.0,0.8437,0.8995,0.8755,0.8685,0.8834,0.899,0.9057,0.9047,0.9756,1.0126,1.0253,1.1706,1.2682,1.3306,1.4479,1.5065,1.5124,1.5001,1.4453,1.3874,1.5717,1.6363,1.6416,0.0,1.8734,1.8695,1.8613,1.9463,2.0723,2.1719,2.2129,2.2441,2.3442,2.3446,2.3331,2.4306,2.3939,2.3332,2.4444,2.407,2.3396,2.3598,2.4634,2.5274,2.4382,2.7151,2.946,2.758,2.7839,2.8366,2.819,2.78,2.8132,2.9918,0.0,2.7222,2.8096,2.5254,2.3558,2.4845,2.2557,2.1399,2.2662,2.1237,2.0012,1.9615,1.6503,1.3433,1.0725,1.0656,1.1348,1.2853,1.299,1.4429,1.7325,1.7325,1.8046,1.9366,1.9366,2.0256,2.1911,2.2798,2.3849,2.5167,2.604,2.6143,2.5732,2.5674,2.5548,2.5198,2.3721,2.2736,2.2093,2.0372,1.8941,1.749,0.0,0.0,0.0,0.0,0.0,0.0,0.0,0.0,0.0,0.0,0.4572,0.4765,0.0,0.0,0.0,0.0,0.0,0.0,0.0,0.0,0.0,0.8528,0.8434,0.8176,0.7611,0.8392,0.8462,0.7611,0.8831,0.9322,0.9067,0.9696,0.9843,0.9757,1.0694,1.1093,1.1144,1.1817,1.306,1.4568,1.492,1.6537,1.8765,1.9414,0.0,0.0,1.8705,1.9463,2.081,2.2402,2.3408,2.3915,2.3886,2.4302,2.4739,2.4662,2.2659,2.0795,2.1685,2.0837,1.9862,2.0856,2.2788,2.4386,2.4461,2.5949,0.0,0.0,2.5679,2.6043,2.5545,2.5592,2.6287,2.8053,2.7558,2.717,2.7826,2.6967,2.6065,0.0,2.5133,2.4479,0.0,2.2704,0.0,0.0,1.7584,1.6948,1.6139,1.5059,1.5099,1.644,1.6283,1.7138,1.9004,1.9004,1.9127,1.9366,1.9366,2.0816,2.3359,2.3239,2.4499,2.6564,2.6462,0.0,2.5713,2.5332,2.4584,2.3519,2.2608,2.1511,2.0356,1.8715,1.7916,1.7498,0.0,0.0,0.0,0.0,0.0,0.0,0.0,0.3785,0.35,0.4091,0.4169,0.4436,0.4941,0.5087,0.5192,0.0,0.0,0.0,0.0,0.0,0.0,0.0,0.6945,0.6781,0.6452,0.6867,0.6887,0.6317,0.0,0.7392,0.7146,0.7829,0.8311,0.8521,0.9411,1.0103,1.0651,1.1443,1.2654,1.4077,1.4951,1.6661,1.8623,0.0,0.0,0.0,0.0,1.9168,1.9995,2.1097,2.1822,2.2726,2.4454,2.4382,2.3432,2.2749,2.091,1.9222,1.9602,1.9283,1.9112,2.074,2.2775,2.4251,2.4293,0.0,0.0,2.4735,2.4709,2.473,2.4054,2.3682,0.0,2.5215,2.4096,2.3455,2.458,2.4607,0.0,2.5299,2.5753,2.5667,0.0,2.381,2.2212,1.9587,1.9454,1.8599,1.6469,1.6442,1.6746,1.7235,1.7947,1.8648,1.9366,1.9366,1.9366,1.9366,1.9366,2.0851,2.3431,2.3267,2.45,2.668,2.6475,2.5701,2.4475,2.4172,2.3258,2.1848,2.054,1.9665,1.8965,1.7334,1.6669,1.6567,0.0,0.0,0.0,0.0,0.0,0.0,0.0,0.2565,0.2501,0.3351,0.3658,0.4116,0.4847,0.5255,0.5481,0.0,0.0,0.0,0.0,0.0,0.0,0.0,0.0,0.0,0.5759,0.0,0.0,0.6066,0.626,0.0,0.0,0.0,0.0,0.0,0.9114,0.9898,1.0699,1.1711,1.2629,0.0,0.0,1.6978,0.0,0.0,0.0,0.0,0.0,1.8748,1.8952,1.9327,1.9368,1.9739,2.2851,2.2989,2.1708,2.0629,1.9275,1.8396,1.8944,1.9106,1.9786,2.2246,2.3859,2.484,2.4967,2.5803,0.0,2.4596,2.4292,2.3989,2.2992,2.2198,2.1918,0.0,2.1105,2.0298,2.1795,2.2666,2.3712,0.0,2.5955,0.0,2.5489,2.4294,0.0,2.0906,2.0982,1.9852,1.6728,1.7457,1.7895,1.7727,1.8796,1.9366,1.9366,1.9366,1.9366,1.9366,1.9366,2.0544,2.2739,2.2994,2.4062,2.5823,2.5737,2.4758,2.3172,2.2679,2.1682,2.0134,1.8758,1.7963,1.7559,1.6286,1.5832,1.5635,0.0,0.0,0.0,0.0,0.0,0.0,0.0,0.2232,0.2237,0.2306,0.3202,0.4108,0.5001,0.5966,0.6572,0.0,0.0,0.0,0.0,0.0,0.0,0.0,0.0,0.0,0.0,0.0,0.0,0.812,0.8165,0.0,0.0,0.0,0.0,0.0,0.0,0.9373,0.956,1.1185,0.0,0.0,0.0,0.0,0.0,0.0,0.0,0.0,0.0,1.837,1.8046,1.8334,1.7007,1.53,1.6081,1.8886,2.1524,1.9904,0.0,0.0,2.0522,2.0985,2.1816,2.5436,2.6155,2.6419,2.8081,0.0,2.5657,2.4517,2.4292,2.3813,2.231,2.1308,2.0996,2.1903,2.1138,2.1049,2.2616,2.4687,2.5702,2.4746,0.0,0.0,2.4031,2.3698,0.0,2.1195,2.1096,2.0843,2.027,1.9981,1.9826,1.9562,1.9519,1.9366,1.9366,1.9366,1.9366,1.9366,1.9366,2.0095,2.1299,2.2193,2.3029,2.3926,2.3669,2.3258,0.0,2.102,1.9636,1.8464,1.795,1.708,1.6055,1.5838,1.5832,1.5825,0.0,0.0,0.0,0.0,0.0,0.0,0.1563,0.1174,0.1238,0.2236,0.2763,0.3898,0.619,0.694,0.7359,0.7493,0.0,0.0,0.0,0.0,0.0,0.0,0.0,0.0,0.0,0.0,0.7526,0.842,0.842,0.0,0.0,0.0,0.0,0.0,0.0,1.1192,1.1578,1.274,0.0,0.0,0.0,0.0,0.0,0.0,0.0,0.0,0.0,0.0,1.6542,1.5751,1.4374,1.2965,1.3568,1.5285,1.6942,1.6398,1.6883,1.8007,2.0125,2.143,2.3108,2.78,2.8554,2.8632,2.9936,0.0,2.6764,2.5243,2.4168,2.317,2.2113,2.0782,1.9815,1.9736,1.8979,1.8601,1.9206,2.1105,2.2455,2.2585,2.4586,0.0,0.0,0.0,2.2959,2.1229,2.0949,2.0722,2.0428,2.0294,2.002,1.9553,1.9432,1.9366,1.9366,1.9366,1.9366,1.9366,1.9185,1.9709,2.0778,2.078,2.1296,2.2197,2.1924,2.1544,0.0,1.962,1.8612,1.7864,1.6899,1.6292,1.5832,1.5832,1.5832,1.5832,0.0,0.0,0.0,0.0,0.0,0.0838,0.1062,0.0671,0.0846,0.2247,0.2681,0.3767,0.6339,0.7259,0.7871,0.8233,0.8159,0.0,0.0,0.0,0.0,0.0,0.0,0.0,0.0,0.0,0.8515,0.9732,0.9732,1.0033,0.0,0.0,1.1662,1.2035,0.0,0.0,0.0,0.0,0.0,0.0,0.0,0.0,0.0,0.0,0.0,0.0,0.0,0.0,0.0,0.0,0.0,1.1486,1.176,1.2587,1.3689,1.4252,1.6251,1.8706,2.1253,2.3528,2.614,3.0821,3.1235,3.0758,0.0,0.0,2.716,2.528,2.3955,2.2813,2.1562,2.0282,1.9162,1.8247,1.7623,1.7098,1.6772,1.8084,1.9383,0.0,0.0,0.0,0.0,2.1376,2.1002,2.0333,2.002,2.0002,2.0127,2.0107,1.988,1.9379,1.9366,1.9366,1.9366,1.9366,1.9325,1.9232,1.9025,1.9215,1.9671,1.9635,1.9836,2.0289,2.0143,1.9827,0.0,1.8108,1.7421,1.7037,1.6109,1.5832,1.5832,1.5832,1.5832,1.5832,0.0,0.0,0.0,0.0,0.0,0.0,0.1006,0.1118,0.1341,0.212,0.2987,0.3917,0.4822,0.6616,0.8051,0.8936,0.9178,0.0,0.0,0.0,0.0,0.0,0.0,0.0,0.0,0.0,1.0268,1.2841,1.2841,1.3645,1.5147,1.4775,1.4678,1.4637,0.0,0.0,0.0,0.0,0.0,0.0,0.0,0.0,0.0,0.0,0.0,0.0,0.0,0.0,0.0,0.0,0.0,0.0,0.0,1.0999,1.3053,1.489,1.7853,2.1418,2.4677,2.8087,3.1655,3.4945,3.4324,3.262,3.1782,2.9219,2.6364,2.4077,2.3592,2.2826,2.0347,1.9902,1.9413,1.7926,1.7701,1.7467,1.6669,1.7251,1.7647,0.0,0.0,1.6715,1.7255,1.6538,1.6594,1.8022,1.813,0.0,1.9714,1.9806,1.9673,1.9379,1.9366,1.9366,1.9366,1.9366,1.9219,1.8925,1.8925,1.8457,1.7694,1.902,1.9097,1.8177,1.8266,1.8085,0.0,1.6393,1.5832,1.5825,1.5832,1.5832,1.5832,1.5832,1.5832,1.5832,0.0,0.0,0.0,0.0,0.0,0.0,0.0,0.1507,0.212,0.2899,0.3263,0.3958,0.5175,0.6658,0.7887,0.867,0.9407,0.0,0.0,0.0,0.0,0.0,0.0,0.0,0.0,0.0,1.2081,1.3268,1.3268,1.3751,1.4714,1.5231,1.5757,1.6421,1.616,1.6597,0.0,0.0,0.0,0.0,0.0,0.0,0.0,0.0,0.0,0.0,0.0,0.0,0.0,0.0,0.0,0.0,0.0,0.0,0.0,1.6041,1.7932,2.0332,2.357,2.6361,2.9194,3.3104,3.3087,3.2,3.1602,2.9251,2.653,2.409,2.2735,2.1527,2.0164,1.9441,1.875,1.7861,1.7084,1.6172,0.0,0.0,0.0,1.4367,1.497,1.5671,0.0,0.0,1.5877,1.646,1.6177,1.6111,1.6391,1.716,1.8056,1.9366,1.9366,1.9366,1.9366,1.9366,1.9219,1.8918,1.8724,1.837,1.7876,1.7668,1.7417,1.7126,1.6704,1.7037,1.7598,1.6292,1.6292,1.7037,1.6109,1.5705,1.5531,1.5531,1.5404,1.5264,0.0,0.0,0.0,0.0,0.0,0.0,0.0,0.2343,0.2954,0.3735,0.379,0.4177,0.4999,0.6227,0.7299,0.8134,0.9187,0.0,0.0,0.0,0.0,0.0,0.0,0.0,1.2166,1.2539,1.3141,1.3987,1.3987,1.45,1.5578,1.6449,1.7239,1.8006,1.8148,1.8689,0.0,0.0,0.0,0.0,0.0,0.0,2.0064,0.0,0.0,0.0,0.0,0.0,0.0,0.0,0.0,0.0,0.0,0.0,0.0,0.0,1.8822,2.1141,2.3794,2.6632,2.9492,3.2341,3.2384,0.0,3.0425,2.7986,2.5223,2.2834,2.1419,2.025,1.9273,1.8328,1.7697,1.7665,1.6774,1.5811,0.0,0.0,0.0,1.0591,0.0,0.0,0.0,1.2197,1.2549,1.2632,1.2302,1.2653,1.3608,1.433,1.5783,1.8192,1.8797,1.9038,1.9038,1.9038,1.8885,1.8591,1.8404,1.8043,1.7522,1.6961,1.6587,1.6353,1.5992,1.6292,0.0,1.6109,1.6292,1.6929,1.5987,1.5558,1.5384,1.5277,1.5117,1.499,0.0,0.0,0.0,0.0,0.0,0.0,0.0,0.3456,0.3735,0.4405,0.4519,0.4519,0.4519,0.5525,0.6566,0.7418,0.0,0.0,0.0,0.0,0.0,0.0,0.0,0.0,1.2647,1.3007,1.3726,1.4958,1.4958,1.5748,1.735,1.8204,1.8838,1.9357,1.9802,1.9986,0.0,0.0,0.0,0.0,0.0,0.0,0.0,0.0,0.0,0.0,0.0,0.0,0.0,0.0,0.0,0.0,0.0,0.0,0.0,0.0,0.0,0.0,0.0,2.8132,3.1402,3.2171,3.1731,3.0553,2.8479,2.5709,0.0,2.0658,1.9915,1.9238,1.8053,1.7,1.6623,1.7662,1.696,0.0,0.0,1.3901,0.0,0.0,0.7883,0.0,0.5146,0.6456,0.7358,0.7207,0.713,0.8292,1.1077,1.1384,1.2885,1.5612,1.7208,1.817,1.849,1.849,1.8343,1.805,1.7895,1.7443,1.6734,1.6587,1.6275,0.0,1.5838,1.5832,1.5832,1.5832,1.573,1.5609,1.5411,1.5285,1.5232,1.4947,1.4917,1.4903,0.0,0.0,0.0,0.0,0.0,0.0,0.0,0.0,0.0,0.0,0.4519,0.4519,0.4519,0.5421,0.6424,0.0,0.0,0.0,0.0,0.0,0.0,0.0,0.0,0.0,1.3341,1.4308,1.498,1.5262,1.5262,1.566,1.6439,1.7856,1.895,1.9769,2.045,2.0991,0.0,0.0,0.0,0.0,0.0,0.0,0.0,0.0,0.0,0.0,1.5743,1.5875,0.0,0.0,0.0,0.0,0.0,0.0,0.0,0.0,2.2055,2.3415,2.435,0.0,2.7834,2.8541,2.8555,2.7811,0.0,2.4413,2.3191,2.0522,1.9924,1.9657,1.9,1.8073,1.7791,1.9174,0.0,0.0,0.0,0.0,0.0,0.0,0.0,0.7122,0.6439,0.4922,0.3934,0.3977,0.3909,0.4051,0.4731,0.6837,0.8842,1.0331,1.1791,1.4484,1.8477,1.849,1.8343,1.7935,1.6712,1.6497,1.7027,1.5551,1.5385,1.6152,1.5925,1.5832,1.5832,1.5832,1.5242,1.4339,1.4178,1.3853,1.3538,1.3355,1.376,1.4322,0.0,0.0,0.0,0.0,0.0,0.0,0.0,0.0,0.0,0.0,0.0,0.0,0.0,0.0,0.0,0.0,0.0,0.0,0.0,0.0,0.0,0.0,0.0,1.3717,1.3889,1.5067,1.5703,1.5703,1.5918,1.6305,1.689,1.8191,1.9236,2.0058,2.114,2.1799,0.0,0.0,0.0,0.0,2.0188,0.0,0.0,0.0,0.0,0.0,1.6046,1.6158,0.0,1.6299,1.6689,1.7209,0.0,0.0,0.0,0.0,2.1968,2.3095,2.346,2.4761,2.6082,2.65,2.6231,2.5482,2.3901,2.2795,2.1547,1.9576,0.0,1.8812,1.8635,1.7692,1.7721,0.0,1.838,0.0,0.0,0.0,0.0,0.0,0.6984,0.5156,0.0,0.2403,0.093,-0.0354,-0.0579,-0.0341,0.0337,0.1876,0.4008,0.6577,0.7553,1.0552,1.588,1.5887,1.5875,1.5856,1.483,1.4579,1.5053,1.4542,1.4594,1.5267,1.5606,1.5832,1.5832,1.5832,1.536,1.454,1.4371,1.3719,1.2892,1.2633,1.2887,1.3313,0.0,0.0,0.0,0.0,0.0,0.0,0.0,0.0,0.0,0.0,0.0,0.0,0.0,0.0,0.0,0.0,0.0,0.0,0.0,0.0,0.0,0.0,1.3479,1.387,1.4204,1.5403,1.6056,1.6125,1.6501,1.704,1.7747,1.8625,1.9448,2.0316,2.1778,2.2317,0.0,0.0,0.0,0.0,1.8984,0.0,0.0,0.0,0.0,0.0,0.0,0.0,0.0,1.6406,1.6572,1.6747,1.7636,0.0,0.0,0.0,0.0,0.0,2.2445,2.3608,2.4874,2.498,2.4296,2.3404,2.2566,0.0,0.0,0.0,0.0,0.0,1.7915,1.7128,0.0,0.0,0.0,0.0,0.0,0.0,0.0,0.8206,0.5763,0.0,0.011,-0.0449,-0.1716,-0.4649,-0.4879,-0.4254,-0.2924,-0.2521,-0.0537,0.33,0.3556,0.6063,1.1243,1.1935,1.2348,1.2598,1.2101,1.2016,1.2317,1.2998,1.3481,1.368,1.4709,1.5177,1.5177,1.5132,1.4878,1.445,1.4263,1.3367,1.2241,1.1899,1.1895,1.2072,0.0,0.0,0.0,0.0,0.0,0.0,0.0,0.0,0.0,0.0,0.0,0.0,0.0,0.0,0.0,0.0,0.0,0.0,0.0,0.0,0.0,1.3965,1.4091,1.415,1.4213,1.5058,1.5693,1.6125,1.6402,1.6794,1.7336,1.8283,1.942,2.0719,2.2395,2.2557,2.1644,0.0,0.0,0.0,1.9104,0.0,0.0,0.0,0.0,0.0,0.0,0.0,0.0,1.5586,1.5859,1.6457,1.7926,0.0,0.0,0.0,0.0,0.0,2.1746,2.2047,2.2375,2.2603,2.235,2.1587,1.9717,1.9318,0.0,0.0,0.0,0.0,0.0,1.8423,1.897,0.0,0.0,1.8737,0.0,0.0,1.022,1.0783,0.0,0.3013,-0.0105,-0.2397,-0.4487,-0.6186,-0.6386,-0.6179,-0.5903,-0.4587,-0.3056,-0.124,-0.1015,0.051,0.3694,0.7538,0.9427,0.9473,0.8071,0.8606,1.0737,0.947,1.0181,1.2226,1.2316,1.2325,1.2304,1.2194,1.1441,1.0376,1.0271,0.9989,0.9665,0.9477,1.0009,1.1037,0.0,0.0,0.0,0.0,0.0,0.0,0.0,0.0,0.0,0.0,0.0,0.0,0.0,0.0,0.0,0.0,0.0,0.0,0.0,0.0,1.3502,1.4495,1.4751,1.4628,1.4213,1.5219,1.6098,1.6717,1.6729,1.7312,1.843,1.9768,2.0666,2.1262,2.2729,2.2829,2.1945,2.1777,2.1057,2.0001,0.0,0.0,0.0,0.0,0.0,0.0,0.0,0.0,0.0,0.0,1.5361,1.5861,1.6533,0.0,0.0,0.0,0.0,0.0,1.9117,1.9215,1.9422,1.9732,2.0268,2.0402,1.9263,1.8405,0.0,0.0,0.0,0.0,0.0,0.0,1.932,2.1404,0.0,1.9872,1.9151,1.4922,1.1611,0.0,0.0,0.2662,-0.1149,-0.3372,-0.5475,-0.7706,-0.7862,-0.7765,-0.7642,-0.6865,-0.5824,-0.4424,-0.4246,-0.323,-0.1231,0.1531,0.4119,0.6417,0.5535,0.5795,0.7065,0.7749,0.863,0.9807,1.1072,1.1635,1.1595,1.1465,1.093,1.0182,1.0093,0.9643,0.886,0.8882,0.9235,0.9923,0.0,0.0,0.0,0.0,0.0,0.0,0.0,0.0,0.0,0.0,0.0,0.0,0.0,0.0,0.0,0.0,0.0,0.0,0.0,0.0,1.4338,1.4941,1.5146,1.4926,1.4167,1.5243,1.6167,1.6869,1.6801,1.7689,1.9318,2.1004,2.1615,2.1472,2.2758,2.286,2.1875,2.1455,2.0936,2.0322,0.0,0.0,0.0,0.0,0.0,0.0,0.0,0.0,0.0,0.0,0.0,0.0,0.0,0.0,0.0,1.6551,1.6909,1.7137,1.7137,1.7129,1.7152,1.7582,1.8382,1.9163,1.9142,1.7812,0.0,0.0,0.0,0.0,0.0,2.0065,0.0,2.0639,2.1121,2.0771,1.8419,1.5012,1.2011,1.0074,0.612,0.203,-0.2009,-0.3379,-0.4998,-0.7662,-0.7759,-0.7669,-0.7636,-0.7443,-0.6916,-0.588,-0.5677,-0.4933,-0.3639,-0.2519,-0.0306,0.2931,0.3056,0.324,0.3794,0.5715,0.6698,0.6988,0.8973,0.9776,0.9708,0.9566,0.9465,0.9496,0.9547,0.9,0.8349,0.8404,0.8627,0.9148,0.0,0.0,0.0,0.0,0.0,0.0,0.0,0.0,0.0,0.0,0.0,0.0,0.0,0.0,0.0,0.0,0.0,0.0,0.0,0.0,1.4172,1.5293,1.5029,1.4583,1.4131,1.4603,1.5199,1.5797,1.6101,1.7194,1.9058,2.0823,2.1316,2.0822,2.2551,2.2376,2.0815,2.1274,2.0477,1.8881,1.8691,0.0,0.0,0.0,0.0,0.0,0.0,0.0,0.0,0.0,0.0,0.0,0.0,0.0,1.6116,1.718,1.7555,1.7577,1.7577,1.7116,1.6753,1.714,1.7093,1.7233,1.8389,1.7645,0.0,1.7966,0.0,0.0,0.0,2.1222,2.2656,2.0979,2.1194,2.109,1.9621,0.0,1.0548,0.9757,0.5385,0.11,-0.1919,-0.2271,-0.306,-0.4693,-0.4832,-0.4748,-0.4564,-0.4549,-0.4439,-0.4336,-0.4257,-0.3546,-0.2375,-0.2132,-0.1813,-0.1515,-0.0303,0.0908,0.2116,0.2371,0.3131,0.4285,0.4326,0.4393,0.4374,0.4201,0.4711,0.5549,0.5755,0.6393,0.7214,0.7224,0.7929,0.889,0.0,0.0,0.0,0.0,0.0,0.0,0.0,0.0,0.0,0.0,0.0,0.0,0.0,0.0,0.0,0.0,0.0,0.0,0.0,1.3951,1.4562,1.5019,1.4873,1.458,1.4087,1.4297,1.4905,1.5992,1.7307,1.835,1.911,2.1208,2.1904,2.1315,2.2703,2.2574,2.1167,2.0563,2.0159,1.9809,1.8522,1.8394,0.0,0.0,0.0,0.0,0.0,0.0,0.0,0.0,1.4404,1.4851,1.438,1.4495,1.4707,1.417,1.4479,1.4995,1.4874,1.5517,1.6363,1.6457,1.6374,0.0,0.0,1.7243,1.636,1.8038,1.7734,0.0,0.0,0.0,2.0979,1.9886,1.9571,1.902,1.7632,1.332,0.9564,0.7859,0.4412,0.1073,-0.1886,-0.2232,-0.279,-0.4395,-0.4427,-0.4264,-0.4234,-0.4085,-0.365,-0.2834,-0.2814,-0.2108,-0.0808,0.0,0.0501,0.0501,0.0201,0.0303,0.0806,0.158,0.2236,0.2686,0.3424,0.3794,0.3652,0.3462,0.3677,0.4106,0.4913,0.5521,0.616,0.6871,0.7404,0.7929,0.0,0.0,0.0,0.0,0.0,0.0,0.0,0.0,0.0,0.0,0.0,0.0,0.0,0.0,0.0,0.0,0.0,0.0,1.3199,1.394,1.4443,1.457,1.458,1.4375,1.3945,1.3936,1.449,1.5642,1.7337,1.849,1.9092,2.0899,2.1446,2.1069,2.2096,2.1941,2.0916,1.9871,1.9801,2.0285,1.8703,1.8646,0.0,0.0,0.0,0.0,0.0,0.0,0.0,0.0,1.4316,1.4658,1.376,1.3536,1.3408,1.2483,1.2434,1.2706,1.2787,1.3699,1.4731,1.5009,0.0,0.0,1.809,1.6867,1.5814,1.7831,1.7267,0.0,0.0,0.0,0.0,0.0,1.7338,1.6341,1.4443,1.1155,0.8073,0.5888,0.3234,0.0739,-0.1349,-0.1467,-0.1898,-0.295,-0.3003,-0.2663,-0.2251,-0.2123,-0.1503,-0.01,-0.01,0.03,0.1297,0.2088,0.2581,0.2581,0.1979,0.1488,0.1198,0.2152,0.2486,0.2331,0.3261,0.3371,0.2972,0.2825,0.308,0.355,0.4669,0.5431,0.6065,0.6737,0.7075,0.7159,0.0,0.0,0.0,0.0,0.0,0.0,0.0,0.0,0.0,0.0,0.0,0.0,0.0,0.0,0.0,0.0,0.0,0.0,1.3426,1.3506,1.3691,1.4121,1.4141,1.3945,1.3525,1.3516,1.3791,1.439,1.5738,1.7266,1.8983,1.956,1.9798,1.9823,2.0388,2.0326,1.9761,1.9246,1.9334,1.9761,1.9246,1.8983,1.8871,0.0,0.0,0.0,0.0,0.0,0.0,0.0,1.4219,1.3662,1.4512,1.3695,1.2588,1.296,1.2074,1.1152,1.1903,1.18,1.1768,0.0,0.0,0.0,1.776,1.6632,1.544,1.734,1.7146,1.7037,1.8523,0.0,0.0,1.5244,1.4512,1.3177,1.032,0.7893,0.5808,0.4207,0.166,0.0,0.0,0.0,0.0,0.0,0.0,0.0605,0.1912,0.2012,0.2613,0.4012,0.4014,0.4014,0.4112,0.3942,0.3908,0.3907,0.4864,0.4774,0.3809,0.3828,0.3623,0.339,0.3416,0.2681,0.159,0.1639,0.2418,0.3725,0.4672,0.5956,0.7031,0.698,0.6929,0.6929,0.0,0.0,0.0,0.0,0.0,0.0,0.0,0.0,0.0,0.0,0.0,0.0,0.0,0.0,0.0,0.0,0.0,0.0,1.3477,1.3506,1.4079,1.5337,1.4546,1.4413,1.5172,1.4357,1.409,1.439,1.5675,1.6681,1.7491,1.8529,1.8839,1.8488,1.9207,1.9409,1.9246,1.9046,1.9334,1.9786,1.9635,1.9359,1.8921,0.0,0.0,0.0,0.0,0.0,0.0,0.0,0.0,0.0,1.3283,1.2241,1.1013,1.0211,1.0149,1.0265,1.024,1.1391,0.0,1.4153,0.0,0.0,0.0,1.6537,0.0,0.0,1.6217,1.5645,1.6245,0.0,0.0,1.1536,1.0421,0.9501,0.8671,0.635,0.4562,0.4014,0.2436,0.1023,0.0102,0.0,0.0,0.0,0.091,0.1502,0.1879,0.2763,0.4204,0.6247,0.6339,0.719,0.8993,0.8941,0.8917,0.8917,0.8287,0.6447,0.373,0.442,0.4234,0.3301,0.3246,0.3014,0.2683,0.2793,0.3083,0.3556,0.4837,0.5455,0.5757,0.6595,0.6929,0.6912,0.0,0.0,0.0,0.0,0.0,0.0,0.0,0.0,0.0,0.0,0.0,0.0,0.0,0.0,0.0,0.0,0.0,0.0,0.0,1.363,1.4224,1.5663,1.5206,1.5374,1.631,1.5173,1.4707,1.5124,1.562,1.6382,1.7342,1.8118,1.8309,1.8055,1.8486,1.8819,1.8933,1.8269,1.8719,1.9761,1.9346,1.8982,1.8596,0.0,0.0,0.0,0.0,0.0,0.0,0.0,0.0,0.0,1.2152,1.0888,0.9658,0.8553,0.8246,0.8233,0.8361,0.9952,0.0,1.2852,1.4426,1.6004,1.6854,0.0,0.0,0.0,0.0,1.5021,1.4788,1.3755,0.0,1.0075,0.8721,0.7809,0.7307,0.5815,0.4618,0.4016,0.3316,0.2514,0.1711,0.1501,0.1495,0.1495,0.2175,0.2838,0.3289,0.4057,0.5653,0.802,0.8109,0.9039,1.1084,1.1,1.096,1.0955,1.047,0.8785,0.6187,0.6383,0.5996,0.5137,0.4176,0.3718,0.3723,0.3386,0.3505,0.4106,0.536,0.5778,0.5881,0.6923,0.7076,0.6732,0.0,0.0,0.0,0.0,0.0,0.0,0.0,0.0,0.0,0.0,0.9361,0.0,0.0,0.0,0.0,0.0,0.0,0.0,0.0,1.3815,1.4381,1.5626,1.6135,1.6582,1.7025,1.5918,1.5607,1.6277,1.5668,1.6286,1.8076,1.8074,1.8134,1.8172,1.8119,1.8442,1.8795,1.7262,1.7777,1.9572,1.8593,1.8179,1.8081,1.752,0.0,0.0,0.0,0.0,0.0,0.0,0.0,0.0,1.1028,0.9665,0.8283,0.7611,0.6465,0.5622,0.6454,0.7699,0.0,0.9781,1.2277,0.0,1.4984,1.6465,1.7632,1.7517,0.0,1.5132,1.4124,1.2723,1.1316,1.0062,0.8806,0.7518,0.6229,0.6011,0.5504,0.4314,0.4203,0.4098,0.4005,0.3844,0.3803,0.3803,0.374,0.4265,0.5484,0.5764,0.6973,0.9385,0.9477,1.0205,1.1475,1.1284,1.1185,1.1258,1.1652,1.1415,1.0418,0.9233,0.8444,0.8019,0.5876,0.5004,0.51,0.4049,0.4336,0.5421,0.6315,0.6819,0.7069,0.7713,0.7497,0.6788,0.0,0.0,0.0,0.0,0.0,0.0,0.0,0.0,0.0,0.0,0.0,0.0,0.0,0.0,0.0,0.0,0.0,0.0,0.0,1.3815,1.4712,1.6822,1.7402,1.7612,1.7465,1.651,1.6266,1.6912,1.6314,1.6367,1.71,1.726,1.7543,1.7953,1.7681,1.7865,1.8329,1.7539,1.7714,1.853,1.8292,1.794,1.7551,1.7414,1.7293,0.0,0.0,0.0,0.0,0.0,0.0,0.0,0.994,0.8169,0.6346,0.6069,0.5454,0.4883,0.4905,0.5326,0.0,0.0,1.2601,1.6476,1.8938,1.8362,1.7024,1.5819,1.5643,1.5367,1.416,1.3634,1.2346,0.897,0.8091,0.7378,0.6213,0.5776,0.5632,0.5606,0.538,0.4925,0.3927,0.3768,0.3629,0.3629,0.4563,0.5272,0.5473,0.7295,0.896,1.0319,1.1184,1.2647,1.4704,1.3828,1.3796,1.4601,1.2631,1.1992,1.2475,1.1209,1.0011,0.8985,0.7679,0.7676,0.8427,0.822,0.8242,0.8502,0.89,0.8949,0.8811,0.8216,0.8357,0.8728,0.0,0.0,0.0,0.0,0.0,0.0,0.0,0.0,0.0,0.0,0.0,0.0,0.0,0.0,0.0,0.0,0.0,0.0,0.0,0.0,1.5603,1.7641,1.793,1.8073,1.8253,1.7171,1.6978,1.7634,1.7296,1.7123,1.7118,1.7436,1.791,1.841,1.8213,1.8468,1.8907,1.784,1.7852,1.8555,1.8028,1.7639,1.7388,1.7388,1.7065,1.6353,1.5119,0.0,0.0,0.0,0.0,0.0,0.0,0.0,0.5048,0.4628,0.4007,0.3423,0.2919,0.0,0.0,0.6606,0.0,1.4342,1.7382,1.7458,1.6706,1.5938,1.5664,1.5236,1.388,1.369,1.2819,1.011,0.9644,0.914,0.7986,0.7515,0.7247,0.6831,0.6631,0.6286,0.5679,0.544,0.5274,0.542,0.5825,0.6086,0.6086,0.7767,0.9136,1.0208,1.1377,1.2851,1.4667,1.411,1.411,1.466,1.3152,1.2569,1.2696,1.153,1.0621,0.997,0.8993,0.8827,0.9386,0.9386,0.9386,0.9473,0.9974,0.9559,0.869,0.8613,0.8613,0.8522,0.0,0.0,0.0,0.0,0.0,0.0,0.0,0.0,0.0,0.0,0.0,0.0,0.0,0.0,0.0,0.0,0.0,0.0,0.0,0.0,0.0,1.8166,1.8227,1.8457,1.8983,1.7898,1.7572,1.8222,1.8117,1.7922,1.7695,1.8017,1.85,1.902,1.8883,1.9183,1.956,1.7922,1.775,1.8497,1.7489,1.7045,1.6942,1.7032,1.6308,1.5196,1.4506,1.3476,1.2248,1.1154,0.0,0.0,0.0,0.0,0.4076,0.3394,0.2525,0.1616,0.0886,0.0,0.0073,0.3231,0.6643,0.0,1.3471,1.526,1.6271,1.6498,1.5901,1.5035,1.3896,1.3704,1.3234,1.201,1.1693,1.1214,0.9944,0.9478,0.8818,0.7684,0.7553,0.7519,0.7519,0.7268,0.7146,0.7248,0.6912,0.6836,0.7133,0.8002,0.8973,1.01,1.1238,1.2432,1.3879,1.3675,1.375,1.4109,1.3605,1.3063,1.2519,1.1539,1.1087,1.1013,0.997,0.9674,0.9825,0.9825,0.9825,0.9895,1.0565,0.9814,0.8389,0.888,0.8646,0.794,0.0,0.0,0.0,0.0,0.0,0.0,0.0,0.0,0.0,0.0,0.0,0.0,0.0,0.0,0.0,0.0,0.0,0.0,1.5295,0.0,0.0,1.8191,1.9046,1.937,1.8983,1.8384,1.8088,1.8222,1.7695,1.7873,1.878,1.8362,1.848,1.8958,1.853,1.8618,1.8995,1.7253,1.6642,1.6667,1.608,1.5527,1.5131,1.5662,1.5073,1.3882,1.328,1.2164,1.0806,0.9481,0.8059,0.0,0.0,0.0,0.3394,0.2578,0.1282,-0.0064,-0.0952,0.0,-0.5677,0.0,0.0758,0.4694,0.0,0.0,1.4767,0.0,1.5665,1.5017,1.4837,1.4837,1.4366,1.3065,1.2693,1.1901,0.9634,0.9091,0.8641,0.7754,0.7363,0.72,0.72,0.7054,0.6912,0.68,0.6736,0.712,0.7958,0.9068,1.0186,1.1238,1.2387,1.3646,1.5057,1.386,1.4237,1.63,1.4743,1.3888,1.3455,1.2512,1.2077,1.207,1.1019,1.1087,1.1922,1.1922,1.1922,1.1848,1.1087,1.0634,1.0207,0.8723,0.8531,0.8941,0.0,0.0,0.0,0.0,0.0,0.0,0.0,0.0,0.0,0.0,0.0,0.0,0.0,0.0,0.0,1.1276,1.2802,1.4665,1.6834,1.8572,1.94,1.9176,1.9621,1.9814,1.9581,1.8668,1.8341,1.8611,1.8329,1.8302,1.8503,1.8571,1.8897,1.9396,1.8781,1.8602,1.8709,1.726,1.6486,1.6236,1.567,1.5119,1.4698,1.4562,1.371,1.2368,1.0912,0.9786,0.8761,0.7365,0.6484,0.5851,0.5202,0.0,0.0,0.0,0.1103,-0.0716,-0.3555,-0.635,-0.825,0.0,-0.2898,0.2281,0.6187,0.0,1.426,1.5479,1.4419,1.3521,1.4562,1.4716,1.4533,1.3983,1.324,1.222,1.0534,0.9495,0.8243,0.659,0.623,0.5891,0.5174,0.5545,0.5785,0.5797,0.6182,0.669,0.7081,0.8531,0.9478,0.9883,1.1534,1.29,1.3896,1.3317,1.3768,1.5265,1.4922,1.439,1.3673,1.3237,1.3091,1.3018,1.2063,1.1922,1.2305,1.2305,1.1996,1.1391,1.0932,1.011,0.8998,0.8172,0.8154,0.8322,0.0,0.0,0.0,0.0,0.0,0.0,0.0,0.0,0.0,0.0,0.0,0.0,0.0,0.0,0.0,0.0,1.3433,1.5576,1.8179,1.974,2.0427,2.018,2.0332,2.0355,2.0207,1.9364,1.9024,1.929,1.9198,1.8931,1.8486,1.8713,1.8996,1.9265,1.8734,1.849,1.8359,1.7095,1.6431,1.6045,1.5159,1.4569,1.4058,1.3243,1.2087,1.0673,0.8711,0.757,0.686,0.5666,0.5249,0.5218,0.4992,0.3809,0.0,0.0,0.0,0.0,0.0,0.0,-0.7806,-0.707,-0.1795,0.3706,0.0,0.0,1.4782,0.0,1.2544,1.1728,1.3137,1.3429,1.3517,1.3517,1.2802,1.1805,1.0695,0.9284,0.7537,0.5132,0.4621,0.4001,0.2739,0.3521,0.4055,0.4157,0.5165,0.5925,0.6193,0.7807,0.8888,0.9069,1.0889,1.2191,1.2936,1.316,1.3535,1.4111,1.4864,1.4807,1.4099,1.3818,1.3593,1.3288,1.2586,1.215,1.1922,1.1922,1.1316,1.0409,1.011,0.9135,0.7787,0.7529,0.7439,0.7334,0.0,0.0,0.0,0.0,0.0,0.0,0.0,0.0,0.0,0.0,0.0,0.0,1.0232,1.0297,1.1054,1.2931,1.3968,1.5776,1.8852,2.1116,2.1914,2.0889,2.1351,0.0,2.0854,2.0785,2.0656,2.0422,2.0021,1.9746,1.9527,1.897,1.8472,1.7977,1.7977,1.7833,1.7599,1.6461,1.5923,1.5763,1.4164,1.3164,1.2468,1.1309,1.0007,0.8659,0.7125,0.0,0.0,0.0,0.0,0.4405,0.3677,0.3308,0.3103,0.0,0.0,0.0,0.0,-0.3596,0.0,0.1568,0.6684,0.0,0.0,0.0,0.0,1.1088,0.9891,0.9968,1.0374,1.06,1.0804,1.0804,1.0712,1.0297,0.8998,0.7887,0.6246,0.3798,0.2633,0.1497,0.0086,0.1116,0.1689,0.1541,0.3401,0.5013,0.6,0.7668,0.9161,1.0467,1.143,1.2291,1.318,1.4095,1.4236,1.3768,1.4744,1.5163,1.5092,1.4099,1.3215,1.2304,1.2285,1.1768,1.0864,1.0864,1.0265,0.9296,0.8313,0.7855,0.7727,0.6882,0.6452,0.6355,0.0,0.0,0.0,0.0,0.0,0.0,0.0,0.0,0.0,0.0,0.0,0.0,0.0,1.124,1.1948,1.3084,1.5452,1.8118,2.1048,2.2084,2.2456,2.2075,2.2259,2.2246,2.2033,2.1636,2.1384,2.1274,1.9971,1.8879,1.806,1.7186,1.6287,1.5447,1.6526,1.6983,1.6856,1.5966,1.5405,1.5124,1.3967,1.286,1.1694,1.0817,0.9136,0.0,0.0,0.0,0.0,0.0,0.0,0.0,0.0,0.0,0.0,0.0,0.0,0.0,0.0,0.0,0.0,0.2135,0.594,0.894,0.7455,1.0647,1.3084,1.0066,0.8932,0.8554,0.8834,0.9771,1.0478,1.0478,0.9889,0.897,0.7797,0.5927,0.3563,0.0523,-0.0878,-0.2371,-0.435,-0.2925,-0.152,-0.0902,0.1846,0.3883,0.4781,0.7158,0.8597,0.8934,1.0617,1.2203,1.3508,1.4674,1.5062,1.4665,1.5649,1.5438,1.4171,1.3201,1.2245,1.1211,0.9921,0.9557,0.982,0.982,0.8817,0.7287,0.6908,0.6377,0.5777,0.5439,0.5746,0.619,0.0,0.0,0.0,0.0,0.0,0.0,0.0,0.0,0.0,0.924,0.0,0.0,0.0,0.0,1.2842,1.4422,1.7289,1.9837,2.1764,2.2352,2.2525,2.2381,2.2568,2.2694,2.2694,2.2468,2.2221,2.1931,2.0302,1.8768,1.7225,1.6105,1.5206,1.459,1.5639,1.612,1.6093,1.5342,0.0,1.4449,0.0,0.0,1.0776,0.0,0.0,0.0,0.0,0.0,0.0,0.0,0.0,0.0,0.0,0.0,0.0,0.0,0.0,0.0,0.6285,0.0,0.0,0.0,0.0,1.2646,1.0012,0.0,1.211,0.903,0.7522,0.687,0.7294,0.8256,0.9013,0.9137,0.825,0.708,0.5999,0.3489,0.0508,-0.2885,-0.4607,-0.6257,-0.8243,-0.6692,-0.5002,-0.3602,-0.048,0.1852,0.3125,0.5856,0.778,0.866,1.0642,1.2331,1.3665,1.4649,1.5154,1.5234,1.586,1.5067,1.3135,1.2531,1.1113,0.9175,0.7799,0.758,0.821,0.7893,0.6896,0.5674,0.5674,0.5532,0.5237,0.5237,0.5231,0.5068,0.0,0.0,0.0,0.0,0.0,0.0,0.0,0.0,0.83,0.8745,0.0,0.0,0.0,0.0,0.0,1.6942,1.9319,2.0671,2.0809,2.1846,2.2204,2.1744,2.2346,2.2709,2.2723,2.329,2.3208,2.2438,2.1135,1.9396,1.726,1.5927,1.5409,1.5644,1.5485,1.5448,1.5449,0.0,1.4204,1.3921,0.0,0.9987,0.9646,0.0,0.0,0.0,0.3374,0.2948,0.0,0.166,0.0,0.0,0.0,0.0,0.0,0.0,0.0,0.0,0.0,0.0,0.0,0.0,0.0,0.0,1.8251,0.0,1.4115,0.7928,0.5527,0.477,0.5643,0.5915,0.609,0.6522,0.5753,0.4627,0.3462,0.057,-0.2606,-0.5996,-0.8207,-0.9982,-1.1226,-1.0226,-0.8702,-0.6676,-0.3604,-0.0985,0.0941,0.3792,0.6777,1.0014,1.1533,1.2785,1.373,1.4059,1.4576,1.5234,1.5163,1.406,1.2078,1.2078,0.9883,0.612,0.6043,0.604,0.5883,0.4955,0.4585,0.4608,0.4608,0.5237,0.618,0.6103,0.475,0.2786,0.0,0.0,0.0,0.0,0.0,0.5651,0.6032,0.6764,0.7509,0.0,0.0,0.0,1.1589,1.3306,1.5332,1.7892,1.8398,1.9359,2.1134,2.1165,2.1315,2.1697,2.2346,2.291,2.3418,2.3526,2.3496,2.3312,2.0086,1.7995,1.6997,1.5415,1.5244,1.638,1.7126,1.776,1.8154,1.592,0.0,1.3082,1.1117,0.9537,0.0,0.0,0.0,0.0,0.0,0.2511,0.1783,0.0,0.1686,0.1808,0.0,0.0,0.0,0.0,0.0,0.0,1.2936,0.0,0.0,0.0,0.0,0.0,0.0,0.0,1.0953,0.6997,0.5621,0.5206,0.5484,0.5191,0.4941,0.5121,0.4909,0.4199,0.2429,-0.0627,-0.4059,-0.7618,-1.0373,-1.2511,-1.4094,-1.3453,-1.2098,0.0,-0.6821,-0.3815,-0.1079,0.3626,0.7318,0.9749,1.1731,1.3286,1.4412,1.4775,1.5048,1.5163,1.3765,1.1985,0.9969,0.8538,0.6486,0.3982,0.2494,0.1498,0.1032,0.276,0.3122,0.2426,0.2426,0.266,0.2817,0.2026,0.0534,-0.1412,0.0,0.0,0.0,0.0,0.0,0.5398,0.6045,0.6303,0.6867,0.0,0.0,0.0,1.1752,1.3264,1.4854,1.6638,1.671,1.7523,1.9478,1.9976,2.0437,2.1056,2.2372,2.3407,2.4009,2.4325,2.4177,2.3652,2.1014,1.9125,1.7967,1.7146,1.7398,1.8545,1.9257,1.9674,1.9686,1.7224,0.0,0.0,1.0739,0.0,0.0,0.5822,0.489,0.0,0.0,0.0,0.2296,0.2358,0.2293,0.0,0.0,0.0,0.0,0.0,0.0,0.0,0.0,0.0,0.0,0.0,0.0,0.0,1.447,1.1497,0.867,0.0,0.5087,0.4341,0.4668,0.4498,0.392,0.2787,0.2106,0.1291,0.0149,-0.2838,-0.6099,-0.9392,-1.1899,-1.379,-1.4757,-1.4744,-1.3708,-1.1253,-0.866,-0.5164,-0.0708,0.4046,0.7363,0.9097,1.1069,1.2721,1.3922,1.4274,1.4379,1.4379,1.2494,1.0547,0.8458,0.5701,0.3149,0.0884,-0.1097,-0.2669,-0.3768,-0.2398,-0.1186,-0.0076,-0.0229,-0.0682,-0.142,-0.2464,-0.4729,-0.7633,0.0,0.0,0.6194,0.6082,0.5325,0.5199,0.6611,0.6136,0.6245,0.0,0.8406,0.9405,1.1411,1.2019,1.268,1.3717,1.4288,1.5284,1.6877,1.8487,1.9684,2.0421,2.2525,2.4019,2.4718,2.5367,2.5116,2.3941,2.2981,2.1587,1.9974,2.0261,2.0886,2.1613,2.171,0.0,2.0686,1.8522,1.5813,1.2718,1.0207,0.8174,0.0,0.0,0.4486,0.5024,0.3278,0.3211,0.3744,0.3066,0.3283,0.0,0.0,0.0,0.0,0.0,1.1135,0.0,0.0,0.0,0.0,0.0,1.7255,0.0,1.3626,1.0245,0.7164,0.0,0.4279,0.292,0.3425,0.345,0.2581,0.0,-0.2076,-0.3232,-0.3083,-0.5527,-0.8364,-1.104,-1.2876,-1.4008,-1.4032,-1.4711,-1.4114,-1.1499,-0.9325,-0.5513,0.0624,0.4295,0.6749,0.8033,0.9952,1.1567,1.2714,1.308,1.3182,1.295,1.1046,0.8986,0.659,0.2888,-0.0437,-0.3475,-0.5044,-0.681,-0.861,-0.9259,-0.705,-0.3264,-0.3765,-0.4932,-0.639,-0.7587,-1.0797,-1.4909,0.0,0.627,0.6333,0.6333,0.5513,0.4937,0.5271,0.529,0.5506,0.6205,0.6993,0.7822,0.8561,0.8686,0.9086,1.0078,1.1093,1.2911,1.592,1.7329,1.9309,2.1998,2.3515,2.4878,2.6072,2.626,2.6199,2.6033,2.3548,2.2479,2.2705,2.262,2.3203,2.4271,2.4574,2.3968,2.2571,2.0145,1.7004,1.3438,1.0436,0.8174,0.6523,0.4674,0.4082,0.4148,0.3078,0.2811,0.3002,0.3452,0.4532,0.5801,0.6437,0.7834,0.9462,1.0939,1.156,1.2272,0.0,1.5578,1.6115,1.6496,1.5835,0.0,1.2973,1.0163,0.7505,0.0,0.4467,0.31,0.1961,0.068,-0.0827,-0.2641,-0.6006,-0.7804,-0.6028,-0.7678,-0.9712,-1.1396,-1.2538,-1.3259,-1.3677,-1.4168,-1.395,-1.2624,-0.9344,-0.5525,-0.1248,0.1745,0.4175,0.583,0.9271,1.1218,1.1462,1.2672,1.2494,1.0768,0.8277,0.4691,0.03,-0.2401,-0.5974,-0.9945,-1.0514,-1.1921,-1.3821,-1.3968,-1.1771,-0.8509,-1.0212,-1.1361,-1.2343,-1.4784,-1.7644,-2.0741,0.7222,0.7222,0.7031,0.6647,0.5364,0.4584,0.4961,0.4709,0.4865,0.594,0.6589,0.6809,0.6608,0.6163,0.6404,0.7807,0.7964,0.9898,1.4286,1.6124,1.8583,2.1993,2.4609,2.6381,2.7374,2.7749,2.7819,2.7484,2.5994,2.535,2.5438,2.5948,2.6197,2.6151,2.634,2.4909,2.2245,2.0332,1.7373,1.3762,1.1392,0.9186,0.7172,0.5844,0.5585,0.5789,0.4466,0.4008,0.4074,0.4478,0.5368,0.6391,0.6995,0.8069,0.9401,1.0695,1.1478,1.2317,1.4326,1.517,1.5616,1.6106,1.5249,0.0,0.0,0.9639,0.7088,0.5437,0.3437,0.1566,0.0348,-0.157,-0.3789,-0.6267,-0.9538,-1.1789,-1.1969,-1.16,-1.1406,-1.1639,-1.2249,-1.2594,-1.2458,-1.3206,-1.3092,-1.1797,-0.8717,-0.5663,-0.2973,0.02,0.2578,0.3909,0.7125,0.8842,0.8842,0.9212,0.8609,0.7057,0.2919,-0.0807,-0.4265,-0.7986,-1.1454,-1.4643,-1.5532,-1.6934,-1.8551,-1.9509,-1.8773,-1.6962,-1.6427,-1.7553,-1.9758,-2.1803,-2.4202,-2.6772,0.8215,0.8221,0.8027,0.7307,0.5788,0.4861,0.5438,0.4813,0.471,0.5986,0.6133,0.5756,0.4891,0.4016,0.4312,0.6364,0.5491,0.7272,1.305,1.5281,1.8091,2.191,2.5621,2.7908,2.8684,2.9252,2.9307,2.8757,2.8616,2.831,2.7987,2.8825,2.8613,2.746,2.732,2.5157,2.1527,2.0099,1.7398,1.399,1.2573,1.0514,0.8151,0.721,0.7349,0.7762,0.6179,0.5404,0.5156,0.5156,0.5593,0.6236,0.6625,0.7394,0.8485,0.9706,1.0573,1.1532,1.3593,1.4298,1.4582,1.5369,1.4514,1.3046,0.0,0.0,0.0,0.5117,0.2479,0.0115,0.0,0.0,0.0,-0.9493,0.0,0.0,0.0,-1.5697,0.0,-1.2482,-1.2272,-1.1854,-1.0994,-1.1404,-1.1152,-0.9636,-0.754,-0.5585,-0.383,-0.1186,0.066,0.1582,0.3868,0.4977,0.4724,0.4074,0.2962,0.144,-0.3565,-0.7164,-0.9399,-1.3819,-1.6988,-1.902,-2.034,-2.1599,-2.2869,-2.442,-2.5297,-2.5384,-2.2629,-2.3435,-2.637,-2.7925,-2.9775,-3.1724,0.9093,0.9139,0.9139,0.9005,0.797,0.7125,0.7192,0.6406,0.5632,0.5297,0.4665,0.3941,0.3072,0.2332,0.0,0.0,0.4197,0.6409,1.3609,1.5184,1.8148,2.3176,2.6469,2.8793,3.0048,3.0149,3.0159,3.0061,2.952,2.952,2.9976,2.9565,2.8941,2.804,2.7068,2.5045,2.2238,2.0322,1.7389,1.4048,1.3451,1.1567,0.9075,0.8151,0.7892,0.7897,0.6915,0.5533,0.4151,0.4151,0.4731,0.5274,0.424,0.5286,0.6953,0.7598,0.7984,0.8845,1.1341,1.2546,1.2889,1.2385,1.2635,1.2478,1.0569,0.0,0.8018,0.532,0.0,0.0457,-0.289,0.0,0.0,0.0,0.0,0.0,-1.7397,-1.8331,-1.7841,-1.5092,-1.2903,-1.1056,-0.9686,-0.8169,-0.6935,-0.5959,-0.5645,-0.4666,-0.2935,-0.3177,-0.2963,-0.2046,-0.0973,-0.0969,-0.209,-0.2505,-0.4266,-0.741,-1.0627,-1.4127,-1.7892,-2.0147,-2.2428,-2.4582,-2.5015,-2.5701,-2.6512,-2.6909,-2.8421,-3.0368,-2.9059,-2.885,-2.9576,-3.2,-3.3221,-3.3775,0.9983,0.946,0.908,0.9244,0.8291,0.7459,0.739,0.6673,0.5892,0.5288,0.5033,0.4398,0.0,0.0,0.0,0.0,0.0,0.7244,0.0,0.0,1.9205,2.4175,2.7649,2.974,3.0293,3.0658,3.0838,3.0838,3.0559,3.0377,3.0293,3.0021,2.9167,2.7742,2.687,2.4593,2.1242,1.9521,1.6493,1.2783,1.2119,1.0969,0.9685,1.0236,0.9731,0.8516,0.714,0.5529,0.3823,0.2788,0.303,0.3497,0.194,0.2386,0.3485,0.3214,0.352,0.4296,0.5946,0.6862,0.7596,0.8443,0.8428,0.8328,0.8443,0.7173,0.5443,0.3652,0.0,0.0,0.0,0.0,0.0,0.0,-1.2928,-1.5052,0.0,0.0,-1.6126,-1.5183,0.0,0.0,-0.7933,-0.6195,-0.5328,-0.5281,-0.4041,-0.368,-0.4659,-0.4702,-0.488,-0.5364,-0.5759,-0.6405,-0.7289,-0.9538,-1.1821,-1.4155,-1.7861,-2.1056,-2.3741,-2.5224,-2.6794,-2.8394,-2.7997,-2.817,-2.881,-2.9245,-3.0105,-3.1171,-3.1659,-3.2166,-3.2778,-3.403,-3.4565,-3.4783,1.0501,0.9805,0.9235,0.9448,0.8811,0.8126,0.7827,0.7387,0.677,0.5903,0.5964,0.0,0.4162,0.4575,0.0,0.0,0.7112,0.9237,0.0,0.0,2.0871,0.0,0.0,0.0,3.083,3.1083,3.119,3.119,3.119,3.0878,3.0309,3.0123,2.9042,2.7208,2.6733,2.4283,2.0411,1.863,1.5389,1.1372,1.0157,0.9752,1.0043,1.1142,1.0413,0.865,0.6886,0.4919,0.2984,0.1392,0.0822,0.053,-0.0987,-0.1166,-0.0955,-0.1581,-0.1449,-0.0754,0.0754,0.1403,0.2128,0.4152,0.4291,0.4205,0.5468,0.4373,0.278,0.1472,-0.1425,0.0,0.0,0.0,-0.9193,-0.9629,0.0,-1.1223,0.0,-1.1933,0.0,0.0,-1.255,0.0,0.0,-0.3595,-0.2495,-0.2784,-0.2491,-0.3031,-0.4697,-0.6815,-0.8366,-0.9095,-1.0856,-1.2299,-1.3385,-1.6758,-1.9309,-2.0973,-2.4731,-2.7127,-2.8331,-2.9324,-3.0248,-3.0967,-3.0106,-2.9923,-3.0305,-3.081,-3.1197,-3.1574,-3.305,-3.4147,-3.4958,-3.5078,-3.5211,-3.536,1.0501,1.0321,1.006,1.0066,1.006,0.9803,0.9046,0.9086,0.8695,0.0,0.0,0.0,0.0,0.0,0.0,0.0,0.0,1.2459,1.9443,0.0,2.3213,0.0,0.0,3.1638,0.0,3.1568,3.119,3.119,3.119,3.0878,3.0293,2.9717,2.8389,2.6541,2.6591,2.4379,2.0414,1.7855,1.4287,1.0226,0.7922,0.8234,0.999,0.9802,0.9085,0.7787,0.5966,0.3531,0.1044,0.0143,-0.1825,-0.4066,-0.4968,-0.5683,-0.617,-0.617,-0.6476,-0.6092,-0.3172,-0.2631,-0.2481,-0.0324,0.0839,0.1418,0.15,0.1424,0.0892,-0.0811,-0.3077,-0.5107,-0.6356,-0.713,-0.7284,-0.6411,-0.533,0.0,0.0,0.0,0.0,-1.6037,-1.0049,0.0,0.0,0.0462,0.283,0.3566,-0.0821,-0.2884,-0.134,-1.0035,-1.4574,-1.3535,-1.6266,-1.8827,-2.1103,-2.4268,-2.6723,-2.8378,-3.0933,-3.2023,-3.1868,-3.2491,-3.2607,-3.2287,-3.1437,-3.1006,-3.0977,-3.1197,-3.1787,-3.2657,-3.3752,-3.475,-3.553,-3.529,-3.536,-3.5621,0.9703,1.0097,1.0408,1.0408,1.0247,1.0119,1.0056,0.9288,0.0,0.0,0.9586,0.0,0.0,1.0455,1.3027,0.0,0.0,1.8331,2.3766,2.5979,0.0,0.0,0.0,3.3226,0.0,0.0,3.1499,3.129,3.0809,3.0326,2.9769,2.914,2.8015,2.6546,2.6129,2.3949,2.0258,1.6085,1.1799,0.7625,0.4807,0.5469,0.8351,0.969,0.9365,0.7863,0.5572,0.2833,-0.0068,-0.291,-0.4723,-0.6137,-0.87,-0.9873,-1.0474,-1.1403,-1.1739,-1.1507,-0.9854,-0.9608,-0.9164,-0.6308,-0.5449,-0.4919,-0.3387,-0.3423,-0.4174,-0.5314,-0.6494,-0.7563,-0.8179,-0.7418,-0.6096,-0.4372,-0.2072,-0.0099,0.0,-0.0933,-0.3823,-0.7172,-0.5808,-0.429,0.0,0.0,0.0,0.2819,0.0149,-0.2976,-0.6493,-1.3089,-1.7109,-1.7875,-2.1622,-2.4059,-2.5004,-2.8659,-3.0981,-3.1956,-3.3305,-3.3873,-3.379,-3.3783,-3.3814,-3.3874,-3.2988,-3.2751,-3.29,-3.262,-3.3033,-3.3887,-3.4253,-3.4928,-3.5643,-3.5512,-3.56,-3.5802,0.952,1.0192,1.0648,1.0441,1.0011,0.9895,1.0543,0.0,0.0,0.0,1.1221,0.0,1.1385,0.0,1.6917,0.0,2.0722,2.337,2.7309,3.0149,0.0,3.3746,3.4581,0.0,0.0,0.0,0.0,3.0874,3.0213,2.9595,2.8992,2.8414,2.7454,2.6228,2.5589,2.3286,1.9556,1.4041,0.9383,0.5295,0.1667,0.2012,0.4935,0.704,0.7847,0.7446,0.443,0.1634,-0.1191,-0.4742,-0.6995,-0.8708,-1.1268,-1.289,-1.403,-1.4918,-1.5037,-1.4629,-1.3661,-1.3533,-1.3089,-1.0306,-0.9896,-0.9732,-0.7687,-0.8116,-0.9139,-0.9706,-1.0248,-1.0539,-1.0368,-0.8106,-0.5402,-0.2556,0.1271,0.4861,0.0,0.4739,0.1089,-0.1749,-0.6232,-0.8278,-0.6185,0.0921,0.3685,-0.0533,-0.1267,-0.4464,-1.1185,-1.7334,-2.1132,-2.2057,-2.5432,-2.764,-2.8523,-3.1613,-3.3489,-3.4153,-3.4717,-3.4944,-3.4832,-3.4615,-3.4636,-3.4794,-3.3923,-3.3729,-3.4029,-3.3664,-3.3918,-3.4529,-3.4815,-3.5281,-3.5761,-3.5721,-3.5788,-3.5937,0.9835,1.0522,1.0868,1.0321,0.9605,0.9443,0.0,0.0,0.9812,0.0,1.2383,1.3862,1.5308,1.7898,2.0287,2.2024,2.479,2.7528,3.0098,3.3362,0.0,0.0,3.6627,3.6002,3.4708,0.0,0.0,0.0,2.9327,2.8733,2.8188,2.7679,2.6795,2.555,2.4932,2.2488,1.829,1.1799,0.6772,0.279,-0.1725,-0.2213,-0.0076,0.1993,0.4405,0.6186,0.2514,-0.0075,-0.2326,-0.5299,-0.8586,-1.162,-1.2661,-1.4672,-1.6577,-1.6587,-1.6253,-1.5574,-1.4421,-1.4379,-1.4195,-1.2269,-1.2431,-1.2785,-1.1574,-1.2513,-1.3638,-1.3889,-1.4177,-1.3959,-1.2774,-0.94,-0.5339,-0.1057,0.4581,1.0488,1.6564,1.2738,0.6688,-0.0406,-1.106,-1.5799,-1.0627,-0.035,0.2487,-0.5909,-0.5056,-0.7504,-1.5158,-2.2504,-2.6395,-2.6138,-2.7825,-2.9709,-3.1747,-3.3278,-3.4402,-3.5105,-3.5369,-3.5369,-3.5122,-3.5105,-3.5105,-3.5083,-3.4225,-3.4049,-3.4362,-3.4371,-3.447,-3.4652,-3.5431,-3.5783,-3.5907,-3.5907,-3.5898,-3.6017,0.995,1.0906,1.1663,1.173,1.0835,1.0545,1.1979,0.0,0.0,0.0,1.5107,1.7044,1.7186,2.0563,2.3769,2.5983,2.889,0.0,0.0,0.0,0.0,3.8594,3.8256,3.693,3.4538,3.23,0.0,2.9187,0.0,2.7846,2.8248,2.7237,2.6301,2.5487,2.4699,2.1786,1.7047,0.9864,0.1626,-0.6764,-0.8609,-0.7355,-0.4111,-0.2199,-0.0607,0.0596,0.052,-0.0884,-0.3227,-0.7028,-0.9206,-1.059,-1.2842,-1.4204,-1.5145,-1.5497,-1.4899,-1.4285,-1.4821,-1.4417,-1.3878,-1.3921,-1.4114,-1.4472,-1.5132,-1.597,-1.6898,-1.8368,-1.8126,-1.7134,-1.5393,-1.2259,-0.8233,-0.3092,0.5085,1.1391,1.3155,1.1107,0.593,-0.3589,-1.4368,-1.8931,-1.3626,-0.7627,-0.5731,-0.979,-1.1227,-1.4486,-2.0387,-2.5226,-2.8276,-2.9288,-3.1242,-3.2398,-3.2662,-3.4093,-3.4906,-3.5105,-3.5369,-3.546,-3.5383,-3.519,-3.5207,-3.5364,-3.4995,-3.5017,-3.5344,-3.5449,-3.5545,-3.5636,-3.5831,-3.5932,-3.5974,-3.5974,-3.5934,-3.6013,0.981,1.1273,1.2505,1.2672,1.2196,1.2004,1.2517,1.2322,0.0,1.387,1.6915,0.0,2.0272,2.3534,2.6498,2.8718,3.1338,0.0,3.601,0.0,0.0,4.0546,4.0109,3.8403,3.5289,3.2248,0.0,2.8144,0.0,2.6048,2.6895,2.6006,2.5191,2.4387,2.2424,1.9298,1.4854,0.4696,-0.4875,-1.323,-1.3534,-1.1931,0.0,-0.6775,-0.5075,-0.3808,-0.2931,-0.3083,-0.4129,-0.688,-0.8299,-0.9139,-1.1107,-1.186,-1.236,-1.3487,-1.2797,-1.1899,-1.2912,-1.3078,-1.3172,-1.4003,-1.5145,-1.634,-1.7376,-1.8826,-2.0232,-2.1058,-2.1086,-2.0488,-1.8999,-1.5654,-1.097,-0.4442,0.2097,0.6629,0.7232,0.3521,-0.1527,-0.7713,-1.6659,-2.1316,-1.877,-1.324,-1.1735,-1.6378,-1.5777,-1.8129,-2.4856,-2.7479,-2.9624,-3.1457,-3.2129,-3.2882,-3.3786,-3.4272,-3.4895,-3.5619,-3.5541,-3.5619,-3.5837,-3.5442,-3.5289,-3.5335,-3.5368,-3.5505,-3.571,-3.5841,-3.5945,-3.5996,-3.5996,-3.623,-3.6562,-3.6562,-3.6536,-3.6637,0.9559,1.135,1.2849,1.2975,1.3264,1.3336,1.2741,1.2673,1.3374,1.5382,0.0,2.1142,2.3592,2.62,2.8491,3.0476,3.269,3.4874,3.7105,4.0161,4.1968,4.2208,4.177,3.9851,3.6296,3.2066,2.8931,0.0,0.0,2.4039,2.4736,2.4372,2.3632,2.2375,1.9262,1.5396,1.0353,-0.2455,-1.1657,-1.7661,-1.7405,-1.63,-1.4473,-1.171,-0.9504,-0.7875,-0.7309,-0.6116,-0.4833,-0.5825,-0.6554,-0.7183,-0.823,-0.8393,-0.8641,-1.073,-1.0098,-0.8996,-1.033,-1.1476,-1.2503,-1.3697,-1.5948,-1.8098,-1.8998,-2.1278,-2.3149,-2.2891,-2.3434,-2.3645,-2.2695,-1.8917,-1.3639,-0.6535,-0.3334,-0.1529,-0.0743,-0.686,-1.1683,-1.2539,-1.879,0.0,-2.4107,-1.7967,-1.6725,-2.3403,-1.9675,-2.0449,-2.8231,-2.9285,-3.0616,-3.2768,-3.2037,-3.2679,-3.4882,-3.4331,-3.4811,-3.6339,-3.5767,-3.5791,-3.6285,-3.5748,-3.5354,-3.5122,-3.5461,-3.5657,-3.571,-3.5849,-3.5945,-3.5995,-3.6112,-3.6542,-3.7148,-3.7362,-3.734,-3.7448,0.9355,1.0186,1.1002,0.0,1.2475,1.3293,1.4389,1.472,1.5541,1.7508,1.9685,2.2074,2.5027,2.6734,2.8905,3.193,3.3715,0.0,0.0,0.0,0.0,4.2828,4.2033,3.9757,3.5883,3.1826,2.8451,0.0,0.0,2.2911,2.2941,2.3125,2.1885,1.9405,1.7234,0.9771,-0.1805,-0.9618,-1.5937,-2.0757,-2.1404,-2.1055,-1.9845,-1.6992,-1.4934,-1.3364,-1.2478,-0.8862,-0.4809,-0.5816,-0.5175,-0.407,-0.5042,-0.4785,-0.4465,-0.6622,-0.7021,-0.7338,-1.006,-1.1501,-1.2788,-1.5312,-1.693,-1.868,-2.1554,-2.296,-2.4047,-2.548,-2.5772,-2.5423,-2.431,-2.0428,-1.6392,-1.3521,-1.0822,-0.9624,-1.1169,-1.4092,-1.6604,-1.7947,-2.2725,-2.5552,-2.4678,-2.3151,-2.3151,-2.5406,-2.4813,-2.5693,-2.8771,-3.0163,-3.154,-3.3001,-3.4243,-3.5059,-3.5458,-3.5284,-3.5681,-3.6622,-3.5844,-3.5791,-3.6285,-3.5748,-3.5354,-3.5119,-3.5514,-3.5689,-3.5717,-3.5901,-3.595,-3.5991,-3.6716,-3.6635,-3.6303,-3.7692,-3.7807,-3.7516,0.9766,1.0543,0.0,0.0,1.2912,1.3982,1.4827,1.5337,1.6306,1.8272,2.012,2.2474,2.5808,2.6918,2.894,3.2654,3.4182,3.6222,3.9328,4.1636,4.3203,4.384,4.2944,4.0801,3.7333,3.2189,2.8072,2.5053,2.1765,2.015,1.9976,1.9641,1.8202,1.5712,1.014,0.175,-0.8568,-1.4065,-1.8862,-2.2951,-2.3857,-2.3765,-2.2788,-2.0534,-1.8916,-1.7738,-1.643,-1.3592,-1.0039,-0.7693,-0.5245,-0.3179,-0.3635,-0.3088,-0.2775,-0.5393,-0.6525,-0.7559,-1.058,-1.2501,-1.4253,-1.69,-1.8682,-2.0448,-2.2959,-2.4654,-2.5876,-2.6397,-2.7014,-2.6975,-2.5336,-2.271,-2.0439,-1.9542,-1.8219,-1.7931,-1.9689,-2.149,-2.2908,-2.3634,-2.5853,-2.6918,-2.5843,-2.5996,-2.6101,-2.5968,-2.7203,-2.8183,-2.8718,-2.9798,-3.1277,-3.3138,-3.358,-3.4561,-3.6198,-3.5328,-3.5675,-3.7194,-3.6045,-3.5791,-3.6285,-3.5748,-3.5354,-3.5119,-3.5524,-3.5703,-3.5717,-3.5927,-3.5975,-3.5987,-3.6417,-3.6593,-3.671,-3.7532,-3.7888,-3.8144,1.0003,1.0797,1.1657,1.2613,1.3851,1.4865,1.5707,1.6303,1.723,1.8839,2.0236,2.253,2.6263,2.7099,2.8946,3.2859,3.4432,3.6448,3.9328,4.1564,4.3293,4.4403,4.3646,4.1771,3.8729,3.2569,2.758,0.0,0.0,1.6733,1.5866,1.5232,1.3453,1.0462,0.2341,-0.5328,-1.2402,-1.642,-2.043,-2.4182,-2.5138,-2.5256,-2.4791,-2.3486,-2.2442,-2.1448,-2.0391,-1.8706,-1.6372,-1.2068,-0.7781,-0.4227,-0.4088,-0.3467,-0.3375,-0.64,-0.8083,-0.9634,-1.2699,-1.4975,-1.7035,-1.9353,-2.1211,-2.287,-2.4596,-2.6389,-2.7539,-2.7003,-2.7809,-2.8081,-2.6461,-2.5447,-2.4751,-2.4538,-2.4564,-2.4991,-2.6076,-2.7284,-2.7975,-2.7747,-2.7964,-2.7741,-2.6776,-2.7552,-2.768,-2.6621,-2.838,-2.9238,-2.8638,-2.961,-3.104,-3.292,-3.2708,-3.3847,-3.6526,-3.5242,-3.5654,-3.7797,-3.6246,-3.5791,-3.6285,-3.5748,-3.5364,-3.5146,-3.5534,-3.5729,-3.5783,-3.593,-3.5996,-3.5975,-3.5975,-3.6405,-3.6991,-3.6991,-3.7441,-3.8164,0.9173,0.9383,1.042,1.3918,1.4791,1.5896,1.8314,1.897,1.932,1.9884,2.0137,2.1944,2.659,2.7819,2.9529,3.2417,3.4901,3.7192,3.9345,4.1564,4.3039,4.3593,4.3346,4.1722,3.8582,3.2538,2.6845,0.0,0.0,1.3289,0.9796,1.0498,0.787,0.2311,-0.3165,-0.8479,-1.3459,-1.6404,-2.0142,-2.4152,-2.4929,-2.5694,-2.6328,-2.6718,-2.5921,-2.4641,-2.5057,-2.3445,-2.1072,-2.0553,-1.4959,-0.8073,-0.7277,-0.6844,-0.7225,-1.0049,-1.2166,-1.4345,-1.7667,-2.0056,-2.1989,-2.3537,-2.4718,-2.592,-2.7561,-2.8086,-2.8227,-2.8304,-2.8429,-2.8419,-2.817,-2.8516,-2.8602,-2.7891,-2.8403,-2.9017,-2.9243,-2.9458,-2.9239,-2.8275,-2.8379,-2.8026,-2.674,-2.7997,-2.8817,-2.8632,-2.8999,-2.9149,-2.8951,-3.0743,-3.1827,-3.1948,-3.3503,-3.4792,-3.5689,-3.5563,-3.6385,-3.8128,-3.6338,-3.5791,-3.6285,-3.5748,-3.5397,-3.5218,-3.5551,-3.5802,-3.5975,-3.5996,-3.5953,-3.591,-3.591,-3.5968,-3.6027,-3.6027,-3.6122,-3.6367,1.0491,1.1616,1.3273,1.5817,1.6828,1.7938,1.9989,1.9808,2.0076,2.1635,2.1238,2.2307,2.6334,2.7557,2.9499,3.3045,3.5179,3.7495,4.0004,4.1622,4.2793,4.3468,4.3106,4.1977,3.9986,3.3014,2.6333,2.0033,1.4784,0.9586,0.4472,0.4239,0.1123,-0.4454,-0.7732,-1.1265,-1.504,-1.7615,-2.0324,-2.2971,-2.4547,-2.5952,-2.71,-2.7819,-2.7875,-2.7707,-2.8186,-2.7332,-2.5997,-2.5745,-2.0169,-1.3241,-1.3268,-1.2993,-1.3091,-1.544,-1.7552,-1.9688,-2.2459,-2.3975,-2.5166,-2.6759,-2.7225,-2.7613,-2.8716,-2.8963,-2.8979,-2.9042,-2.9042,-2.913,-2.9377,-2.931,-2.942,-3.0133,-2.9726,-2.9611,-3.0428,-3.0096,-2.9635,-2.9164,-2.941,-2.9203,-2.814,-2.9162,-2.9681,-2.9179,-2.9702,-3.0024,-3.001,-3.0786,-3.1477,-3.2025,-3.3236,-3.4517,-3.5834,-3.5791,-3.6391,-3.7579,-3.6257,-3.5737,-3.5936,-3.5718,-3.5609,-3.5636,-3.5766,-3.5893,-3.5996,-3.5996,-3.5976,-3.5951,-3.5951,-3.6283,-3.6733,-3.6733,-3.7031,-3.7485,1.2482,1.4398,1.6511,1.8604,1.967,2.0759,2.2448,2.2077,2.2114,2.3766,2.3288,2.3892,2.658,2.8264,3.0516,3.3917,3.5999,3.8066,4.025,4.1369,4.2184,4.2667,4.2466,4.1718,4.0339,3.2256,2.4729,1.7833,1.1102,0.467,-0.1283,-0.2151,-0.4535,-0.8234,-0.9979,-1.235,-1.5126,-1.6764,-1.9097,-2.1766,-2.3505,-2.552,-2.751,-2.8417,-2.9194,-2.9897,-3.036,-3.0292,-2.9906,-2.9615,-2.5634,-2.0657,-1.9994,-1.9634,-1.9849,-2.1549,-2.3077,-2.4637,-2.6698,-2.7529,-2.8072,-2.9321,-2.9473,-2.9463,-2.9982,-2.9989,-2.9951,-2.9951,-2.9903,-2.9982,-3.0516,-3.0325,-3.0418,-3.1394,-3.0743,-3.029,-3.0785,-3.0452,-3.0019,-2.9674,-3.0005,-3.0046,-2.9466,-3.0304,-3.0618,-2.9975,-3.0839,-3.1184,-3.0708,-3.0962,-3.144,-3.2127,-3.3203,-3.4492,-3.5955,-3.5918,-3.6332,-3.7191,-3.6175,-3.5697,-3.5663,-3.5665,-3.5718,-3.5815,-3.5873,-3.6073,-3.6325,-3.6093,-3.6309,-3.6738,-3.6484,-3.6914,-3.7676,-3.7676,-3.7981,-3.8397,1.5132,1.7289,1.96,2.2428,2.3594,2.462,2.6206,2.6389,2.6389,2.6472,2.6472,2.6837,2.777,3.0364,3.2873,3.5016,3.7414,3.9126,3.9767,4.0641,4.1017,4.0738,4.1244,4.0709,3.8955,2.9755,2.1542,1.4676,0.5845,-0.1743,-0.7871,-0.8293,-0.8423,-0.8436,-0.9433,-1.1044,-1.2956,-1.2949,-1.5995,-2.0807,-2.1545,-2.404,-2.756,-2.8903,-3.0009,-3.0976,-3.1554,-3.2057,-3.2466,-3.2466,-3.1969,-3.0779,-2.6993,-2.6379,-2.7268,-2.8282,-2.8594,-2.8938,-3.0359,-3.0744,-3.0835,-3.1164,-3.1515,-3.1771,-3.1771,-3.147,-3.119,-3.119,-3.1016,-3.107,-3.1681,-3.2161,-3.2219,-3.1523,-3.1877,-3.182,-3.0485,-3.0693,-3.063,-2.9618,-2.9917,-3.0256,-3.0374,-3.1224,-3.1671,-3.1395,-3.2558,-3.2483,-3.0703,-3.1601,-3.2127,-3.2006,-3.3747,-3.5076,-3.5896,-3.5907,-3.6332,-3.7191,-3.6175,-3.5669,-3.5591,-3.5601,-3.5591,-3.5611,-3.5806,-3.6391,-3.712,-3.6325,-3.7012,-3.8476,-3.7617,-3.7812,-3.8574,-3.8574,-3.8508,-3.8397,1.7636,2.0004,2.2486,2.4946,2.5622,2.6155,2.7406,2.6964,2.6801,2.7522,2.8183,2.8897,2.9922,3.128,3.3186,3.5812,3.7776,3.9354,4.0474,4.0331,4.037,4.0687,3.9908,3.9199,3.8637,2.7508,1.843,1.1797,0.2516,-0.495,-1.0507,-1.061,-1.1156,-1.198,-1.2243,-1.2927,-1.3748,-1.4646,-1.6627,-1.9453,-2.1619,-2.4386,-2.7444,-2.9138,-3.054,-3.1629,-3.2648,-3.3015,-3.3057,-3.3506,-3.3533,-3.3158,-3.1923,-3.1043,-3.061,-3.1231,-3.1428,-3.1465,-3.1647,-3.1352,-3.1138,-3.1827,-3.1706,-3.1614,-3.2141,-3.2179,-3.2092,-3.2092,-3.2039,-3.2143,-3.2663,-3.3015,-3.3075,-3.2562,-3.2331,-3.1892,-3.0847,-3.0416,-3.0266,-3.0485,-3.0906,-3.1372,-3.1923,-3.2362,-3.258,-3.2501,-3.2951,-3.2732,-3.1606,-3.2478,-3.3007,-3.2966,-3.4668,-3.5703,-3.5974,-3.6559,-3.6989,-3.7262,-3.6337,-3.615,-3.6632,-3.7196,-3.7443,-3.7443,-3.7557,-3.7753,-3.8011,-3.7848,-3.8105,-3.8574,-3.8281,-3.8711,-3.9492,-3.9492,-3.9725,-4.0039,2.0171,2.2948,2.5376,2.686,2.7464,2.7959,2.8609,2.8199,2.7959,2.8688,2.9539,3.054,3.1476,3.2903,3.448,3.6372,3.7997,3.9312,4.01,3.9658,3.9518,3.9892,3.8682,3.7698,3.6994,2.4268,1.4759,0.8899,-0.2834,-0.986,-1.2388,-1.2569,-1.2788,-1.3118,-1.3118,-1.322,-1.3516,-1.454,-1.6388,-1.8835,-2.1383,-2.4329,-2.7384,-2.9279,-3.0864,-3.2178,-3.3117,-3.3449,-3.3476,-3.3917,-3.4123,-3.4144,-3.396,-3.3327,-3.2739,-3.3029,-3.2669,-3.2126,-3.1863,-3.1505,-3.134,-3.1961,-3.1665,-3.1356,-3.1912,-3.2272,-3.2484,-3.2484,-3.2648,-3.284,-3.3154,-3.3524,-3.3642,-3.3083,-3.2814,-3.2279,-3.1199,-3.0992,-3.0994,-3.1226,-3.1819,-3.2474,-3.3205,-3.3381,-3.3448,-3.348,-3.3895,-3.3926,-3.3429,-3.371,-3.4043,-3.4375,-3.5742,-3.6484,-3.6484,-3.7031,-3.7148,-3.6816,-3.6513,-3.6594,-3.7047,-3.7831,-3.8179,-3.8209,-3.8599,-3.8779,-3.8799,-3.8941,-3.9408,-3.9956,-3.9687,-4.0293,-4.1289,-4.0934,-4.1222,-4.1727,2.2833,2.5937,2.8231,2.839,2.9316,3.0011,3.0011,3.0011,3.0011,3.0011,3.0846,3.1742,3.2593,3.4907,3.6538,3.6725,3.8181,3.9039,3.8988,3.8711,3.8563,3.8607,3.7523,3.6056,3.4137,2.0199,1.0271,0.4666,-0.9719,-1.5713,-1.3756,-1.3935,-1.3451,-1.2413,-1.2395,-1.2468,-1.2535,-1.3238,-1.5451,-1.8887,-2.0994,-2.4019,-2.7433,-2.9307,-3.1062,-3.2583,-3.3087,-3.3504,-3.3788,-3.3815,-3.3993,-3.4116,-3.3573,-3.3543,-3.3694,-3.3669,-3.2562,-3.1325,-3.1259,-3.123,-3.1314,-3.1667,-3.1459,-3.1172,-3.1283,-3.1927,-3.2512,-3.2512,-3.2898,-3.3243,-3.3273,-3.3802,-3.3962,-3.3101,-3.3193,-3.2864,-3.1435,-3.2088,-3.2492,-3.1845,-3.2714,-3.363,-3.4315,-3.4372,-3.4429,-3.4555,-3.5329,-3.5806,-3.5878,-3.5292,-3.5312,-3.6132,-3.7011,-3.7461,-3.748,-3.7422,-3.6914,-3.5996,-3.6743,-3.7042,-3.7013,-3.7822,-3.8195,-3.8229,-3.9122,-3.9533,-3.9606,-3.9753,-4.082,-4.2315,-4.1579,-4.2266,-4.3593,-4.2711,-4.283,-4.3275,2.6043,2.8016,2.9706,3.1235,3.1729,3.1974,3.1974,3.1974,3.1974,3.1974,3.2749,3.3449,3.3671,3.5415,3.6814,3.7269,3.8838,3.958,3.9039,3.8421,3.8242,3.8607,3.5734,3.288,3.0213,1.5992,0.2022,-1.1424,-1.5272,-1.6474,-1.518,-1.4221,-1.3695,-1.3639,-1.3412,-1.3714,-1.449,-1.5098,-1.6876,-1.9576,-2.1726,-2.4402,-2.7452,-2.9681,-3.1364,-3.2631,-3.3606,-3.3891,-3.3842,-3.4043,-3.4147,-3.4116,-3.3573,-3.3145,-3.2749,-3.2382,-3.1987,-3.1543,-3.0867,-3.0579,-3.0611,-3.1257,-3.154,-3.1607,-3.1433,-3.2001,-3.2584,-3.2584,-3.3159,-3.3698,-3.3931,-3.4292,-3.4144,-3.2824,-3.2851,-3.2464,-3.0836,-3.1435,-3.2193,-3.2569,-3.4058,-3.5317,-3.604,-3.6103,-3.6434,-3.7218,-3.6878,-3.6936,-3.7656,-3.7535,-3.7566,-3.7825,-3.8687,-3.9188,-3.9277,-3.8613,-3.7498,-3.5935,-3.7338,-3.7927,-3.7865,-3.9268,-3.9962,-4.0075,-4.0354,-4.0906,-4.1568,-4.106,-4.1833,-4.3299,-4.2441,-4.2754,-4.3671,-4.3391,-4.3331,-4.3352,2.7944,3.0403,3.2214,3.3031,3.3437,3.3522,3.3185,3.2848,3.2593,3.2593,3.3449,3.4027,3.4027,3.5907,3.7167,3.7118,3.8858,3.9782,3.9371,3.8699,3.8116,3.7797,3.4141,3.0164,2.6046,1.2722,-0.1399,-1.615,-1.682,-1.6196,-1.455,-1.3892,-1.3661,-1.3687,-1.3654,-1.404,-1.4892,-1.5539,-1.727,-1.9792,-2.193,-2.4557,-2.7418,-2.9603,-3.1155,-3.2315,-3.3356,-3.3652,-3.3578,-3.3891,-3.4099,-3.4041,-3.3103,-3.2686,-3.2382,-3.1505,-3.1239,-3.1108,-3.0673,-3.0474,-3.0453,-3.0727,-3.1315,-3.1656,-3.1145,-3.1851,-3.2621,-3.2761,-3.3414,-3.4068,-3.4379,-3.4675,-3.4357,-3.2765,-3.2749,-3.2482,-3.1179,-3.1826,-3.286,-3.3955,-3.5338,-3.6482,-3.7214,-3.693,-3.7135,-3.8171,-3.7405,-3.7478,-3.8814,-3.8828,-3.8852,-3.8998,-3.9451,-3.9571,-3.9316,-3.8047,-3.7105,-3.6508,-3.7715,-3.8458,-3.8821,-4.0043,-4.088,-4.1354,-4.1807,-4.2291,-4.2816,-4.2829,-4.3409,-4.4192,-4.3769,-4.408,-4.4733,-4.4275,-4.4261,-4.443,3.0075,3.3167,3.5292,3.4846,3.5177,3.5228,3.4514,3.3682,3.3143,3.3031,3.3739,3.4245,3.4245,3.626,3.7377,3.6869,3.8253,3.9264,3.9502,3.87,3.7682,3.6479,3.2185,2.7219,2.162,0.8942,-0.3446,-1.5275,-1.6277,-1.5582,-1.3512,-1.3561,-1.3467,-1.328,-1.3595,-1.4064,-1.4781,-1.5667,-1.7534,-2.0079,-2.2055,-2.4559,-2.7312,-2.9226,-3.0628,-3.167,-3.2723,-3.3154,-3.3243,-3.3578,-3.391,-3.3915,-3.2688,-3.2414,-3.2301,-3.1142,-3.0672,-3.0528,-3.0606,-3.0606,-3.0528,-3.0246,-3.0848,-3.1297,-3.0586,-3.1473,-3.2488,-3.2725,-3.3543,-3.4292,-3.4632,-3.4926,-3.459,-3.302,-3.3,-3.2877,-3.1999,-3.2842,-3.4031,-3.5341,-3.6542,-3.7513,-3.8137,-3.7536,-3.7486,-3.8424,-3.7632,-3.7829,-3.9517,-3.9353,-3.9335,-3.9667,-3.9672,-3.9276,-3.8398,-3.6913,-3.6502,-3.7181,-3.7948,-3.8765,-3.9622,-4.051,-4.1364,-4.2174,-4.3043,-4.3506,-4.3689,-4.4367,-4.4813,-4.5096,-4.5037,-4.5463,-4.6035,-4.5195,-4.5269,-4.5693,3.4654,3.6778,3.8211,3.8904,3.8647,3.7995,3.7247,3.644,3.5788,3.5118,3.5213,3.5279,3.5279,3.615,3.693,3.7364,3.6699,3.6765,3.803,3.6842,3.5723,3.4823,2.8635,2.2536,1.6759,0.1326,-0.9499,-1.5193,-1.5693,-1.5538,-1.4983,-1.3833,-1.3387,-1.3554,-1.3938,-1.4585,-1.5552,-1.7207,-1.9199,-2.1448,-2.2629,-2.4482,-2.6723,-2.8585,-2.9666,-3.0497,-3.2035,-3.284,-3.3214,-3.3273,-3.3532,-3.3788,-3.3339,-3.2767,-3.2182,-3.1809,-3.118,-3.0597,-3.0674,-3.0611,-3.046,-3.0243,-3.0117,-2.9945,-2.9658,-3.0623,-3.1611,-3.1642,-3.3006,-3.4292,-3.4632,-3.4926,-3.483,-3.4054,-3.3968,-3.3705,-3.2833,-3.4122,-3.5233,-3.5468,-3.7536,-3.896,-3.9084,-3.9026,-3.9101,-3.9385,-3.8532,-3.8463,-3.9529,-3.8721,-3.8651,-3.9583,-3.9629,-3.8904,-3.7438,-3.7142,-3.7022,-3.703,-3.7959,-3.8803,-3.9648,-4.1182,-4.2026,-4.231,-4.3192,-4.4016,-4.4703,-4.4119,-4.4745,-4.6015,-4.5273,-4.5527,-4.6226,-4.5852,-4.5793,-4.5842,3.7552,3.9787,4.1168,4.1238,4.0603,3.9752,3.8534,3.7341,3.6337,3.5619,3.5504,3.5504,3.5504,3.574,3.5717,3.5381,3.3515,3.217,3.186,3.2108,3.1518,2.9665,2.378,1.6243,0.7046,-0.2696,-0.9403,-1.3073,-1.3852,-1.4016,-1.3669,-1.3172,-1.2946,-1.2913,-1.3777,-1.4843,-1.6121,-1.793,-1.991,-2.1989,-2.3178,-2.4577,-2.6027,-2.7562,-2.8761,-2.9782,-3.108,-3.1895,-3.2533,-3.3045,-3.3332,-3.347,-3.3428,-3.2863,-3.2157,-3.1964,-3.1307,-3.0658,-3.0683,-3.0632,-3.0526,-3.044,-3.0074,-2.9718,-2.9588,-3.0513,-3.1434,-3.1589,-3.3127,-3.4685,-3.5439,-3.5444,-3.522,-3.4955,-3.4596,-3.4176,-3.3667,-3.477,-3.5925,-3.6752,-3.8296,-3.9469,-3.9892,-3.9194,-3.8956,-3.956,-3.83,-3.8112,-3.9529,-3.8581,-3.8498,-3.9579,-3.8768,-3.7949,-3.7211,-3.6655,-3.6848,-3.7764,-3.8163,-3.932,-4.1124,-4.1871,-4.2767,-4.3781,-4.4171,-4.4861,-4.5664,-4.5273,-4.5566,-4.6269,-4.5859,-4.5604,-4.5528,-4.5799,-4.558,-4.5161,4.0354,4.2745,4.4073,4.2989,4.203,4.0885,3.9122,3.7573,3.6337,3.5619,3.5504,3.5424,3.5213,3.4809,3.3964,3.2623,2.994,2.7817,2.6641,2.6674,2.5841,2.3738,1.7778,0.965,-0.0568,-0.468,-0.8074,-1.0795,-1.1991,-1.2576,-1.2412,-1.2866,-1.2996,-1.2776,-1.4382,-1.5774,-1.7137,-1.891,-2.0801,-2.2583,-2.362,-2.456,-2.5516,-2.663,-2.79,-2.9175,-3.0202,-3.1113,-3.1915,-3.2745,-3.3105,-3.3263,-3.35,-3.3072,-3.2462,-3.2192,-3.1431,-3.068,-3.0693,-3.0657,-3.0602,-3.0599,-3.0211,-2.9821,-2.9937,-3.0711,-3.1495,-3.1904,-3.3583,-3.5247,-3.6064,-3.6151,-3.6084,-3.6084,-3.5678,-3.5318,-3.5148,-3.596,-3.7007,-3.8182,-3.8902,-3.9542,-4.0183,-3.8972,-3.8394,-3.8967,-3.7754,-3.7576,-3.8955,-3.8023,-3.7857,-3.8714,-3.7714,-3.7058,-3.6844,-3.6067,-3.6599,-3.8389,-3.8539,-3.9937,-4.238,-4.2714,-4.3613,-4.4958,-4.5137,-4.5605,-4.6247,-4.6223,-4.6202,-4.6202,-4.6246,-4.5651,-4.489,-4.5628,-4.5267,-4.4471,4.3932,4.5964,4.6781,4.4616,4.3102,4.1428,3.9045,3.7514,3.6337,3.5619,3.5504,3.5133,3.4245,3.3224,3.1724,2.9589,2.6542,2.5163,2.6071,2.1379,1.8402,1.812,1.0149,0.3445,-0.1454,-0.5052,-0.7804,-0.9615,-1.1107,-1.2126,-1.2788,-1.3705,-1.4081,-1.4186,-1.6544,-1.8081,-1.8973,-2.0899,-2.2634,-2.401,-2.3674,-2.4277,-2.5462,-2.6116,-2.7169,-2.8456,-2.9707,-3.0854,-3.1897,-3.2366,-3.284,-3.3296,-3.3957,-3.3804,-3.3325,-3.2863,-3.1719,-3.0628,-3.0684,-3.0657,-3.0602,-3.0599,-3.0211,-2.9973,-3.0673,-3.112,-3.1604,-3.2383,-3.4288,-3.5849,-3.5926,-3.695,-3.7815,-3.7815,-3.7892,-3.7917,-3.7915,-3.8604,-3.9165,-3.929,-3.9295,-3.935,-3.9463,-3.8753,-3.8007,-3.7327,-3.7226,-3.7207,-3.7273,-3.6372,-3.5963,-3.6165,-3.6713,-3.6638,-3.5814,-3.5687,-3.6511,-3.8319,-3.9123,-4.0487,-4.2362,-4.3858,-4.4631,-4.4848,-4.5544,-4.5932,-4.6113,-4.5981,-4.5924,-4.5932,-4.6075,-4.5586,-4.489,-4.5628,-4.5151,-4.4225,4.6958,4.7472,4.6988,4.4509,4.1803,3.9125,3.6745,3.5204,3.4015,3.3288,3.3182,3.2942,3.2228,3.0542,2.8577,2.6382,2.3138,2.119,2.1343,1.7009,1.3603,1.1604,0.6786,0.2033,-0.2455,-0.3888,-0.61,-0.9341,-1.0554,-1.1841,-1.3424,-1.4889,-1.5572,-1.5627,-1.735,-1.9062,-2.0648,-2.2143,-2.3852,-2.5558,-2.5371,-2.5857,-2.6665,-2.6749,-2.7656,-2.9042,-3.0111,-3.1058,-3.1915,-3.2681,-3.3045,-3.3354,-3.4223,-3.4012,-3.3382,-3.307,-3.2621,-3.2231,-3.2282,-3.1448,-3.0683,-3.1271,-3.0962,-3.0757,-3.1523,-3.2311,-3.2981,-3.3275,-3.5086,-3.681,-3.7357,-3.7734,-3.8185,-3.8769,-3.8519,-3.8263,-3.8272,-3.9038,-3.9571,-3.9535,-3.9491,-3.9509,-3.951,-3.8332,-3.7435,-3.7121,-3.6659,-3.6602,-3.7067,-3.6757,-3.6367,-3.59,-3.6161,-3.6128,-3.5703,-3.559,-3.6447,-3.8248,-3.8569,-4.0215,-4.3013,-4.3701,-4.4289,-4.4844,-4.5663,-4.5464,-4.4625,-4.5538,-4.5607,-4.5207,-4.5753,-4.5468,-4.483,-4.5569,-4.5073,-4.4119,4.8053,4.7192,4.5483,4.2453,3.9032,3.5913,3.3649,3.2152,3.1211,3.0647,3.0591,3.0148,2.88,2.7073,2.5038,2.2399,2.0004,1.8742,1.9,1.5715,1.1641,0.7041,0.4979,0.1801,-0.2542,-0.2962,-0.4879,-0.8394,-0.9981,-1.1738,-1.374,-1.6104,-1.7331,-1.7705,-1.9143,-2.09,-2.2732,-2.3402,-2.4867,-2.6745,-2.6518,-2.6914,-2.764,-2.7498,-2.8405,-2.9859,-3.089,-3.1618,-3.2329,-3.3477,-3.3698,-3.3615,-3.4445,-3.4169,-3.3538,-3.3485,-3.3346,-3.3203,-3.3285,-3.2333,-3.1484,-3.2143,-3.1849,-3.1616,-3.2392,-3.3227,-3.3862,-3.4119,-3.5944,-3.7697,-3.8282,-3.8612,-3.9022,-3.9693,-3.9412,-3.9103,-3.9143,-3.9706,-4.0086,-4.0045,-3.9532,-3.9206,-3.9215,-3.7708,-3.6723,-3.6755,-3.6249,-3.6174,-3.6738,-3.6758,-3.6504,-3.596,-3.5912,-3.5864,-3.5761,-3.5631,-3.6463,-3.8263,-3.851,-4.0187,-4.3065,-4.3389,-4.3836,-4.4393,-4.495,-4.4548,-4.3559,-4.4861,-4.5079,-4.4663,-4.553,-4.5306,-4.456,-4.5369,-4.4639,-4.3345,4.6852,4.498,4.2298,3.8366,3.4827,3.1915,2.996,2.8654,2.7944,2.7873,2.7873,2.6736,2.3737,2.2835,2.103,1.7652,1.7375,1.8273,2.0312,1.801,1.3027,0.499,0.4219,0.2291,-0.1475,-0.2685,-0.4355,-0.6394,-0.9419,-1.1898,-1.383,-1.7398,-1.9501,-2.0421,-2.2279,-2.3903,-2.519,-2.4702,-2.566,-2.7441,-2.6758,-2.7211,-2.8229,-2.8213,-2.9259,-3.0855,-3.2004,-3.2616,-3.3151,-3.476,-3.4731,-3.4101,-3.4555,-3.4348,-3.3974,-3.423,-3.379,-3.3223,-3.3305,-3.3222,-3.3134,-3.3192,-3.2767,-3.249,-3.3242,-3.3631,-3.4045,-3.4844,-3.682,-3.8414,-3.8414,-3.9547,-4.0545,-4.068,-4.0762,-4.085,-4.0988,-4.1016,-4.1016,-4.0996,-3.9421,-3.8325,-3.8393,-3.6898,-3.594,-3.5996,-3.6016,-3.6016,-3.6016,-3.5996,-3.5996,-3.5996,-3.5923,-3.5903,-3.5903,-3.5766,-3.6629,-3.8404,-3.9221,-4.0552,-4.2314,-4.305,-4.3401,-4.3379,-4.3264,-4.3194,-4.324,-4.3991,-4.4297,-4.4391,-4.5399,-4.507,-4.4109,-4.4972,-4.3765,-4.182,4.5929,4.338,3.9549,3.3389,2.8886,2.5139,2.2436,2.0633,1.962,1.9451,1.8754,1.7714,1.6418,1.53,1.4007,1.2131,1.2964,1.4651,1.7401,1.612,1.3261,0.9021,0.5763,0.2686,-0.0177,-0.2265,-0.4775,-0.7698,-1.1516,-1.4528,-1.681,-2.0576,-2.2604,-2.2976,-2.3779,-2.4856,-2.6062,-2.5523,-2.6391,-2.8186,-2.7879,-2.8533,-2.9683,-2.9577,-3.033,-3.1655,-3.313,-3.3595,-3.371,-3.5337,-3.5287,-3.4567,-3.4678,-3.5242,-3.5732,-3.5129,-3.4912,-3.4899,-3.4978,-3.4911,-3.473,-3.425,-3.3577,-3.345,-3.4845,-3.5343,-3.5771,-3.6578,-3.7877,-3.8958,-3.9218,-3.9792,-4.0329,-4.0713,-4.131,-4.1578,-4.1183,-4.1582,-4.1693,-4.1068,-3.9942,-3.897,-3.8393,-3.7909,-3.7431,-3.6877,-3.6892,-3.6914,-3.6914,-3.6328,-3.5996,-3.5996,-3.5935,-3.5893,-3.5893,-3.638,-3.7183,-3.8338,-3.9181,-4.0481,-4.21,-4.2376,-4.2459,-4.2444,-4.2965,-4.2537,-4.1582,-4.3512,-4.397,-4.3585,-4.5093,-4.53,-4.4801,-4.507,-4.4388,-4.3315,4.5635,4.2412,3.7872,3.1395,2.5503,2.0428,1.69,1.4943,1.3761,1.3643,1.301,1.2329,1.1728,1.0655,0.9315,0.755,0.8523,1.022,1.2751,1.1594,1.0473,0.9562,0.5439,0.2545,0.1085,-0.2403,-0.5368,-0.7955,-1.3172,-1.6855,-1.8998,-2.291,-2.4851,-2.5038,-2.524,-2.5928,-2.6886,-2.6279,-2.7097,-2.8841,-2.8764,-2.9502,-3.0649,-3.0764,-3.1317,-3.23,-3.4025,-3.4637,-3.4865,-3.6419,-3.6579,-3.6085,-3.5694,-3.602,-3.6381,-3.5592,-3.5403,-3.5472,-3.5648,-3.5646,-3.5495,-3.5055,-3.4419,-3.4183,-3.5183,-3.5889,-3.6431,-3.6927,-3.8127,-3.9186,-3.9552,-3.988,-4.026,-4.0722,-4.1249,-4.1479,-4.1151,-4.1501,-4.1573,-4.0983,-4.0149,-3.9393,-3.8867,-3.8555,-3.8229,-3.7799,-3.7791,-3.7812,-3.7812,-3.6992,-3.668,-3.7012,-3.6294,-3.6079,-3.6411,-3.7148,-3.7784,-3.8355,-3.9214,-4.0338,-4.1599,-4.1593,-4.1554,-4.1519,-4.1994,-4.1615,-4.0764,-4.2576,-4.3028,-4.2758,-4.4432,-4.4882,-4.4617,-4.4829,-4.4405,-4.3652,4.5549,4.1917,3.7237,3.152,2.4065,1.7513,1.3375,1.1066,0.971,0.9745,0.9696,0.9479,0.863,0.7804,0.6312,0.3867,0.4223,0.5308,0.687,0.5658,0.5701,0.7575,0.4041,0.1926,0.185,-0.2928,-0.6204,-0.7816,-1.4652,-1.8962,-2.0805,-2.4694,-2.6562,-2.6678,-2.6733,-2.7055,-2.758,-2.703,-2.775,-2.9316,-2.9451,-3.0149,-3.1196,-3.1623,-3.2127,-3.2798,-3.4626,-3.5601,-3.6208,-3.7618,-3.8161,-3.8054,-3.7151,-3.6639,-3.6249,-3.5669,-3.5367,-3.5239,-3.5445,-3.5524,-3.553,-3.5463,-3.5063,-3.4713,-3.4728,-3.5522,-3.6245,-3.6318,-3.7747,-3.9133,-3.951,-3.9861,-4.0221,-4.0722,-4.0875,-4.0944,-4.0994,-4.1046,-4.0992,-4.0766,-4.009,-3.9615,-3.9537,-3.8903,-3.8567,-3.8711,-3.8711,-3.8711,-3.8711,-3.7871,-3.7753,-3.8554,-3.697,-3.6473,-3.7273,-3.8014,-3.841,-3.8397,-3.9349,-4.0199,-4.093,-4.0824,-4.0733,-4.0655,-4.0667,-4.061,-4.0566,-4.145,-4.1797,-4.197,-4.3566,-4.402,-4.3871,-4.4354,-4.4065,-4.3366,4.3896,4.2141,3.8573,3.0732,2.3228,1.6759,1.2293,0.8067,0.5291,0.5186,0.5288,0.4951,0.3671,0.3393,0.2604,0.1005,0.0994,0.1282,0.1678,0.2273,0.337,0.4785,0.2997,0.1664,0.0839,-0.4008,-0.7657,-0.9831,-1.7019,-2.1704,-2.4097,-2.7099,-2.8334,-2.8061,-2.8069,-2.7905,-2.761,-2.7939,-2.8324,-2.8779,-2.9717,-3.0435,-3.1026,-3.1571,-3.2332,-3.3238,-3.4766,-3.5229,-3.5399,-3.691,-3.7834,-3.8156,-3.6961,-3.6665,-3.6511,-3.5274,-3.4994,-3.4926,-3.4113,-3.4541,-3.504,-3.4347,-3.4447,-3.4764,-3.5034,-3.5395,-3.5874,-3.654,-3.7457,-3.8456,-3.9419,-3.9747,-4.0068,-4.0703,-4.1378,-4.1621,-4.1085,-4.1439,-4.1408,-4.0442,-4.0127,-3.9725,-3.9035,-3.9198,-3.9409,-3.9609,-3.9629,-3.9629,-3.9629,-3.868,-3.8255,-3.843,-3.7902,-3.7715,-3.7899,-3.8733,-3.8878,-3.8338,-3.9838,-4.0509,-4.0385,-4.0618,-4.0532,-4.0248,-4.045,-4.0534,-4.0566,-4.145,-4.1797,-4.1912,-4.2951,-4.3541,-4.3817,-4.3923,-4.4123,-4.4367,4.545,4.4406,4.1453,3.4187,2.5622,1.7946,1.2771,0.8422,0.5774,0.5756,0.6343,0.6471,0.5753,0.4093,0.1604,-0.1609,-0.2509,-0.2902,-0.2895,-0.2198,-0.0899,0.1097,-0.0099,-0.117,-0.2163,-0.7453,-1.1328,-1.3586,-1.9781,-2.4209,-2.695,-2.9027,-2.9924,-2.9761,-2.9547,-2.9296,-2.9009,-2.9344,-2.9435,-2.9406,-3.0038,-3.0721,-3.137,-3.1933,-3.266,-3.3533,-3.4614,-3.5408,-3.6096,-3.7346,-3.8057,-3.8209,-3.7092,-3.6736,-3.6498,-3.5445,-3.5028,-3.4794,-3.4357,-3.4547,-3.4812,-3.4338,-3.4356,-3.4498,-3.4601,-3.5072,-3.5591,-3.5821,-3.6928,-3.8154,-3.9055,-3.9548,-4.001,-4.0684,-4.1179,-4.1343,-4.0964,-4.1043,-4.0906,-4.0224,-3.9986,-3.9776,-3.9576,-3.9934,-4.0271,-4.0507,-4.0527,-4.0527,-4.0527,-3.9574,-3.9217,-3.9626,-3.8644,-3.8237,-3.8531,-3.8931,-3.8849,-3.8315,-3.9979,-4.0641,-4.0428,-4.0557,-4.0496,-4.0304,-4.0441,-4.0489,-4.0527,-4.0989,-4.1181,-4.1277,-4.2143,-4.2635,-4.2872,-4.3096,-4.3615,-4.433,4.7735,4.7189,4.4888,3.9057,2.9689,2.1025,1.5262,1.1238,0.879,0.8722,0.9427,0.9844,0.936,0.5391,0.0789,-0.4168,-0.576,-0.6651,-0.6851,-0.6654,-0.5544,-0.325,-0.4089,-0.5246,-0.6566,-1.1686,-1.5458,-1.7541,-2.258,-2.6477,-2.9297,-3.0615,-3.1275,-3.1249,-3.092,-3.0655,-3.0451,-3.0596,-3.0542,-3.0293,-3.0485,-3.1094,-3.1951,-3.2451,-3.3076,-3.3806,-3.4639,-3.5979,-3.7503,-3.8179,-3.8397,-3.8246,-3.7304,-3.6604,-3.6054,-3.548,-3.4955,-3.4547,-3.4582,-3.468,-3.4716,-3.4585,-3.4398,-3.4251,-3.4055,-3.4704,-3.5249,-3.4765,-3.6345,-3.8005,-3.8665,-3.935,-4.0038,-4.068,-4.0787,-4.0795,-4.0782,-4.0443,-4.013,-4.0023,-3.9775,-3.9735,-4.0056,-4.051,-4.0831,-4.0935,-4.1051,-4.1128,-4.1128,-4.0333,-4.0173,-4.085,-3.9296,-3.8651,-3.9109,-3.8975,-3.8797,-3.8539,-3.9925,-4.0584,-4.0505,-4.0496,-4.0473,-4.0422,-4.0473,-4.0489,-4.0489,-4.0489,-4.0489,-4.0566,-4.1296,-4.1681,-4.1876,-4.2412,-4.3177,-4.4078,4.7696,4.8461,4.7419,4.2059,3.4304,2.7033,2.1699,1.6296,1.2631,1.2232,1.1662,1.0416,0.7791,0.1504,-0.37,-0.6558,-0.7959,-0.908,-1.0329,-0.9274,-0.8366,-0.7788,-0.7986,-0.9429,-1.2426,-1.5364,-1.7741,-1.9401,-2.5024,-2.8732,-3.0633,-3.1754,-3.2021,-3.1537,-3.1788,-3.1191,-3.0133,-3.0931,-3.0892,-3.0377,-3.1249,-3.1915,-3.2451,-3.2921,-3.3533,-3.425,-3.5364,-3.7192,-3.9016,-3.8545,-3.8408,-3.8244,-3.7304,-3.5962,-3.4684,-3.4253,-3.4021,-3.3724,-3.2825,-3.3788,-3.4843,-3.4116,-3.4282,-3.4513,-3.4101,-3.4418,-3.4694,-3.4359,-3.587,-3.7612,-3.8609,-3.9407,-4.0069,-4.0622,-4.0752,-4.0782,-4.071,-4.0358,-4.0004,-3.969,-3.9622,-3.9406,-3.8881,-3.9973,-4.0489,-3.9942,-4.0485,-4.0857,-4.0857,-4.0674,-4.049,-4.0298,-3.9991,-3.9738,-3.9504,-3.952,-3.9475,-3.9429,-3.9927,-4.0024,-3.9781,-4.0283,-4.0372,-4.0158,-4.0389,-4.0489,-4.0489,-4.0489,-4.0489,-4.0508,-4.0623,-4.1143,-4.1909,-4.2777,-4.365,-4.439,4.7446,4.803,4.6873,4.189,3.4878,2.844,2.3879,1.9545,1.6501,1.5548,1.4479,1.247,0.9087,0.0459,-0.67,-1.0556,-1.1838,-1.3073,-1.4414,-1.3937,-1.3741,-1.415,-1.371,-1.5158,-1.8623,-2.0271,-2.2472,-2.5312,-2.7823,-3.0196,-3.2414,-3.3031,-3.3343,-3.3333,-3.3193,-3.2735,-3.2049,-3.2445,-3.2187,-3.1554,-3.2004,-3.2466,-3.2934,-3.327,-3.4153,-3.5329,-3.6746,-3.7909,-3.8688,-3.7963,-3.7753,-3.7628,-3.6689,-3.5875,-3.5226,-3.4978,-3.4743,-3.447,-3.3952,-3.4338,-3.4775,-3.4414,-3.4353,-3.4297,-3.3877,-3.4146,-3.4409,-3.4213,-3.5422,-3.6916,-3.8173,-3.9229,-4.0076,-4.0613,-4.0762,-4.0779,-4.0696,-4.0364,-3.9901,-3.9364,-3.9505,-3.951,-3.9296,-4.013,-4.0535,-4.0127,-4.054,-4.0729,-4.0587,-4.0481,-4.0347,-4.02,-3.9948,-3.9645,-3.9314,-3.9314,-3.9314,-3.9314,-3.9668,-3.984,-3.9901,-4.0319,-4.0441,-4.0339,-4.0457,-4.0489,-4.0489,-4.0489,-4.0406,-4.0285,-4.0441,-4.0776,-4.1312,-4.2325,-4.2869,-4.3195]},{"header":{"parameterUnit":"m.s-1","parameterCategory":1,"la1":30.6,"la2":28.766,"lo1":-90.7593,"lo2":-88.6598,"dy":0.0162,"dx":0.0183,"nx":116,"ny":114,"refTime":"2023-08-31T18:00:00:Z","depth":0,"parameterNumber":3,"parameterNumberName":"V-component_of_WINDS"},"data":[0.0,0.0,0.0,0.0,0.0,0.0,0.0,0.0,0.0,0.0,0.0,0.0,0.0,0.0,0.0,0.0,0.0,0.0,0.0,0.0,0.0,0.0,0.0,0.0,0.0,0.0,0.0,0.0,0.0,0.0,0.0,0.0,0.0,0.0,0.0,0.0,0.0,0.0,0.0,0.0,0.0,0.0,0.0,0.0,0.0,0.0,0.0,0.0,0.0,0.0,0.0,0.0,0.0,0.0,0.0,0.0,0.0,0.0,0.0,0.0,0.0,0.0,0.0,0.0,0.0,0.0,0.0,0.0,0.0,0.0,0.0,0.0,0.0,0.0,0.0,0.0,0.0,0.0,0.0,0.0,0.0,0.0,0.0,0.0,0.0,0.0,0.0,0.0,0.0,0.0,0.0,0.0,0.0,0.0,0.0,0.0,0.0,0.0,0.0,0.0,0.0,0.0,0.0,0.0,0.0,0.0,0.0,0.0,0.0,0.0,0.0,0.0,0.0,0.0,0.0,0.0,0.0,0.0,0.0,0.0,0.0,0.0,0.0,0.0,0.0,0.0,0.0,0.0,0.0,0.0,0.0,0.0,0.0,0.0,0.0,0.0,0.0,0.0,0.0,0.0,0.0,0.0,0.0,0.0,0.0,0.0,0.0,0.0,0.0,0.0,0.0,0.0,0.0,0.0,0.0,0.0,0.0,0.0,0.0,0.0,0.0,0.0,0.0,0.0,0.0,0.0,0.0,0.0,0.0,0.0,0.0,0.0,0.0,0.0,0.0,0.0,0.0,0.0,0.0,0.0,0.0,0.0,0.0,0.0,0.0,0.0,0.0,0.0,0.0,0.0,0.0,0.0,0.0,0.0,0.0,0.0,0.0,0.0,0.0,0.0,0.0,0.0,0.0,0.0,0.0,0.0,0.0,0.0,0.0,0.0,0.0,0.0,0.0,0.0,0.0,0.0,0.0,0.0,0.0,0.0,0.0,0.0,0.0,0.0,0.0,0.0,0.0,0.0,0.0,0.0,0.0,0.0,0.0,0.0,0.0,0.0,0.0,0.0,0.0,0.0,0.0,0.0,0.0,0.0,0.0,0.0,0.0,0.0,0.0,0.0,0.0,0.0,0.0,0.0,0.0,0.0,0.0,0.0,0.0,0.0,0.0,0.0,0.0,0.0,0.0,0.0,0.0,0.0,0.0,0.0,0.0,0.0,0.0,0.0,0.0,0.0,0.0,0.0,0.0,0.0,0.0,0.0,0.0,0.0,0.0,0.0,0.0,0.0,0.0,0.0,0.0,0.0,0.0,0.0,0.0,0.0,0.0,0.0,0.0,0.0,0.0,0.0,0.0,0.0,0.0,0.0,0.0,0.0,0.0,0.0,0.0,0.0,0.0,0.0,0.0,0.0,0.0,0.0,0.0,0.0,0.0,0.0,0.0,0.0,0.0,0.0,0.0,0.0,0.0,0.0,0.0,0.0,0.0,0.0,0.0,0.0,0.0,0.0,0.0,0.0,0.0,0.0,0.0,0.0,0.0,0.0,0.0,0.0,0.0,0.0,0.0,0.0,0.0,0.0,0.0,0.0,0.0,0.0,0.0,0.0,0.0,0.0,0.0,0.0,0.0,0.0,0.0,0.0,0.0,0.0,0.0,0.0,0.0,0.0,0.0,0.0,0.0,0.0,0.0,0.0,0.0,0.0,0.0,0.0,0.0,0.0,0.0,0.0,0.0,0.0,0.0,0.0,0.0,0.0,0.0,0.0,0.0,0.0,0.0,0.0,0.0,0.0,0.0,0.0,0.0,0.0,0.0,0.0,0.0,0.0,0.0,0.0,0.0,0.0,0.0,0.0,0.0,0.0,0.0,0.0,0.0,0.0,0.0,0.0,0.0,0.0,0.0,0.0,0.0,0.0,0.0,0.0,0.0,0.0,0.0,0.0,0.0,0.0,0.0,0.0,0.0,0.0,0.0,0.0,0.0,0.0,0.0,0.0,0.0,0.0,0.0,0.0,0.0,0.0,0.0,0.0,0.0,0.0,0.0,0.0,0.0,0.0,0.0,0.0,0.0,0.0,0.0,0.0,0.0,0.0,0.0,0.0,0.0,0.0,0.0,0.0,0.0,0.0,0.0,0.0,0.0,0.0,0.0,0.0,0.0,0.0,0.0,0.0,0.0,0.0,0.0,0.0,0.0,0.0,0.0,0.0,0.0,0.0,0.0,0.0,0.0,0.0,0.0,0.0,0.0,0.0,0.0,0.0,0.0,0.0,0.0,0.0,0.0,0.0,0.0,0.0,0.0,0.0,0.0,0.0,0.0,0.0,0.0,0.0,0.0,0.0,0.0,0.0,0.0,0.0,0.0,0.0,0.0,0.0,0.0,0.0,0.0,0.0,0.0,0.0,0.0,0.0,0.0,0.0,0.0,0.0,0.0,0.0,0.0,0.0,0.0,0.0,0.0,0.0,0.0,0.0,0.0,0.0,0.0,0.0,0.0,0.0,0.0,0.0,0.0,0.0,0.0,0.0,0.0,0.0,0.0,0.0,0.0,0.0,0.0,0.0,0.0,0.0,0.0,0.0,0.0,0.0,0.0,0.0,0.0,0.0,0.0,0.0,0.0,0.0,0.0,0.0,0.0,0.0,0.0,0.0,0.0,0.0,0.0,0.0,0.0,0.0,0.0,0.0,0.0,0.0,0.0,0.0,0.0,0.0,0.0,0.0,0.0,0.0,0.0,0.0,0.0,0.0,0.0,0.0,0.0,0.0,0.0,0.0,0.0,0.0,0.0,0.0,0.0,0.0,0.0,0.0,0.0,0.0,0.0,0.0,0.0,0.0,0.0,0.0,0.0,0.0,0.0,0.0,0.0,0.0,0.0,0.0,0.0,0.0,0.0,0.0,0.0,0.0,0.0,0.0,0.0,0.0,0.0,0.0,0.0,0.0,0.0,0.0,0.0,0.0,0.0,0.0,0.0,0.0,0.0,0.0,0.0,0.0,0.0,0.0,0.0,0.0,0.0,0.0,0.0,0.0,0.0,0.0,0.0,0.0,0.0,0.0,0.0,0.0,0.0,0.0,0.0,0.0,0.0,0.0,0.0,0.0,0.0,0.0,0.0,0.0,0.0,0.0,0.0,0.0,0.0,0.0,0.0,0.0,0.0,0.0,0.0,0.0,0.0,0.0,0.0,0.0,0.0,0.0,0.0,0.0,0.0,0.0,0.0,0.0,0.0,0.0,0.0,0.0,0.0,0.0,0.0,0.0,0.0,0.0,0.0,0.0,0.0,0.0,0.0,0.0,0.0,0.0,0.0,0.0,0.0,0.0,0.0,0.0,0.0,0.0,0.0,0.0,0.0,0.0,0.0,0.0,0.0,0.0,0.0,0.0,0.0,0.0,0.0,0.0,0.0,0.0,0.0,0.0,0.0,0.0,0.0,0.0,0.0,0.0,0.0,0.0,0.0,0.0,0.0,0.0,0.0,0.0,0.0,0.0,0.0,0.0,0.0,0.0,0.0,0.0,0.0,0.0,0.0,0.0,0.0,0.0,0.0,0.0,0.0,0.0,0.0,0.0,0.0,0.0,0.0,0.0,0.0,0.0,0.0,0.0,0.0,0.0,0.0,0.0,0.0,0.0,0.0,0.0,0.0,0.0,0.0,0.0,0.0,0.0,0.0,0.0,0.0,0.0,0.0,0.0,0.0,0.0,0.0,0.0,0.0,0.0,0.0,0.0,0.0,0.0,0.0,0.0,0.0,0.0,0.0,0.0,0.0,0.0,0.0,0.0,0.0,0.0,0.0,0.0,0.0,0.0,0.0,0.0,0.0,0.0,0.0,0.0,0.0,0.0,0.0,0.0,0.0,0.0,0.0,0.0,0.0,0.0,0.0,0.0,0.0,0.0,0.0,0.0,0.0,0.0,0.0,0.0,0.0,0.0,0.0,0.0,0.0,0.0,0.0,0.0,0.0,0.0,0.0,0.0,0.0,0.0,0.0,0.0,0.0,0.0,0.0,0.0,0.0,0.0,0.0,0.0,0.0,0.0,0.0,0.0,0.0,0.0,0.0,0.0,0.0,0.0,0.0,0.0,0.0,0.0,0.0,0.0,0.0,0.0,0.0,0.0,0.0,0.0,0.0,0.0,0.0,0.0,0.0,0.0,0.0,0.0,0.0,0.0,0.0,0.0,0.0,0.0,0.0,0.0,0.0,0.0,0.0,0.0,0.0,0.0,0.0,0.0,0.0,0.0,0.0,0.0,0.0,0.0,0.0,0.0,0.0,0.0,0.0,0.0,0.0,0.0,0.0,0.0,0.0,0.0,0.0,0.0,0.0,0.0,0.0,0.0,0.0,0.0,0.0,0.0,0.0,0.0,0.0,0.0,0.0,0.0,0.0,0.0,0.0,0.0,0.0,0.0,0.0,0.0,0.0,0.0,0.0,0.0,0.0,0.0,0.0,0.0,0.0,0.0,0.0,0.0,0.0,0.0,0.0,0.0,0.0,0.0,0.0,0.0,0.0,0.0,0.0,0.0,0.0,0.0,0.0,0.0,0.0,0.0,0.0,0.0,0.0,0.0,0.0,0.0,0.0,0.0,0.0,0.0,0.0,0.0,0.0,0.0,0.0,0.0,0.0,0.0,0.0,0.0,0.0,0.0,0.0,0.0,0.0,0.0,0.0,0.0,0.0,0.0,0.0,0.0,0.0,0.0,0.0,0.0,0.0,0.0,0.0,0.0,0.0,0.0,0.0,0.0,0.0,0.0,0.0,0.0,0.0,0.0,0.0,0.0,0.0,0.0,0.0,0.0,0.0,0.0,0.0,0.0,0.0,0.0,0.0,0.0,0.0,0.0,0.0,0.0,0.0,0.0,0.0,0.0,0.0,0.0,0.0,0.0,0.0,0.0,0.0,0.0,0.0,0.0,0.0,0.0,0.0,0.0,0.0,0.0,0.0,0.0,0.0,0.0,0.0,0.0,0.0,0.0,0.0,0.0,0.0,0.0,0.0,0.0,0.0,0.0,0.0,0.0,0.0,0.0,0.0,0.0,0.0,0.0,0.0,0.0,0.0,0.0,0.0,0.0,0.0,0.0,0.0,0.0,0.0,0.0,0.0,0.0,0.0,0.0,0.0,0.0,0.0,0.0,0.0,0.0,0.0,0.0,0.0,0.0,0.0,0.0,0.0,0.0,0.0,0.0,0.0,0.0,0.0,0.0,0.0,0.0,0.0,0.0,0.0,0.0,0.0,0.0,0.0,0.0,0.0,0.0,0.0,0.0,0.0,0.0,0.0,0.0,0.0,0.0,0.0,0.0,0.0,0.0,0.0,0.0,0.0,0.0,0.0,0.0,0.0,0.0,0.0,0.0,0.0,0.0,0.0,0.0,0.0,0.0,0.0,0.0,0.0,0.0,0.0,0.0,0.0,0.0,0.0,0.0,0.0,0.0,0.0,0.0,0.0,0.0,0.0,0.0,0.0,0.0,0.0,0.0,0.0,0.0,0.0,0.0,0.0,0.0,0.0,0.0,0.0,0.0,0.0,0.0,0.0,0.0,0.0,0.0,0.0,0.0,0.0,0.0,0.0,0.0,0.0,0.0,0.0,0.0,0.0,0.0,0.0,0.0,0.0,0.0,0.0,0.0,0.0,0.0,0.0,0.0,0.0,0.0,0.0,0.0,0.0,0.0,0.0,0.0,0.0,0.0,0.0,0.0,0.0,0.0,0.0,0.0,0.0,0.0,0.0,0.0,0.0,0.0,0.0,0.0,0.0,0.0,0.0,0.0,0.0,0.0,0.0,0.0,0.0,0.0,0.0,0.0,0.0,0.0,0.0,0.0,0.0,0.0,0.0,0.0,0.0,0.0,0.0,0.0,0.0,0.0,0.0,0.0,0.0,0.0,0.0,0.0,0.0,0.0,0.0,0.0,0.0,0.0,0.0,0.0,0.0,0.0,0.0,0.0,0.0,0.0,0.0,0.0,0.0,0.0,0.0,0.0,0.0,0.0,0.0,0.0,0.0,0.0,0.0,0.0,0.0,0.0,0.0,0.0,0.0,0.0,0.0,0.0,0.0,0.0,0.0,0.0,0.0,0.0,0.0,0.0,0.0,0.0,0.0,0.0,0.0,0.0,2.8112,0.0,0.0,0.0,0.0,0.0,0.0,0.0,0.0,0.0,0.0,0.0,0.0,0.0,0.0,0.0,0.0,0.0,0.0,0.0,0.0,0.0,0.0,0.0,0.0,0.0,0.0,0.0,0.0,0.0,0.0,0.0,0.0,0.0,0.0,0.0,0.0,0.0,0.0,2.2695,2.2573,2.2624,2.2818,2.2479,2.2699,2.3376,0.0,0.0,0.0,0.0,0.0,0.0,0.0,0.0,0.0,0.0,0.0,0.0,0.0,0.0,0.0,0.0,0.0,0.0,0.0,0.0,0.0,0.0,0.0,0.0,0.0,0.0,0.0,0.0,0.0,0.0,0.0,0.0,0.0,0.0,0.0,0.0,0.0,0.0,0.0,0.0,0.0,0.0,0.0,0.0,0.0,0.0,0.0,0.0,0.0,0.0,0.0,0.0,0.0,0.0,0.0,0.0,0.0,0.0,0.0,0.0,0.0,0.0,0.0,0.0,0.0,0.0,0.0,0.0,0.0,0.0,0.0,2.9043,0.0,0.0,0.0,0.0,0.0,0.0,0.0,0.0,0.0,0.0,0.0,0.0,0.0,0.0,0.0,0.0,0.0,0.0,0.0,0.0,0.0,0.0,0.0,2.3606,2.3353,2.2955,2.3342,2.3282,0.0,0.0,0.0,0.0,0.0,0.0,0.0,2.2781,2.2596,2.2929,2.2641,2.2936,2.3765,2.3173,2.3342,2.4137,2.3494,0.0,0.0,0.0,0.0,0.0,0.0,0.0,0.0,0.0,0.0,0.0,0.0,0.0,0.0,0.0,0.0,0.0,0.0,0.0,0.0,0.0,0.0,0.0,0.0,0.0,0.0,0.0,0.0,0.0,0.0,0.0,0.0,0.0,0.0,0.0,0.0,0.0,0.0,0.0,0.0,0.0,0.0,0.0,0.0,0.0,0.0,0.0,0.0,0.0,0.0,0.0,0.0,0.0,0.0,0.0,0.0,0.0,0.0,0.0,0.0,0.0,0.0,0.0,3.7815,3.8257,3.8661,3.8686,3.8273,3.7414,3.4609,3.2066,2.9877,2.9697,0.0,0.0,0.0,0.0,0.0,0.0,0.0,0.0,0.0,0.0,0.0,0.0,0.0,0.0,0.0,0.0,0.0,0.0,0.0,0.0,0.0,2.3165,2.3076,2.37,2.2986,2.2722,2.3224,0.0,0.0,0.0,0.0,0.0,2.4222,2.347,2.334,2.3832,2.3426,2.3968,2.5321,2.522,2.5913,2.7063,2.3883,2.3917,2.6218,0.0,0.0,0.0,0.0,0.0,0.0,0.0,0.0,0.0,0.0,0.0,0.0,0.0,0.0,0.0,0.0,0.0,0.0,0.0,0.0,0.0,0.0,0.0,0.0,0.0,0.0,0.0,0.0,0.0,0.0,0.0,0.0,0.0,0.0,0.0,0.0,0.0,0.0,0.0,0.0,0.0,2.7907,2.6445,0.0,0.0,0.0,0.0,0.0,0.0,0.0,0.0,0.0,0.0,0.0,0.0,0.0,3.4998,3.5998,3.9185,4.0527,4.0027,4.2239,4.2604,4.1296,4.1428,4.1013,4.0167,3.9902,0.0,3.2566,3.113,0.0,0.0,0.0,0.0,0.0,0.0,0.0,0.0,0.0,0.0,0.0,0.0,0.0,0.0,0.0,0.0,0.0,0.0,0.0,0.0,0.0,2.4176,2.4433,2.4816,2.5195,2.5186,2.4678,2.5055,0.0,0.0,0.0,2.4897,2.562,2.4736,2.4475,2.4885,2.5128,2.5795,2.6843,2.642,2.6793,2.7705,2.5313,2.483,2.5631,2.3782,0.0,0.0,0.0,0.0,0.0,0.0,0.0,0.0,0.0,0.0,0.0,0.0,0.0,0.0,0.0,0.0,0.0,0.0,0.0,0.0,0.0,0.0,0.0,0.0,0.0,0.0,0.0,0.0,0.0,0.0,0.0,0.0,0.0,0.0,0.0,0.0,0.0,0.0,0.0,3.0316,3.0036,2.7662,2.8341,2.8116,0.0,0.0,0.0,0.0,0.0,0.0,0.0,0.0,0.0,3.5398,3.6792,3.862,4.095,4.2931,4.422,4.4778,4.5893,4.5817,4.4662,4.4766,4.4385,4.3608,4.3284,4.1596,3.8895,3.6237,3.4546,3.3532,0.0,0.0,0.0,0.0,3.1882,3.147,0.0,0.0,0.0,0.0,0.0,0.0,0.0,0.0,0.0,0.0,0.0,0.0,2.4569,2.5164,2.568,2.6132,2.7012,2.6979,2.5693,2.6296,2.6266,2.5277,2.5547,2.6081,2.6885,2.6383,2.6221,2.6471,2.7215,2.8044,2.8958,2.8197,2.8247,2.8887,2.7566,2.6455,2.5469,2.434,2.3032,2.1621,0.0,0.0,0.0,0.0,0.0,0.0,0.0,0.0,0.0,0.0,0.0,0.0,0.0,0.0,0.0,0.0,0.0,0.0,0.0,0.0,0.0,0.0,0.0,0.0,0.0,0.0,0.0,0.0,0.0,0.0,0.0,0.0,0.0,0.0,0.0,0.0,0.0,3.1884,3.2116,2.9328,3.0657,3.0589,0.0,0.0,0.0,0.0,0.0,0.0,3.3941,3.574,3.7766,3.9978,4.1037,4.2951,4.5913,4.6778,4.7836,4.9067,4.8856,4.8452,4.7855,4.7536,4.6965,4.6219,4.5728,4.4952,4.3789,4.0586,3.8474,3.7155,3.6044,3.5593,3.5495,3.4919,3.4336,3.3883,0.0,0.0,0.0,0.0,0.0,0.0,0.0,0.0,0.0,0.0,0.0,2.3815,2.527,2.5527,2.6166,2.7588,2.7131,2.642,2.5659,2.5317,2.4913,2.4463,2.5434,2.6535,2.7714,2.8443,2.883,2.8842,2.9567,3.0666,3.2036,3.1309,3.136,3.2019,3.0742,2.8989,2.6829,2.4374,2.3375,2.3304,2.1478,0.0,0.0,0.0,0.0,0.0,0.0,0.0,0.0,0.0,0.0,0.0,0.0,0.0,0.0,0.0,0.0,0.0,0.0,0.0,0.0,0.0,0.0,0.0,0.0,0.0,0.0,0.0,0.0,0.0,0.0,0.0,0.0,0.0,0.0,0.0,0.0,0.0,0.0,3.1133,3.3516,0.0,0.0,0.0,0.0,3.3661,3.407,3.585,3.9566,4.0673,4.2794,4.6337,4.724,4.8529,5.0356,5.1183,5.1645,5.1702,5.0933,5.0548,5.0452,4.9065,4.7952,4.7153,4.7366,4.6504,4.4726,4.2148,4.1016,4.0762,3.9062,3.8861,3.9279,3.7292,3.6293,3.5778,0.0,0.0,0.0,0.0,0.0,0.0,0.0,0.0,2.419,2.419,2.4639,2.5447,2.6778,2.7999,2.909,2.9942,2.9753,2.9279,2.8552,2.7414,2.7275,2.8335,2.81,2.8583,3.0019,3.0557,3.1145,3.1833,3.256,3.3203,3.3694,3.344,3.3203,3.2983,3.2114,3.0838,2.9184,2.7441,2.5749,2.4195,2.3501,2.2323,0.0,0.0,0.0,0.0,0.0,0.0,0.0,0.0,0.0,0.0,0.0,0.0,0.0,0.0,0.0,0.0,0.0,0.0,0.0,0.0,0.0,0.0,0.0,0.0,0.0,0.0,0.0,0.0,0.0,0.0,0.0,0.0,0.0,0.0,0.0,0.0,0.0,3.5793,3.7519,0.0,3.4634,3.511,3.5888,3.653,3.7736,3.9742,4.2673,4.419,4.632,4.924,5.0125,5.1375,5.3126,5.2876,5.3029,5.3568,5.2702,5.1741,5.0683,5.0287,4.9353,4.8009,4.7737,4.7246,4.6562,4.5098,4.3828,4.2754,4.2129,4.2026,4.2069,4.0687,3.9779,3.9147,0.0,0.0,0.0,0.0,0.0,0.0,0.0,0.0,2.43,2.4557,2.5497,2.6748,2.8287,3.0058,3.1401,3.2166,3.1957,3.135,3.0263,2.9204,2.9027,2.9854,2.9966,3.0566,3.1826,3.2537,3.3448,3.4539,3.5284,3.5639,3.5639,3.5385,3.5013,3.4539,3.4153,3.3321,3.2222,3.1598,2.8997,2.5285,2.5285,2.4507,2.3146,0.0,0.0,0.0,0.0,0.0,0.0,0.0,0.0,0.0,0.0,0.0,0.0,0.0,0.0,0.0,0.0,0.0,0.0,0.0,0.0,0.0,0.0,0.0,0.0,0.0,0.0,0.0,0.0,0.0,0.0,0.0,0.0,0.0,0.0,0.0,3.9996,3.9724,4.1304,4.1434,3.8897,3.9641,4.0354,4.0558,4.2001,4.3788,4.5911,4.7394,4.9202,5.1471,5.2606,5.3741,5.4895,5.4626,5.4626,5.4895,5.4049,5.3068,5.1972,5.1557,5.0623,4.9313,4.8677,4.8104,4.7558,4.6973,4.5858,4.4488,4.4238,4.4294,4.4354,4.3039,4.2098,4.1342,0.0,0.0,0.0,0.0,0.0,0.0,0.0,2.419,2.4502,2.5329,2.6175,2.7531,2.9836,3.1448,3.2855,3.4129,3.3471,3.2266,3.0526,3.0325,2.979,2.8688,3.0782,3.2314,3.3049,3.4438,3.572,3.6857,3.7584,3.7939,3.7922,3.7195,3.684,3.6806,3.6806,3.6427,3.5762,3.6521,3.296,2.6894,2.6849,2.6756,2.6378,0.0,0.0,0.0,0.0,0.0,0.0,0.0,0.0,0.0,0.0,0.0,0.0,0.0,0.0,0.0,0.0,0.0,0.0,0.0,0.0,0.0,0.0,0.0,0.0,0.0,0.0,0.0,0.0,0.0,0.0,0.0,0.0,0.0,3.9899,4.2104,4.3434,4.2714,4.4813,4.5301,4.274,4.3902,4.5112,4.5815,4.6694,4.7835,4.9355,5.0279,5.1529,5.3183,5.4838,5.5703,5.5742,5.6549,5.6549,5.5722,5.4914,5.4511,5.4454,5.2887,5.1767,5.0996,5.0323,4.9118,4.7636,4.7597,4.7003,4.6015,4.5309,4.5527,4.6014,4.4104,4.2978,4.2119,0.0,0.0,0.0,0.0,0.0,0.0,2.419,2.419,2.4704,2.6098,2.7378,2.9066,3.1419,3.3012,3.4201,3.4943,3.3765,3.2929,3.2781,3.0892,3.0384,3.1708,3.3066,3.4514,3.6118,3.6293,3.7012,3.8379,3.8599,3.87,3.8684,3.8481,3.8108,3.7601,3.7601,3.7198,3.6537,3.7228,3.589,3.3203,3.2225,3.0297,2.7955,0.0,0.0,0.0,0.0,0.0,0.0,0.0,0.0,0.0,0.0,0.0,0.0,0.0,0.0,0.0,0.0,0.0,0.0,0.0,0.0,0.0,0.0,0.0,0.0,0.0,0.0,0.0,0.0,0.0,0.0,0.0,0.0,4.3573,4.4117,4.5369,4.6601,4.7636,4.8343,4.823,4.6925,4.7192,4.7494,4.7611,4.8416,4.9328,5.0298,5.1722,5.301,5.4107,5.5164,5.5992,5.6626,5.6242,5.6242,5.6626,5.578,5.5049,5.4472,5.4143,5.3189,5.1754,5.1035,4.9784,4.8204,4.758,4.6768,4.5935,4.5835,4.5523,4.4982,4.3714,4.2402,4.1173,0.0,0.0,0.0,0.0,0.0,0.0,2.419,2.419,2.4719,2.6144,2.8057,2.9927,3.1696,3.3619,3.4932,3.5361,3.4252,3.347,3.326,3.1863,3.19,3.3828,3.5092,3.6325,3.7586,3.7657,3.8278,3.9445,3.9445,3.9445,3.9445,3.9445,3.9225,3.8819,3.8819,3.8571,3.8237,3.862,3.8104,3.708,3.6615,3.4675,3.1905,3.0874,3.026,2.9895,2.8627,2.9265,3.0444,2.8533,0.0,0.0,0.0,0.0,0.0,0.0,0.0,0.0,0.0,0.0,0.0,0.0,0.0,0.0,0.0,0.0,0.0,0.0,0.0,0.0,0.0,0.0,0.0,0.0,4.5722,4.7493,4.8235,4.8772,4.9586,5.0947,5.0911,5.0685,5.0377,5.0351,5.0371,5.0429,5.0742,5.1106,5.1478,5.274,5.3851,5.4737,5.6079,5.703,5.753,5.7376,5.7184,5.6973,5.6492,5.5799,5.4991,5.4728,5.3889,5.2593,5.1819,5.0545,4.9012,4.8497,4.7748,4.6851,0.0,0.0,0.0,0.0,4.2412,4.1707,0.0,0.0,0.0,0.0,0.0,0.0,2.419,2.4281,2.4823,2.6157,2.8415,3.0296,3.132,3.3539,3.5028,3.5295,3.4587,3.3816,3.2966,3.3189,3.4002,3.5509,3.6784,3.7672,3.8142,3.8785,3.9428,4.007,4.007,4.007,4.007,4.007,4.007,4.007,4.007,4.0121,4.0206,4.0206,3.9796,3.9202,3.9917,3.8844,3.6557,3.4341,3.4099,3.4807,3.2999,3.2774,3.3101,3.1497,0.0,0.0,0.0,0.0,0.0,0.0,0.0,0.0,0.0,0.0,0.0,0.0,0.0,0.0,0.0,0.0,0.0,0.0,0.0,0.0,0.0,0.0,0.0,0.0,4.8838,5.0835,5.1548,5.1392,5.1587,5.2603,5.237,5.2286,5.2645,5.2738,5.291,5.3198,5.2992,5.279,5.2665,0.0,0.0,0.0,0.0,5.8242,5.8434,5.905,5.8665,5.728,5.7088,5.6588,5.5818,5.5011,5.4227,5.3475,5.2605,5.1353,4.9884,4.9787,4.9103,4.7927,4.6399,4.5735,4.534,4.3097,4.2614,4.2862,0.0,0.0,0.0,0.0,0.0,0.0,2.419,2.474,2.5949,2.8137,2.9336,3.0571,3.2095,3.2911,3.3537,3.4001,3.3615,3.3785,3.4772,3.515,3.6078,3.7802,3.782,3.8391,3.9631,3.9783,3.9935,4.007,4.007,4.007,4.007,4.007,4.007,4.007,4.007,4.0409,4.0984,4.0984,4.0932,4.0742,4.0915,3.9309,3.6837,3.6983,3.6781,3.6286,3.5301,3.6189,3.7424,3.5318,3.4992,3.5199,3.3508,3.1664,0.0,0.0,0.0,0.0,0.0,0.0,0.0,0.0,0.0,0.0,0.0,0.0,0.0,0.0,0.0,0.0,0.0,0.0,0.0,5.0155,5.0626,5.0736,5.1318,4.9542,4.9076,5.1345,5.1258,5.1061,5.126,5.1782,5.2115,5.2191,5.2779,5.3108,5.3104,5.422,5.5241,5.6126,5.6875,5.7896,5.9261,5.8781,5.8704,5.8992,0.0,0.0,5.6703,5.5857,5.5032,5.4246,5.3379,5.2049,5.0484,4.977,4.8375,4.6585,4.563,4.4668,4.3669,4.2498,4.1995,4.1866,0.0,0.0,0.0,0.0,0.0,0.0,2.474,2.5146,2.6057,2.7851,2.9053,3.0066,3.0951,3.1859,3.2423,3.2529,3.2734,3.3659,3.5526,3.6146,3.7143,3.8687,3.8914,3.9343,4.0054,4.007,4.007,4.007,4.007,4.007,4.007,4.007,4.029,4.0646,4.0646,4.1052,4.1745,4.1745,4.1745,4.1745,4.1745,4.0668,3.9016,3.9054,3.8789,3.8388,3.8037,3.8606,3.9309,3.7804,3.7567,3.755,3.5656,3.4303,3.31,0.0,0.0,0.0,0.0,0.0,0.0,0.0,0.0,0.0,0.0,0.0,0.0,0.0,0.0,4.4031,0.0,0.0,4.9637,5.158,5.0866,4.9931,4.9643,4.7065,4.6321,4.9298,4.9433,4.9806,5.1023,5.1879,5.2613,5.3157,5.3391,5.3601,5.383,5.4443,5.5465,5.6938,5.7407,5.8454,6.0127,5.9742,5.9531,5.9492,5.8242,5.7415,5.6953,5.6088,5.5261,5.4453,5.3587,5.2351,5.0916,4.9877,4.8239,4.6418,4.641,4.541,4.3818,4.2787,4.2053,4.1539,0.0,0.0,0.0,0.0,0.0,0.0,0.0,2.5531,2.6088,2.7387,2.8701,2.9548,2.9575,3.0548,3.1192,3.1176,3.2485,3.4105,3.6001,3.7108,3.8154,3.9156,3.9766,4.007,4.007,4.007,4.007,4.007,4.007,4.007,4.007,4.0223,4.0629,4.1221,4.1356,4.1914,4.2726,4.2574,4.2591,4.2726,4.2574,4.1982,4.1136,4.0527,4.0206,4.007,4.007,3.9986,3.98,3.936,3.9208,3.8903,3.7229,3.6502,3.5813,3.3671,3.3862,0.0,0.0,0.0,0.0,0.0,0.0,0.0,0.0,0.0,4.3159,4.556,4.7298,4.8861,5.0471,5.1411,5.1821,5.1525,4.9724,4.8039,4.7097,4.4013,4.3056,4.6354,4.7123,4.8419,5.0829,5.2037,5.3086,5.4153,5.3906,5.3888,5.4322,5.4471,5.5402,5.73,5.7963,5.9031,6.0531,6.0723,6.0358,5.9492,5.8684,5.7838,5.6973,5.6025,5.5231,5.4559,5.3437,5.2279,5.1071,4.9882,4.834,4.6768,4.7073,4.6071,4.4335,4.3385,4.2421,4.1508,0.0,0.0,0.0,0.0,0.0,0.0,0.0,0.0,2.7031,2.8581,2.9261,2.9602,2.962,2.9053,2.9148,3.0241,3.3733,3.6186,3.6811,3.8947,4.0158,3.9952,4.0037,4.007,4.007,4.007,4.007,4.007,4.007,4.007,4.0087,4.0764,4.1119,4.1238,4.188,4.2963,4.4282,4.3589,4.369,4.4265,4.3572,4.2455,4.1187,4.1119,4.0663,4.007,4.007,3.9665,3.9191,3.9766,3.9952,4.0037,4.046,3.9665,3.8452,3.7655,3.6119,3.487,3.5636,3.7184,3.9099,4.119,4.2305,4.4001,0.0,0.0,5.0086,5.1979,5.282,5.3142,5.2909,5.2428,5.16,5.0115,4.6562,4.3941,4.3694,4.0015,3.8622,4.1807,4.4343,4.6863,4.9621,5.1298,5.2481,5.3295,5.3314,5.3462,5.3851,5.4255,5.5136,5.648,5.7676,5.8723,5.9646,6.0416,6.0358,5.9492,5.8684,5.7838,5.6953,5.5733,5.5103,5.4931,5.2987,5.1593,5.0654,4.9476,4.8422,4.7415,4.5954,4.4828,4.3957,4.3846,4.2918,4.1546,0.0,0.0,0.0,0.0,0.0,0.0,0.0,0.0,0.0,2.8154,2.8438,2.8549,2.8554,2.8658,2.9308,3.0779,3.3311,3.5447,3.69,3.8823,3.994,4.012,4.007,4.007,4.007,4.007,4.007,4.007,4.007,4.0307,4.0747,4.1068,4.166,4.2506,4.2811,4.3555,4.4587,4.4705,4.4688,4.4587,4.4705,4.3572,4.183,4.183,4.0849,3.9445,3.9445,3.9242,0.0,3.9343,3.9732,4.0121,4.0443,3.9834,3.8908,3.8314,3.7874,3.8003,3.9947,4.1313,0.0,0.0,4.6576,4.9257,5.133,5.2666,5.386,5.5158,5.5605,5.5266,5.3764,5.2293,5.0575,0.0,4.418,4.1532,4.2178,3.8702,3.7346,4.0683,4.2599,4.5082,4.8575,5.0488,5.1988,5.3121,5.3206,5.3484,5.4153,5.4387,5.5188,5.6712,5.7251,5.8165,5.9492,5.9858,5.9858,5.9492,5.8399,5.7462,5.6619,5.5332,5.4465,5.3905,5.2347,5.1143,5.0235,4.9061,4.7887,4.6779,4.6055,4.4617,4.2856,4.2721,4.2021,4.1007,0.0,0.0,0.0,0.0,0.0,0.0,0.0,0.0,0.0,0.0,2.7475,2.7475,2.7475,2.8191,2.9329,3.0925,3.2742,3.4613,3.6547,3.8382,3.9504,3.9765,3.9969,4.007,4.007,4.007,4.007,4.007,4.007,4.0358,4.0899,4.1305,4.2185,4.3436,4.3859,4.4587,4.5517,4.5855,4.5686,4.5196,4.5348,4.4147,4.2252,4.1847,4.0443,3.87,3.87,3.8413,3.8058,3.8058,3.8548,3.9174,3.9174,3.8937,3.8639,3.8397,3.9151,4.0569,4.2902,0.0,0.0,4.7535,5.0915,5.4,5.4447,5.5603,5.6799,5.7484,5.6982,5.5705,5.3306,5.1167,4.8761,4.5986,4.2139,3.9731,4.0681,3.8054,3.7111,4.0097,4.158,4.3802,4.7369,4.9748,5.164,5.3085,5.3093,5.344,5.4452,5.4371,5.5018,5.6607,5.6857,5.7569,5.88,5.905,5.8985,5.8645,5.7703,5.6796,5.5846,5.4799,5.3902,5.3112,5.1822,5.0897,5.0194,4.8673,4.747,4.6458,4.5753,4.4216,4.2371,4.1607,4.0936,4.0447,0.0,0.0,0.0,0.0,0.0,0.0,0.0,0.0,0.0,0.0,0.0,0.0,0.0,2.7346,2.8484,3.0099,3.2412,3.4425,3.5842,3.81,3.9277,3.9037,3.9698,4.007,4.007,4.007,4.007,4.007,4.007,4.0087,4.0138,4.1593,4.2675,4.3487,4.4976,4.6447,4.7767,4.7056,4.6735,4.6599,4.5179,4.369,4.2134,4.0713,3.9259,3.7939,3.7939,3.6992,3.5723,3.5723,3.6231,3.6874,3.6874,3.7364,3.8001,3.8474,3.9911,4.1649,4.3118,4.5792,4.8967,5.2197,5.517,5.7763,5.9305,5.9533,5.9384,5.9421,5.7037,5.413,5.1293,4.8787,4.6082,4.2712,4.0017,3.8529,3.8957,3.7579,3.7423,3.9633,4.1207,4.3225,0.0,4.9106,5.152,5.3091,5.2767,5.3118,5.4414,5.4069,5.4396,5.5703,5.6549,5.7011,5.7069,5.7915,5.7719,5.6469,5.645,5.5779,5.4541,5.4067,5.3586,5.312,5.1522,5.0824,5.0578,4.8327,4.7409,4.7101,4.4443,4.3339,4.3034,4.0931,4.0154,4.0035,0.0,0.0,0.0,0.0,0.0,0.0,0.0,0.0,0.0,0.0,0.0,0.0,0.0,0.0,0.0,0.0,3.1916,3.3494,3.47,3.7488,3.8937,3.8477,4.0254,4.0969,4.0418,4.0538,4.0607,4.0607,4.0286,4.0341,4.0832,4.1339,4.2219,4.347,4.4502,4.5517,4.6464,4.6701,4.6786,4.6667,4.5179,4.3961,4.2777,4.0307,3.8447,3.6958,0.0,3.4912,3.4793,3.432,3.4641,3.5351,3.5859,3.5504,3.523,3.674,3.923,4.2137,4.5301,4.8802,5.2344,5.5592,5.8299,6.0351,6.0907,6.0149,5.8867,5.7157,5.406,5.0674,4.7205,4.4739,4.2473,4.0418,3.8523,3.7882,3.978,3.8949,3.8944,4.0858,4.3007,0.0,0.0,0.0,0.0,5.1495,5.2176,5.2872,5.3616,5.4287,5.4976,5.5684,5.5972,5.6415,5.6973,5.7038,5.6824,5.6393,5.524,5.4329,5.3623,5.3444,5.2803,5.1682,5.0628,4.9629,4.8631,4.7293,4.6223,4.5299,4.3868,4.2701,4.1784,4.0544,4.007,4.0037,0.0,0.0,0.0,0.0,0.0,0.0,0.0,0.0,0.0,0.0,0.0,0.0,0.0,0.0,0.0,0.0,0.0,3.2311,3.3723,3.572,3.7005,3.7376,3.8823,3.9552,3.93,3.9423,3.9634,3.9913,3.9865,4.0229,4.0985,4.1355,4.2176,4.3335,4.3919,4.4873,4.6032,4.6198,4.6071,4.5657,4.4243,4.2875,4.1376,3.8749,3.7026,0.0,3.3423,3.2916,3.3203,3.2476,3.2713,3.3389,3.3897,3.4303,3.4907,3.6437,3.9522,4.3344,4.7286,5.1149,5.4848,5.8039,6.0259,6.1543,6.1245,5.9495,5.7218,5.4783,5.1246,4.7448,4.3786,4.1424,3.9507,3.7794,3.6975,3.7274,3.9628,3.9946,4.0697,4.256,4.4758,4.6394,0.0,0.0,0.0,5.0855,5.1858,5.2677,5.3394,5.4344,5.5135,5.5684,5.5703,5.5972,5.653,5.6129,5.5779,5.5466,5.4167,5.3444,5.3206,5.2626,5.189,5.0913,4.9603,4.8525,4.7629,4.6526,4.5586,4.4697,4.37,4.2621,4.1508,4.0764,4.0442,4.0368,0.0,0.0,0.0,0.0,0.0,0.0,0.0,0.0,0.0,0.0,0.0,0.0,0.0,0.0,0.0,0.0,0.0,0.0,3.2871,3.3003,3.3841,3.572,3.5858,3.6264,3.7046,3.7023,3.7411,3.8192,3.8969,3.9711,4.0435,4.1457,4.2272,4.295,4.3132,4.4312,4.6221,4.5459,4.4617,4.3645,4.2345,4.0498,3.8274,3.6293,3.5098,3.415,3.2019,3.1207,3.1038,3.0378,3.07,3.1376,3.141,3.3914,3.6978,3.7585,4.0943,4.5267,4.8958,5.2848,5.6638,5.9709,6.099,6.1315,6.0503,5.7631,5.4551,5.2377,4.8529,4.4465,0.0,0.0,3.7256,3.5137,3.5657,3.705,3.8866,4.0931,4.2974,0.0,0.0,0.0,0.0,0.0,0.0,5.119,0.0,5.2531,5.372,5.4258,5.4914,5.5684,5.5684,5.5662,5.5662,5.5237,5.4621,5.3777,5.3381,5.3164,5.3085,5.1692,5.0985,5.0713,4.8615,4.7652,4.7431,4.6046,4.5442,4.5286,4.3895,4.2895,4.2151,4.1459,4.1064,4.081,0.0,0.0,0.0,0.0,0.0,0.0,0.0,0.0,0.0,0.0,0.0,0.0,0.0,0.0,0.0,0.0,0.0,0.0,3.1191,3.2735,3.3824,3.4309,3.6072,3.7265,3.7665,3.7618,3.7791,3.8207,3.8429,3.8289,3.7937,3.8784,3.928,3.9406,3.9983,4.0854,4.188,4.1688,4.1586,4.1418,3.942,3.838,3.7823,3.5616,3.432,3.3525,3.2408,3.1309,3.0446,3.0801,3.2138,3.3744,3.432,3.5926,3.8089,4.0407,4.3828,4.7762,5.1581,5.5437,5.8805,6.0797,6.1059,6.0249,5.8351,5.5009,5.1352,4.7819,4.3706,3.9893,0.0,0.0,0.0,3.5846,3.8533,0.0,4.3912,4.6334,0.0,4.9066,0.0,5.1365,5.0355,5.0721,0.0,0.0,5.1926,5.2405,5.3297,5.4661,5.5491,5.5684,5.5399,5.5237,5.5237,5.451,5.3888,5.3359,5.323,5.2893,5.2381,5.2007,5.0646,4.8574,4.7998,4.6862,4.538,4.4992,4.4473,4.3878,4.2915,4.2134,4.1442,4.1111,4.0953,4.0949,0.0,0.0,0.0,0.0,0.0,0.0,0.0,0.0,0.0,0.0,0.0,0.0,0.0,0.0,0.0,0.0,0.0,0.0,0.0,3.1893,3.2901,3.3584,3.4606,3.5405,3.5909,3.5898,3.5947,3.6054,3.7156,3.7449,3.703,3.7941,3.8096,3.7632,3.7802,3.8362,3.9164,3.8827,3.8951,0.0,0.0,3.6464,3.5821,3.4151,3.3271,3.2848,3.2425,3.2391,3.2696,3.3778,3.4962,3.6231,3.7635,3.9316,4.1334,4.4009,4.6933,4.998,5.3194,5.6343,5.8919,5.9794,5.922,5.7564,5.4325,5.0815,4.6976,4.2558,3.9169,3.6262,3.3746,3.3999,0.0,0.0,0.0,0.0,4.5745,4.8394,5.0476,0.0,5.3351,0.0,5.2535,5.2797,5.305,0.0,5.2728,5.2872,5.3712,5.5351,5.6025,5.5466,5.5594,5.5313,5.456,5.403,5.3604,5.3206,5.3206,5.2813,5.2094,5.1449,4.9968,4.7746,4.7141,4.5981,4.4587,4.4587,4.4316,4.3914,4.3369,4.2723,4.2055,4.1824,4.1727,4.175,0.0,0.0,0.0,0.0,0.0,0.0,0.0,0.0,0.0,0.0,0.0,0.0,0.0,0.0,0.0,0.0,0.0,0.0,0.0,0.0,3.1487,3.2995,3.2392,3.2411,3.3261,3.326,3.3221,3.3183,3.548,3.6512,3.6355,3.741,3.7359,3.6311,3.5838,3.6146,3.6967,3.6215,3.6227,3.662,3.5719,3.45,3.3106,0.0,3.2124,3.2056,3.2239,3.3711,3.5893,3.7618,3.8328,3.887,4.1223,4.3408,4.5544,4.7962,5.0189,5.2404,5.4581,5.6704,5.8272,5.8042,5.6653,5.4201,4.9714,4.6094,4.227,3.7443,3.5156,3.3359,3.1308,3.2121,3.3378,3.4265,0.0,4.152,4.6074,4.8771,5.1101,5.3281,5.4796,5.5385,5.4711,5.461,5.4613,5.4632,5.3979,5.3878,5.4541,5.6126,5.6409,5.5123,5.5712,5.5297,5.372,5.372,5.3545,5.3206,5.3206,5.2769,5.1934,5.061,4.917,4.7582,4.626,4.528,4.457,4.4468,4.4473,4.4538,4.4148,4.3675,4.3127,4.2953,4.2792,4.2752,0.0,0.0,0.0,0.0,0.0,0.0,0.0,0.0,0.0,0.0,2.5928,2.7024,0.0,0.0,0.0,0.0,0.0,0.0,0.0,0.0,0.0,3.128,3.1204,3.1616,3.264,3.2448,3.243,3.264,3.3544,3.3614,3.2975,3.3813,3.377,3.2941,3.2669,3.268,3.2828,3.2467,3.2325,3.2339,3.2178,3.1598,3.0924,3.1373,0.0,0.0,3.1914,3.3711,3.6045,3.8802,4.0544,4.2055,4.4923,4.6933,4.8816,5.1705,5.4035,5.599,5.7617,5.8841,5.9363,5.8088,5.5356,5.1706,4.674,4.2762,0.0,0.0,3.2283,3.0899,3.0041,3.1324,3.3345,3.5907,3.9358,4.3271,4.7713,5.0452,5.2564,0.0,5.5148,5.5634,0.0,5.5496,0.0,0.0,5.577,5.5436,5.4924,5.6201,5.6352,5.5059,5.4535,5.3944,5.3295,5.3295,5.3272,5.3206,5.3206,5.2509,5.1256,5.0409,4.8871,4.6952,4.6065,0.0,4.4536,4.3876,4.3897,4.4234,4.297,4.2678,4.2917,4.2785,4.2724,4.277,0.0,0.0,0.0,0.0,0.0,0.0,0.0,2.5324,2.572,2.6581,2.7083,2.7615,2.8382,2.8852,2.9448,0.0,0.0,0.0,0.0,0.0,0.0,0.0,3.1329,3.1565,3.2072,3.1966,3.1722,3.1402,0.0,3.267,3.1905,3.2609,3.2428,3.1525,3.1271,3.1095,3.0932,3.0606,3.093,3.1617,3.117,3.0846,3.069,0.0,0.0,0.0,0.0,3.3879,3.6258,3.806,4.0401,4.3195,4.7228,4.9714,5.1716,5.4251,5.6301,5.7867,5.8585,5.9348,5.926,5.6218,5.301,4.8907,4.2289,0.0,0.0,3.041,2.8931,2.8449,2.854,3.0449,0.0,3.4865,3.819,4.2313,4.7471,4.9625,0.0,5.4254,5.5228,5.5677,0.0,5.6093,5.6388,5.6485,5.6903,5.6818,5.6048,5.5955,5.564,5.5081,5.4031,5.34,5.3206,5.3206,5.3206,5.3206,5.3206,5.2264,5.0535,5.0181,4.8608,4.621,4.5855,4.5196,4.4382,4.4059,4.3974,4.406,4.3305,4.3152,4.3358,4.3174,4.3142,4.316,0.0,0.0,0.0,0.0,0.0,0.0,0.0,2.5477,2.5974,2.7295,2.7788,2.796,2.7843,2.8703,2.9574,0.0,0.0,0.0,0.0,0.0,0.0,0.0,0.0,0.0,3.1072,0.0,0.0,3.0496,3.1832,0.0,0.0,0.0,0.0,0.0,3.0524,3.0238,3.0005,2.9541,3.0116,0.0,0.0,3.0316,0.0,0.0,0.0,0.0,0.0,3.3823,3.6022,3.7126,3.9491,4.2817,4.7375,5.0738,5.3392,5.5176,5.7191,5.8791,5.8739,5.9241,5.8708,5.4375,5.0875,4.6473,3.863,3.4554,0.0,2.7316,2.651,2.6759,2.7645,2.9592,3.1742,0.0,3.6371,4.0271,4.6212,4.7788,4.9713,0.0,5.4723,0.0,5.5931,5.6545,0.0,5.7052,5.7648,5.7654,5.6929,5.579,5.5076,5.4966,5.3824,5.3206,5.3206,5.3206,5.3206,5.3206,5.3206,5.2154,5.0186,4.9877,4.826,4.5643,4.549,4.4895,4.4042,4.4034,4.3968,4.3926,4.366,4.3635,4.3735,4.3559,4.3497,4.3548,0.0,0.0,0.0,0.0,0.0,0.0,0.0,2.5508,2.5566,2.5717,2.7057,2.7902,2.7657,2.9002,2.9952,0.0,0.0,0.0,0.0,0.0,0.0,0.0,0.0,0.0,0.0,0.0,0.0,3.0843,3.1013,0.0,0.0,0.0,0.0,0.0,0.0,2.9504,2.9423,2.8761,0.0,0.0,0.0,0.0,0.0,0.0,0.0,0.0,0.0,3.314,3.4666,3.6974,3.865,4.0382,4.3885,4.8252,5.2286,5.3237,0.0,0.0,5.8766,5.8851,5.7964,5.3932,4.9976,4.5074,3.7606,0.0,3.0713,2.7229,2.651,2.6916,2.8174,2.906,3.0693,3.4052,3.5354,3.7974,4.3912,4.5468,4.7584,5.1881,0.0,0.0,5.6615,5.6861,0.0,5.784,5.796,5.7657,5.6846,5.6036,5.522,5.4485,5.3628,5.3206,5.3206,5.3206,5.3206,5.3206,5.3206,5.235,5.0793,4.9554,4.7744,4.5477,4.4751,4.3974,0.0,4.3096,4.3337,4.3764,4.3069,4.3085,4.352,4.3516,4.3497,4.3479,0.0,0.0,0.0,0.0,0.0,0.0,2.5558,2.5598,2.5771,2.6213,2.685,2.7301,2.7355,2.8362,2.9244,2.9775,0.0,0.0,0.0,0.0,0.0,0.0,0.0,0.0,0.0,0.0,2.9363,3.0884,3.0884,0.0,0.0,0.0,0.0,0.0,0.0,2.9156,2.8478,2.7956,0.0,0.0,0.0,0.0,0.0,0.0,0.0,0.0,0.0,0.0,3.3915,3.4762,3.6259,3.7923,3.8582,4.2283,4.7187,5.1228,5.4373,5.6681,5.7228,5.7316,5.6133,5.1201,4.6595,4.1466,3.4896,0.0,2.8827,2.6369,2.6491,2.7369,2.8304,2.9271,3.0658,3.2847,3.3717,3.6116,4.1902,4.3033,4.5285,5.0727,5.213,0.0,0.0,0.0,5.7184,5.7932,5.7556,5.6932,5.6124,5.5757,5.5005,5.372,5.339,5.3206,5.3206,5.3206,5.3206,5.3206,5.2711,5.1682,5.0164,4.8659,4.7002,4.526,4.4458,4.3687,0.0,4.3302,4.3319,4.3126,4.3178,4.3286,4.3497,4.3497,4.3497,4.3497,0.0,0.0,0.0,0.0,0.0,2.5611,2.5603,2.5636,2.5845,2.635,2.6623,2.6807,2.692,2.7818,2.8625,2.9193,2.893,0.0,0.0,0.0,0.0,0.0,0.0,0.0,0.0,0.0,2.9214,3.0865,3.0865,3.1343,0.0,0.0,3.1192,3.0358,0.0,0.0,0.0,0.0,0.0,0.0,0.0,0.0,0.0,0.0,0.0,0.0,0.0,0.0,0.0,0.0,0.0,3.5882,3.5403,3.7618,4.1512,4.7355,5.1152,5.3566,5.3953,5.411,5.3006,4.7916,4.3189,3.8324,0.0,0.0,2.7638,2.6523,2.7076,2.8046,2.914,3.0069,3.1116,3.2582,3.3145,3.5252,4.0492,4.159,4.3793,0.0,0.0,0.0,0.0,5.6794,5.7703,5.7818,5.7327,5.6485,5.5299,5.5244,5.462,5.3243,5.3206,5.3206,5.3206,5.3206,5.3096,5.2839,5.227,5.1054,4.9307,4.7994,4.6449,4.4778,4.4201,4.3507,0.0,4.3448,4.3391,4.2976,4.3375,4.3497,4.3497,4.3497,4.3497,4.3497,0.0,0.0,0.0,0.0,0.0,0.0,2.5605,2.5601,2.559,2.5517,2.6217,2.6608,2.6339,2.7557,2.8311,2.8126,2.889,0.0,0.0,0.0,0.0,0.0,0.0,0.0,0.0,0.0,2.8997,3.081,3.081,3.1381,3.2482,3.1685,3.1299,3.1211,0.0,0.0,0.0,0.0,0.0,0.0,0.0,0.0,0.0,0.0,0.0,0.0,0.0,0.0,0.0,0.0,0.0,0.0,0.0,3.5421,3.5862,4.091,4.5909,4.9554,4.8694,4.8894,4.8282,4.4327,4.0189,3.6228,3.2625,2.9475,2.754,2.8315,2.8493,2.9085,3.1034,3.1391,3.1992,3.3891,3.4185,3.5615,3.9752,4.1393,4.3405,0.0,0.0,5.1064,5.4727,5.7676,5.8837,5.7598,5.7502,0.0,5.4534,5.4418,5.4051,5.3243,5.3206,5.3206,5.3206,5.3206,5.2803,5.1995,5.1995,5.071,4.8286,4.7674,4.6104,4.3884,4.3826,4.3394,0.0,4.3268,4.3497,4.3479,4.3497,4.3497,4.3497,4.3497,4.3497,4.3497,0.0,0.0,0.0,0.0,0.0,0.0,0.0,2.5561,2.5517,2.5441,2.5653,2.5713,2.5436,2.6702,2.7505,2.7289,2.7911,0.0,0.0,0.0,0.0,0.0,0.0,0.0,0.0,0.0,2.795,2.9626,2.9626,3.035,3.1735,3.1056,3.0595,3.0244,2.9763,2.8892,0.0,0.0,0.0,0.0,0.0,0.0,0.0,0.0,0.0,0.0,0.0,0.0,0.0,0.0,0.0,0.0,0.0,0.0,0.0,3.5403,3.8898,4.2388,4.274,4.2187,4.0928,3.825,3.4866,3.1722,2.9858,2.8248,2.7353,2.833,2.9231,3.0179,3.1199,3.1724,3.2476,3.3947,3.4454,3.5901,0.0,0.0,0.0,4.7361,5.1359,5.4653,0.0,0.0,5.774,5.7881,5.6885,5.5726,5.4462,5.3609,5.3191,5.3206,5.3206,5.3206,5.3206,5.3206,5.2803,5.1977,5.1444,5.0472,4.9114,4.7254,4.5971,4.5204,4.409,4.325,4.275,4.3286,4.3286,4.2976,4.3375,4.3149,4.2671,4.2671,4.2323,4.1937,0.0,0.0,0.0,0.0,0.0,0.0,0.0,2.5498,2.5434,2.5371,2.5363,2.5302,2.5133,2.6445,2.7242,2.7025,2.786,0.0,0.0,0.0,0.0,0.0,0.0,0.0,2.5941,2.6737,2.7706,2.8838,2.8838,2.9565,3.0905,3.0295,3.001,2.9967,2.947,2.8641,0.0,0.0,0.0,0.0,0.0,0.0,2.6992,0.0,0.0,0.0,0.0,0.0,0.0,0.0,0.0,0.0,0.0,0.0,0.0,0.0,3.3267,3.5011,3.6992,3.7165,3.6258,3.3931,3.1273,0.0,2.8372,2.7864,2.8013,2.9623,3.1019,3.2095,3.2396,3.2895,3.346,3.4116,3.4584,3.5933,0.0,0.0,0.0,4.7285,0.0,0.0,0.0,5.6771,5.7194,5.7576,5.6069,5.4808,5.4076,5.3019,5.2442,5.2462,5.2353,5.2307,5.2307,5.2307,5.1885,5.1077,5.0563,4.9572,4.8141,4.6599,4.5571,4.4929,4.3938,4.3286,0.0,4.3375,4.3286,4.2977,4.3045,4.2745,4.2268,4.1974,4.1534,4.1185,0.0,0.0,0.0,0.0,0.0,0.0,0.0,2.5391,2.5371,2.5303,2.5303,2.5303,2.5303,2.656,2.7348,2.721,0.0,0.0,0.0,0.0,0.0,0.0,0.0,0.0,2.6664,2.7423,2.7987,2.828,2.828,2.8853,2.9901,2.9274,2.9428,3.0093,2.8812,2.8279,0.0,0.0,0.0,0.0,0.0,0.0,0.0,0.0,0.0,0.0,0.0,0.0,0.0,0.0,0.0,0.0,0.0,0.0,0.0,0.0,0.0,0.0,0.0,3.3378,3.3528,3.0932,2.9204,2.8119,2.7865,2.8179,0.0,3.181,3.3309,3.4176,3.4133,3.4473,3.4657,3.4293,3.4581,0.0,0.0,4.0658,0.0,0.0,5.0482,0.0,5.3444,5.5583,5.685,5.6653,5.5087,5.3877,5.3255,5.2431,5.1679,5.1065,5.0694,5.0606,5.0802,5.0802,5.0398,4.9591,4.9501,4.8252,4.5975,4.5883,4.502,0.0,4.3516,4.3497,4.3497,4.3497,4.3513,4.3474,4.2632,4.2283,4.2136,4.1346,4.0983,4.0946,0.0,0.0,0.0,0.0,0.0,0.0,0.0,0.0,0.0,0.0,2.5303,2.5303,2.5303,2.6063,2.6759,0.0,0.0,0.0,0.0,0.0,0.0,0.0,0.0,0.0,2.6324,2.6768,2.7024,2.7113,2.7113,2.7538,2.833,2.7365,2.7573,2.8764,2.8018,2.7982,0.0,0.0,0.0,0.0,0.0,0.0,0.0,0.0,0.0,0.0,2.713,2.7776,0.0,0.0,0.0,0.0,0.0,0.0,0.0,0.0,2.7603,2.6119,2.6457,0.0,2.6762,2.6498,2.6166,2.6277,0.0,2.8207,2.8895,3.1153,3.1885,3.2393,3.3413,3.399,3.4359,3.4413,0.0,0.0,0.0,0.0,0.0,0.0,0.0,5.233,5.2438,5.3563,5.4546,5.515,5.4195,5.2951,5.1482,5.1068,5.0144,4.8602,4.8188,4.8896,5.0765,5.0802,5.0398,4.9612,4.9233,4.8254,4.6783,4.5811,4.5001,4.4378,4.3754,4.3497,4.3497,4.3497,4.3646,4.3806,4.2996,4.2322,4.1664,4.0799,3.9963,3.935,0.0,0.0,0.0,0.0,0.0,0.0,0.0,0.0,0.0,0.0,0.0,0.0,0.0,0.0,0.0,0.0,0.0,0.0,0.0,0.0,0.0,0.0,0.0,2.635,2.668,2.7043,2.7199,2.7199,2.7571,2.782,2.7972,2.7097,2.6968,2.7482,2.718,2.7283,0.0,0.0,0.0,0.0,2.8303,0.0,0.0,0.0,0.0,0.0,2.6838,2.7295,0.0,2.823,2.8907,2.9509,0.0,0.0,0.0,0.0,2.6414,2.4984,2.4614,2.4653,2.4751,2.439,2.5442,2.6735,2.7617,2.8786,3.0069,3.148,0.0,3.2913,3.3618,3.4168,3.4592,0.0,3.5879,0.0,0.0,0.0,0.0,0.0,4.8918,5.1206,0.0,5.2406,5.3253,5.4139,5.3044,5.2069,5.1425,5.0571,4.9545,4.8324,4.7687,4.8094,4.961,4.9259,4.9222,4.9536,4.8506,4.7684,4.7024,4.5773,4.4915,4.434,4.3766,4.3497,4.3497,4.3497,4.3376,4.3143,4.2334,4.1605,4.0887,4.0067,3.937,3.8939,0.0,0.0,0.0,0.0,0.0,0.0,0.0,0.0,0.0,0.0,0.0,0.0,0.0,0.0,0.0,0.0,0.0,0.0,0.0,0.0,0.0,0.0,2.6889,2.6645,2.7286,2.7504,2.7671,2.7789,2.8294,2.836,2.7993,2.7227,2.6646,2.6238,2.6419,2.6479,0.0,0.0,0.0,0.0,2.8681,0.0,0.0,0.0,0.0,0.0,0.0,0.0,0.0,2.8416,2.8704,2.8716,2.8086,0.0,0.0,0.0,0.0,0.0,2.4388,2.4986,2.5312,2.4123,2.6054,2.8141,2.7743,0.0,0.0,0.0,0.0,0.0,3.4051,3.4541,0.0,0.0,0.0,0.0,0.0,0.0,0.0,4.4821,4.7798,0.0,5.0469,5.1482,5.2413,5.3137,5.1861,5.1191,5.1499,5.0191,4.9216,4.8716,4.7856,4.7663,4.8218,4.7427,4.7745,4.9153,4.7647,4.6883,4.6785,4.5707,4.4793,4.4058,4.3643,4.3461,4.3461,4.3332,4.2904,4.2266,4.1422,4.0837,4.0352,3.9537,3.9212,3.9178,0.0,0.0,0.0,0.0,0.0,0.0,0.0,0.0,0.0,0.0,0.0,0.0,0.0,0.0,0.0,0.0,0.0,0.0,0.0,0.0,0.0,2.7409,2.7213,2.7182,2.7303,2.7026,2.7182,2.7789,2.6897,2.6746,2.7212,2.5632,2.4856,2.4912,2.5536,2.5835,2.5794,0.0,0.0,0.0,2.7538,0.0,0.0,0.0,0.0,0.0,0.0,0.0,0.0,2.6996,2.7469,2.7799,2.6828,0.0,0.0,0.0,0.0,0.0,2.3836,2.514,2.643,2.6002,2.7112,2.8389,2.8823,2.9747,0.0,0.0,0.0,0.0,0.0,3.4467,3.5304,0.0,0.0,3.9729,0.0,0.0,4.5167,4.3246,0.0,4.9263,4.7929,4.9903,5.1288,5.1308,5.1087,5.0325,4.8962,4.8749,4.8243,4.7347,4.6512,4.6794,4.8277,4.759,4.7392,4.7622,4.6968,4.6436,4.605,4.5529,4.4995,4.4463,4.3668,4.334,4.3265,4.2524,4.2329,4.2401,4.1582,4.1209,4.1045,4.0247,3.9775,3.9462,0.0,0.0,0.0,0.0,0.0,0.0,0.0,0.0,0.0,0.0,0.0,0.0,0.0,0.0,0.0,0.0,0.0,0.0,0.0,0.0,2.7379,2.6422,2.6749,2.7083,2.7303,2.7316,2.733,2.7414,2.6902,2.6531,2.6198,2.463,2.3985,2.4139,2.5133,2.5804,2.6153,2.6773,2.7195,2.7403,0.0,0.0,0.0,0.0,0.0,0.0,0.0,0.0,0.0,0.0,2.6607,2.6926,2.5337,0.0,0.0,0.0,0.0,0.0,2.3926,2.5383,2.6978,2.7284,2.8678,2.9964,2.9805,3.048,0.0,0.0,0.0,0.0,0.0,0.0,3.6335,3.764,0.0,4.0744,4.1304,4.3033,4.4102,0.0,0.0,4.8755,4.7877,4.9788,5.1016,5.0805,5.0347,4.9729,4.8938,4.8087,4.7437,4.7019,4.6211,4.6196,4.6995,4.6772,4.7086,4.7932,4.6763,4.6358,4.6577,4.5695,4.4921,4.4238,4.3596,4.3045,4.253,4.1695,4.1151,4.084,4.0479,4.0167,3.9967,4.0062,4.0002,3.9797,0.0,0.0,0.0,0.0,0.0,0.0,0.0,0.0,0.0,0.0,0.0,0.0,0.0,0.0,0.0,0.0,0.0,0.0,0.0,0.0,2.6685,2.5879,2.6234,2.6517,2.6644,2.7079,2.7039,2.6607,2.6372,2.5738,2.4837,2.395,2.3692,2.3952,2.5055,2.5725,2.6186,2.6732,2.6918,2.6725,0.0,0.0,0.0,0.0,0.0,0.0,0.0,0.0,0.0,0.0,0.0,0.0,0.0,0.0,0.0,2.3747,2.3925,2.4361,2.4361,2.588,2.7582,2.7866,2.9417,3.0817,3.0784,3.1482,0.0,0.0,0.0,0.0,0.0,3.6198,0.0,3.9437,4.0574,4.1433,4.236,4.3291,4.4056,4.4519,4.7281,4.8942,4.8435,4.9886,5.075,5.0516,4.9691,4.9112,4.89,4.7664,4.6974,4.7036,4.6235,4.5966,4.6244,4.6142,4.6718,4.7918,4.6619,4.6332,4.6897,4.5718,4.4815,4.4118,4.3139,4.2343,4.1637,4.0627,3.9808,3.9178,3.9387,3.9375,3.9279,3.9966,4.0158,4.0022,0.0,0.0,0.0,0.0,0.0,0.0,0.0,0.0,0.0,0.0,0.0,0.0,0.0,0.0,0.0,0.0,0.0,0.0,0.0,0.0,2.6375,2.6623,2.6031,2.5387,2.4723,2.5421,2.5547,2.5159,2.3983,2.3236,2.2915,2.3433,2.3987,2.4596,2.5267,2.5292,2.4807,2.5467,2.5288,2.4606,2.458,0.0,0.0,0.0,0.0,0.0,0.0,0.0,0.0,0.0,0.0,0.0,0.0,0.0,2.4816,2.4997,2.507,2.5102,2.5102,2.6867,2.844,2.7429,2.8169,2.9698,3.1692,3.2668,0.0,3.4883,0.0,0.0,0.0,3.6574,3.7336,3.9457,4.0932,4.1841,4.1839,0.0,4.7095,4.4469,4.8196,5.0398,4.8829,4.9538,5.0024,4.9877,4.9059,4.8204,4.7398,4.7242,4.7174,4.7184,4.6328,4.6349,4.7284,4.6494,4.6156,4.6264,4.6268,4.6241,4.6143,4.525,4.4773,4.4501,4.2044,4.0937,4.0762,3.915,3.8364,3.8272,3.909,3.9802,4.0396,4.0454,4.0321,4.0101,0.0,0.0,0.0,0.0,0.0,0.0,0.0,0.0,0.0,0.0,0.0,0.0,0.0,0.0,0.0,0.0,0.0,0.0,0.0,2.5695,2.587,2.6015,2.5761,2.5253,2.4523,2.4763,2.4562,2.3821,2.3177,2.236,2.1505,2.3349,2.4115,2.4092,2.5104,2.5404,2.5226,2.5394,2.5118,2.4572,2.4804,2.4632,0.0,0.0,0.0,0.0,0.0,0.0,0.0,0.0,2.4949,2.5593,2.4171,2.4125,2.4476,2.3818,2.3861,2.4232,2.4877,2.6607,2.8058,2.7662,2.8795,0.0,0.0,3.2948,3.3917,3.5022,3.6767,0.0,0.0,0.0,4.0516,4.0324,4.1732,4.2971,4.3369,4.533,4.6487,4.5736,4.802,4.9187,4.801,4.8679,4.9139,4.9002,4.8176,4.7543,4.7213,4.6697,4.638,4.6339,4.6008,4.5987,4.6282,4.6035,4.5915,4.5915,4.6171,4.6268,4.6184,4.5246,4.4514,4.3922,4.2323,4.1291,4.0715,3.9575,3.9085,3.9062,3.9303,3.9913,4.061,4.0515,4.0441,4.0321,0.0,0.0,0.0,0.0,0.0,0.0,0.0,0.0,0.0,0.0,0.0,0.0,0.0,0.0,0.0,0.0,0.0,0.0,2.4437,2.4764,2.5017,2.5236,2.5253,2.4898,2.4154,2.4137,2.3762,2.2973,2.2492,2.1939,2.1391,2.3312,2.4028,2.371,2.4757,2.5129,2.4926,2.4648,2.4453,2.4282,2.4374,2.3973,0.0,0.0,0.0,0.0,0.0,0.0,0.0,0.0,2.4797,2.5389,2.3833,2.3803,2.4189,2.3601,2.3759,2.4278,2.4962,2.6316,2.756,2.7788,0.0,0.0,3.2804,3.4016,3.5312,3.7175,3.8556,0.0,0.0,0.0,0.0,0.0,4.2645,4.3997,4.4451,4.5588,4.6373,4.6287,4.7742,4.8412,4.7539,4.8005,4.8302,4.823,4.7405,4.6897,4.686,4.6299,4.5913,4.584,4.584,4.58,4.5704,4.5538,4.5454,4.5454,4.5328,4.5444,4.5765,4.4792,4.3777,4.269,4.1434,4.0563,3.9987,3.9176,3.9137,3.9587,3.9451,3.9905,4.0584,4.026,4.0123,4.0088,0.0,0.0,0.0,0.0,0.0,0.0,0.0,0.0,0.0,0.0,0.0,0.0,0.0,0.0,0.0,0.0,0.0,0.0,2.3371,2.3393,2.3714,2.4458,2.4492,2.4154,2.3427,2.341,2.318,2.2698,2.1761,2.1804,2.2724,2.331,2.3595,2.3625,2.4298,2.4223,2.355,2.2936,2.3041,2.355,2.2936,2.2724,2.2791,0.0,0.0,0.0,0.0,0.0,0.0,0.0,2.4628,2.3663,2.5135,2.4834,2.4053,2.4763,2.5315,2.5649,2.5525,2.6195,2.7064,0.0,0.0,0.0,3.4484,3.6077,3.7977,4.1863,4.1394,4.0381,4.0646,0.0,0.0,4.1882,4.3688,4.4842,4.4703,4.6542,4.7301,4.5784,4.7549,4.8535,4.7676,4.7598,4.7598,4.7598,4.6797,4.6246,4.6093,4.6089,4.602,4.586,4.5879,4.5879,4.5851,4.5062,4.4673,4.4654,4.3538,4.3587,4.4662,4.3759,4.2482,4.0797,3.905,3.8344,3.8346,3.7542,3.8166,3.9591,3.9471,3.985,4.0389,3.9585,3.9296,3.9296,0.0,0.0,0.0,0.0,0.0,0.0,0.0,0.0,0.0,0.0,0.0,0.0,0.0,0.0,0.0,0.0,0.0,0.0,2.3342,2.3393,2.3782,2.4663,2.4572,2.4469,2.4398,2.4252,2.3684,2.2698,2.2595,2.2959,2.3746,2.4039,2.3897,2.3452,2.3299,2.3131,2.2936,2.2798,2.3041,2.358,2.34,2.3071,2.275,0.0,0.0,0.0,0.0,0.0,0.0,0.0,0.0,0.0,2.4591,2.4822,2.5177,2.45,2.4653,2.5091,2.5185,2.6355,0.0,2.808,0.0,0.0,0.0,3.6078,0.0,0.0,4.0907,4.1024,4.1504,0.0,0.0,4.3052,4.4258,4.5184,4.5132,4.591,4.6319,4.5879,4.6479,4.6864,4.6699,4.6699,4.6699,4.6699,4.6358,4.5893,4.5293,4.5169,4.4685,4.3755,4.3722,4.3551,4.3235,4.2986,4.2871,4.2871,4.2142,4.2502,4.3728,4.2053,4.115,4.0804,3.9064,3.8299,3.8363,3.8727,3.9176,3.9645,4.0119,4.008,3.9702,3.9413,3.9296,3.92,0.0,0.0,0.0,0.0,0.0,0.0,0.0,0.0,0.0,0.0,0.0,0.0,0.0,0.0,0.0,0.0,0.0,0.0,0.0,2.2685,2.2986,2.3665,2.3869,2.4132,2.4525,2.4282,2.3767,2.285,2.2728,2.2861,2.3224,2.3295,2.3121,2.2699,2.2425,2.2428,2.2664,2.1869,2.2308,2.355,2.3056,2.2622,2.2359,0.0,0.0,0.0,0.0,0.0,0.0,0.0,0.0,0.0,2.4778,2.4891,2.4996,2.4321,2.4468,2.4967,2.5356,2.6618,0.0,2.9382,3.2402,3.5527,3.7414,0.0,0.0,0.0,0.0,4.1838,4.2645,4.3297,0.0,4.4078,4.4863,4.5447,4.5491,4.5706,4.5862,4.5899,4.5974,4.6045,4.612,4.5854,4.5659,4.5659,4.528,4.4793,4.4253,4.415,4.3679,4.275,4.2713,4.2526,4.21,4.1779,4.1628,4.1609,4.0484,4.0463,4.1396,4.0298,3.9528,3.9019,3.8131,3.7747,3.7805,3.87,3.9081,3.9062,3.9383,3.9245,3.8775,3.8285,3.8178,3.818,0.0,0.0,0.0,0.0,0.0,0.0,0.0,0.0,0.0,0.0,2.3917,0.0,0.0,0.0,0.0,0.0,0.0,0.0,0.0,2.1582,2.1727,2.2009,2.2725,2.3462,2.4201,2.3823,2.3468,2.3032,2.2481,2.211,2.1928,2.1828,2.1804,2.1849,2.1689,2.1979,2.2499,2.0572,2.1186,2.3325,2.2158,2.1665,2.1644,2.2026,0.0,0.0,0.0,0.0,0.0,0.0,0.0,0.0,2.5362,2.5014,2.4229,2.4325,2.4776,2.5361,2.5887,2.7071,0.0,3.1259,3.3962,0.0,3.929,4.127,4.2567,4.2551,0.0,4.2732,4.3794,4.3652,4.3756,4.4922,4.5304,4.5536,4.5769,4.5661,4.5646,4.5852,4.5745,4.5695,4.5782,4.5071,4.4584,4.4584,4.3845,4.3306,4.3109,4.3053,4.2815,4.2331,4.2311,4.2101,4.1732,4.1035,4.0678,4.0597,3.8714,3.7929,3.8215,3.8458,3.7699,3.6172,3.6582,3.677,3.6875,3.7732,3.8054,3.7974,3.7737,3.7709,3.7682,3.6678,3.6444,3.6622,0.0,0.0,0.0,0.0,0.0,0.0,0.0,0.0,0.0,0.0,0.0,0.0,0.0,0.0,0.0,0.0,0.0,0.0,0.0,2.1582,2.1811,2.2222,2.2885,2.3802,2.4942,2.3799,2.3016,2.2545,2.2766,2.3159,2.3644,2.2698,2.2555,2.2978,2.1545,2.1291,2.1844,2.0902,2.1111,2.2084,2.1799,2.138,2.0917,2.1031,2.0978,0.0,0.0,0.0,0.0,0.0,0.0,0.0,2.5074,2.5521,2.5693,2.5037,2.5937,2.7003,2.6463,2.8391,0.0,0.0,3.534,3.8349,3.9482,4.0762,4.1613,4.148,4.2402,4.3395,4.3906,4.3908,4.4146,4.5093,4.4743,4.4688,4.5653,4.4628,4.4272,4.5653,4.4618,4.4081,4.4887,4.4175,4.3677,4.3677,4.3413,4.2939,4.2284,4.1909,4.1265,4.0261,3.9989,3.9509,3.8812,3.905,3.8958,3.8538,3.7479,3.6909,3.6749,3.6379,3.5794,3.5058,3.5367,3.5728,3.614,3.6328,3.6423,3.6463,3.7072,3.6919,3.635,3.6309,3.6196,3.6008,0.0,0.0,0.0,0.0,0.0,0.0,0.0,0.0,0.0,0.0,0.0,0.0,0.0,0.0,0.0,0.0,0.0,0.0,0.0,0.0,2.1279,2.198,2.2847,2.3553,2.4004,2.3205,2.2226,2.1203,2.1455,2.1916,2.2512,2.2217,2.2415,2.3041,2.2094,2.2009,2.2532,2.1261,2.1276,2.2113,2.1485,2.1021,2.0722,2.0722,2.061,2.0559,2.081,0.0,0.0,0.0,0.0,0.0,0.0,0.0,2.6277,2.5918,2.6812,2.7877,2.7777,0.0,0.0,3.5643,0.0,3.9945,4.0702,4.0881,4.0836,4.0722,4.1894,4.3026,4.336,4.342,4.3624,4.423,4.3954,4.3942,4.4722,4.3734,4.3304,4.438,4.3719,4.3355,4.3872,4.2761,4.2191,4.2606,4.1448,4.072,4.072,3.9955,3.9183,3.8433,3.8103,3.7859,3.7717,3.7992,3.7992,3.7699,3.6885,3.5993,3.5119,3.4964,3.4741,3.4486,3.4774,3.5078,3.5337,3.5337,3.5337,3.5354,3.5663,3.5675,3.5515,3.5533,3.5533,3.5495,0.0,0.0,0.0,0.0,0.0,0.0,0.0,0.0,0.0,0.0,0.0,0.0,0.0,0.0,0.0,0.0,0.0,0.0,0.0,0.0,0.0,2.165,2.2812,2.3203,2.2724,2.24,2.1507,1.9886,1.9771,2.0079,2.0718,2.1188,2.1853,2.2667,2.2604,2.2862,2.331,2.1549,2.1437,2.234,2.1121,2.0677,2.0736,2.0662,2.0594,2.0536,2.091,2.1566,2.2441,2.3784,0.0,0.0,0.0,0.0,2.6485,2.6679,2.7482,2.845,2.901,0.0,3.3594,3.8889,4.0236,0.0,4.146,4.0815,4.0022,4.0077,4.1156,4.2165,4.2451,4.2493,4.2621,4.2942,4.2888,4.2975,4.3507,4.2751,4.2393,4.303,4.2835,4.2643,4.2643,4.1219,4.0527,4.1104,3.92,3.8281,3.8962,3.8054,3.7375,3.7046,3.6758,3.6887,3.7369,3.7319,3.7271,3.7241,3.6387,3.5172,3.3707,3.3993,3.4123,3.4147,3.4486,3.4591,3.4548,3.4548,3.4548,3.4508,3.4288,3.451,3.4944,3.4964,3.5003,3.5089,0.0,0.0,0.0,0.0,0.0,0.0,0.0,0.0,0.0,0.0,0.0,0.0,0.0,0.0,0.0,0.0,0.0,0.0,2.0389,0.0,0.0,2.168,2.29,2.329,2.2724,2.2104,2.1178,1.9886,1.931,1.9676,2.0857,2.0393,2.1072,2.2694,2.2084,2.2188,2.2739,2.169,2.1301,2.143,2.0674,2.0605,2.0922,2.0503,2.0747,2.1376,2.1778,2.2287,2.2912,2.3764,2.4263,0.0,0.0,0.0,2.6679,2.6771,2.7959,2.9199,2.9066,0.0,3.3923,0.0,3.8606,3.8228,0.0,0.0,3.8976,0.0,4.0284,4.1258,4.1323,4.1323,4.1427,4.1754,4.1194,4.1166,4.2576,4.1436,4.1093,4.2879,4.1758,4.0835,4.0835,4.0008,3.92,3.8565,3.82,3.7951,3.7844,3.7413,3.7043,3.6758,3.649,3.6497,3.6805,3.6583,3.6375,3.6185,3.5159,3.416,3.3302,3.3689,3.3868,3.385,3.4165,3.4123,3.3902,3.3902,3.3902,3.3928,3.4123,3.4246,3.4458,3.5647,3.5533,3.4888,0.0,0.0,0.0,0.0,0.0,0.0,0.0,0.0,0.0,0.0,0.0,0.0,0.0,0.0,0.0,2.446,2.2513,2.0655,1.9112,1.9829,2.0444,2.0654,2.1887,2.2395,2.2132,2.1193,2.028,1.9442,1.849,1.8462,1.9329,1.9399,2.0804,2.3218,2.3193,2.3386,2.3626,2.3114,2.269,2.2244,2.1568,2.1196,2.0991,2.099,2.1417,2.2085,2.2623,2.3196,2.3748,2.4279,2.4629,2.4848,2.5011,0.0,0.0,0.0,2.8084,2.9816,3.1204,3.267,3.4697,0.0,3.8994,3.8683,3.9064,0.0,3.8394,3.7835,3.8564,3.9549,4.0281,4.0432,4.0478,4.0609,4.0447,4.0603,4.1476,4.0724,4.0517,4.161,4.1073,4.063,4.0668,3.9456,3.8711,3.8788,3.7442,3.6541,3.6427,3.5533,3.4766,3.4186,3.4222,3.4733,3.5733,3.5619,3.5405,3.5106,3.3913,3.3293,3.3214,3.339,3.3447,3.3476,3.3831,3.3902,3.3807,3.3807,3.3876,3.4043,3.4152,3.4405,3.4793,3.5397,3.5321,3.5001,0.0,0.0,0.0,0.0,0.0,0.0,0.0,0.0,0.0,0.0,0.0,0.0,0.0,0.0,0.0,0.0,2.2028,2.0027,1.8418,1.9146,1.9812,2.0092,2.1147,2.1638,2.1481,2.0585,1.9614,1.8628,1.7902,1.7731,1.8166,1.9126,2.1005,2.358,2.3979,2.4315,2.4585,2.4415,2.4019,2.3455,2.2687,2.2117,2.1751,2.1824,2.2262,2.2888,2.3454,2.4011,2.4527,2.479,2.4962,2.5088,2.5094,2.5873,0.0,0.0,0.0,0.0,0.0,0.0,3.3477,3.637,3.7379,3.763,0.0,0.0,3.7526,0.0,3.6952,3.7772,3.8979,3.956,3.9819,3.9819,3.9993,4.0176,4.0264,4.0212,4.0178,4.0339,4.0558,4.0624,4.0435,3.9256,3.8576,3.8742,3.6748,3.5406,3.5122,3.3817,3.2882,3.2427,3.2543,3.3495,3.5302,3.5198,3.4805,3.4068,3.2998,3.2681,3.3014,3.3154,3.3225,3.3306,3.3662,3.3842,3.3902,3.3902,3.4068,3.4315,3.4405,3.4696,3.5124,3.542,3.5379,3.5261,0.0,0.0,0.0,0.0,0.0,0.0,0.0,0.0,0.0,0.0,0.0,0.0,2.5167,2.5014,2.4539,2.3448,2.1716,2.0193,1.8934,1.893,1.9473,2.0708,2.1351,0.0,2.0854,2.0785,1.9602,1.7289,1.787,1.8173,1.8209,1.999,2.1724,2.3429,2.3429,2.41,2.5134,2.487,2.4755,2.4625,2.3572,2.3386,2.3698,2.306,2.3293,2.3952,2.4248,0.0,0.0,0.0,0.0,2.5303,2.536,2.6001,2.6715,0.0,0.0,0.0,0.0,2.8268,0.0,2.992,3.1446,0.0,0.0,0.0,0.0,3.5987,3.597,3.6252,3.7092,3.855,3.9628,3.9628,3.9632,3.946,3.8975,3.9653,4.0003,3.9446,4.0168,4.0343,3.9453,3.934,3.8694,3.7155,3.6149,3.5113,3.4026,3.2887,3.2483,3.2947,3.273,3.377,3.6211,3.5781,3.4798,3.3238,3.2731,3.2517,3.255,3.3014,3.3335,3.3578,3.3752,3.3935,3.4195,3.4195,3.4379,3.4694,3.4963,3.5069,3.5217,3.6247,3.6128,3.5589,0.0,0.0,0.0,0.0,0.0,0.0,0.0,0.0,0.0,0.0,0.0,0.0,0.0,2.5098,2.3964,2.3363,2.1268,1.9344,1.7819,1.853,1.9179,1.9616,2.0576,2.1019,2.0818,2.0442,1.9854,1.8988,1.8705,1.8879,1.9452,2.1318,2.2833,2.4016,2.4733,2.5297,2.5709,2.5927,2.5765,2.5296,2.5197,2.4705,2.411,2.4153,2.4275,0.0,0.0,0.0,0.0,0.0,0.0,0.0,0.0,0.0,0.0,0.0,0.0,0.0,0.0,0.0,0.0,2.7907,2.9526,3.0921,3.1051,3.2767,3.4308,3.4255,3.485,3.5628,3.6445,3.778,3.8765,3.8765,3.894,3.9242,3.9651,3.9657,3.9723,3.9977,4.0225,4.0203,3.9723,3.9364,3.8681,3.7567,3.675,3.5452,3.3488,3.2622,3.1808,3.0902,3.1501,3.2637,3.4291,3.4361,3.383,3.2745,3.2264,3.2366,3.2983,3.3299,3.3642,3.4,3.4317,3.4461,3.4529,3.4529,3.4718,3.5031,3.5128,3.5268,3.547,3.5859,3.5772,3.5559,0.0,0.0,0.0,0.0,0.0,0.0,0.0,0.0,0.0,2.5735,0.0,0.0,0.0,0.0,2.3408,2.2422,2.0881,1.9494,1.8425,1.909,1.9667,1.9889,2.0499,2.0795,2.0795,2.0231,1.9833,1.966,1.952,1.9778,2.0528,2.2579,2.3869,2.4523,2.5647,2.6177,2.6262,2.6708,0.0,2.6202,0.0,0.0,2.5386,0.0,0.0,0.0,0.0,0.0,0.0,0.0,0.0,0.0,0.0,0.0,0.0,0.0,0.0,0.0,2.5446,0.0,0.0,0.0,0.0,2.7118,2.7886,0.0,3.1963,3.256,3.3582,3.4538,3.507,3.6119,3.7185,3.8059,3.8401,3.8674,3.8975,3.8906,3.8825,3.8819,3.8927,3.8954,3.8782,3.8445,3.7992,3.7405,3.6676,3.5342,3.3213,3.2385,3.1495,3.0453,3.1575,3.2547,3.3196,3.3691,3.3446,3.2484,3.2161,3.2497,3.3346,3.3515,3.395,3.4544,3.4821,3.4909,3.4867,3.488,3.507,3.5328,3.5328,3.543,3.5574,3.5574,3.5535,3.5499,0.0,0.0,0.0,0.0,0.0,0.0,0.0,0.0,2.5356,2.4357,0.0,0.0,0.0,0.0,0.0,2.0736,2.0627,2.0761,2.09,2.0731,2.0979,2.1649,2.1113,2.0809,2.0822,2.0156,1.956,1.9079,2.0232,2.0983,2.1409,2.3724,2.4779,2.4794,2.5899,2.6489,2.6624,0.0,2.7286,2.7322,0.0,2.7625,2.7622,0.0,0.0,0.0,2.7981,2.8049,0.0,2.8154,0.0,0.0,0.0,0.0,0.0,0.0,0.0,0.0,0.0,0.0,0.0,0.0,0.0,0.0,2.3785,0.0,2.9101,3.0934,3.2165,3.2898,3.2839,3.3545,3.4982,3.7464,3.7925,3.7686,3.6791,3.7339,3.7272,3.583,3.627,3.6613,3.6435,3.6566,3.6597,3.6464,3.5795,3.4732,3.317,3.2042,3.1546,3.1759,3.3025,3.3524,3.3148,3.3942,3.3723,3.2484,3.2517,3.2924,3.364,3.364,3.4186,3.5155,3.5168,3.5149,3.5156,3.5259,3.5427,3.5601,3.5601,3.5574,3.5501,3.5515,3.5484,3.5398,0.0,0.0,0.0,0.0,0.0,2.4974,2.4885,2.5465,2.5764,0.0,0.0,0.0,2.5283,2.4379,2.3275,2.1801,2.2219,2.2172,2.1319,2.1727,2.1881,2.1697,2.1113,2.0993,2.1365,2.0361,2.0156,2.0899,2.1728,2.2422,2.297,2.4314,2.4514,2.3722,2.4345,2.4444,2.4201,2.5979,0.0,2.7582,2.8221,2.8299,0.0,0.0,0.0,0.0,0.0,2.7993,2.8147,0.0,2.7566,2.6697,0.0,0.0,0.0,0.0,0.0,0.0,2.1961,0.0,0.0,0.0,0.0,0.0,0.0,0.0,2.6772,2.8328,2.9965,3.111,3.1102,3.232,3.3564,3.4268,3.493,3.5475,3.5855,3.5932,3.5629,3.4721,3.5589,3.5827,3.4666,3.5276,3.5639,0.0,3.5503,3.4831,3.2971,3.1216,3.0481,3.0921,3.1375,3.1683,3.1809,3.261,3.2829,3.2517,3.3028,3.3611,3.4202,3.4566,3.4573,3.4281,3.4578,3.4303,3.3773,3.5067,3.5684,3.5816,3.5816,3.58,3.5788,3.5685,3.4996,3.4033,0.0,0.0,0.0,0.0,0.0,2.5669,2.5926,2.6005,2.6084,0.0,0.0,0.0,2.6088,2.5617,2.4843,2.3542,2.4088,2.423,2.3734,2.3701,2.3718,2.3695,2.2568,2.1923,2.1904,2.096,2.0832,2.1484,2.2732,2.3618,2.4171,2.4831,2.4392,2.3107,2.3257,2.3137,2.2947,2.4944,0.0,0.0,2.8534,0.0,0.0,2.927,2.9222,0.0,0.0,0.0,2.9168,2.9143,2.8345,0.0,0.0,0.0,0.0,0.0,0.0,0.0,0.0,0.0,0.0,0.0,0.0,0.0,2.327,2.4378,2.5541,0.0,2.8852,2.9941,2.9892,3.1023,3.1928,3.1851,3.2138,3.2846,3.4199,3.416,3.373,3.3026,3.3372,3.3292,3.2382,3.2731,3.3094,3.3389,3.3791,3.355,3.2434,3.0731,3.0089,3.0712,3.0619,3.0712,3.1087,3.1872,3.2295,3.2295,3.3195,3.3967,3.4566,3.4532,3.427,3.3758,3.3498,3.2998,3.2438,3.3253,3.3964,3.4609,3.4921,3.472,3.4228,3.4169,3.3121,3.149,0.0,0.0,2.7655,2.7719,2.7079,2.6745,2.7277,2.6847,2.6521,0.0,2.7494,2.7705,2.7047,2.7316,2.7038,2.5799,2.6179,2.6606,2.6879,2.6158,2.5886,2.6255,2.4474,2.3094,2.2256,2.1665,2.1357,2.1368,2.3284,2.44,2.4665,2.4909,2.4027,2.2381,2.2286,0.0,2.2183,2.3921,2.5678,2.7429,2.8625,2.9473,0.0,0.0,3.0472,3.0428,3.0547,3.0554,3.0494,3.0451,2.9387,0.0,0.0,0.0,0.0,0.0,2.3879,0.0,0.0,0.0,0.0,0.0,2.2086,0.0,2.4582,2.4888,2.5192,0.0,2.8212,2.8994,2.8939,2.9703,3.0261,3.0039,2.9693,3.012,3.202,3.2165,3.1769,3.0962,3.052,3.0211,3.0092,2.9831,3.0097,3.1169,3.148,3.1672,3.1791,3.0559,3.0132,3.0785,3.0405,3.033,3.0694,3.1578,3.2022,3.2053,3.3252,3.413,3.4712,3.3861,3.3356,3.306,3.1849,3.1039,3.0528,3.0051,3.0845,3.2414,3.3048,3.2519,3.1407,3.1301,3.0073,2.804,0.0,2.8578,2.8564,2.8564,2.8037,2.7648,2.7766,2.8199,2.7999,2.661,2.6798,2.7503,2.8671,2.8633,2.8386,2.807,2.8524,2.833,2.7163,2.7333,2.6699,2.4974,2.3413,2.24,2.2072,2.0982,2.0933,2.1845,2.3242,2.3688,2.3308,2.3119,2.1827,1.9654,1.99,2.0022,2.0234,2.2571,2.4857,2.6953,2.848,2.9473,3.0042,3.0365,3.049,3.0481,3.0568,3.0594,3.0477,2.9722,2.9023,2.8198,2.6555,2.6238,2.6174,2.4569,2.465,2.5024,0.0,2.3205,2.2908,2.302,2.3149,0.0,2.3893,2.4689,2.5338,0.0,2.6343,2.7207,2.7195,2.8332,2.9168,2.8746,2.8255,2.838,2.9627,3.0232,3.0113,2.893,2.9899,3.0313,2.9331,2.9704,3.026,3.0857,3.1046,3.1333,3.1772,3.0732,3.0181,3.0343,3.0088,3.0003,3.0056,3.1365,3.2129,3.2418,3.3826,3.4467,3.4354,3.3292,3.1847,3.016,2.8888,2.7253,2.5455,2.533,2.7233,3.0171,2.9658,2.9028,2.8219,2.7087,2.5792,2.4178,2.9238,2.9238,2.9285,2.9375,2.8941,2.854,2.8497,2.852,2.8315,2.765,2.7985,2.8635,2.9503,2.9958,3.0128,2.9916,3.0521,3.0463,2.9453,2.8645,2.7681,2.6444,2.3973,2.2432,2.1872,2.0911,2.0491,2.0711,2.2103,2.2428,2.1822,2.1581,2.0559,1.9,1.9137,1.9637,2.0563,2.2482,2.4697,2.7009,2.8196,2.9133,2.9874,3.0062,3.0131,3.0132,3.0337,3.044,3.0432,2.996,2.9317,2.8531,2.7544,2.7024,2.6549,2.5505,2.5333,2.5393,2.4814,2.4514,2.4395,2.4566,2.4763,0.0,0.0,2.5442,2.5559,2.5581,2.6103,2.6555,2.6599,2.7651,2.8302,2.7698,2.7122,2.6478,2.5667,2.6839,2.7536,2.6928,2.8005,2.8621,2.8147,2.8645,2.9233,2.9759,3.0152,3.0554,3.0873,3.0488,3.0222,3.0197,2.9965,2.9851,2.9851,3.135,3.2128,3.2165,3.3369,3.3623,3.2948,3.1161,2.9264,2.7252,2.5346,2.3523,2.1913,2.1383,2.198,2.3454,2.5056,2.4952,2.3756,2.2578,2.1131,1.9273,2.9624,2.9643,2.9696,2.9861,2.9436,2.9049,2.8986,2.8384,2.8144,2.8779,2.9486,2.996,3.0034,3.103,3.1681,3.1632,3.1954,3.2137,3.2097,2.9829,2.826,2.7793,2.4527,2.2299,2.1225,2.0673,2.0048,1.9397,2.0791,2.114,2.0427,2.0466,1.985,1.8873,1.9041,1.9922,2.134,2.2717,2.4846,2.7309,2.8075,2.8888,2.9642,2.9744,2.975,2.9746,3.0035,3.0263,3.0406,3.0406,2.9812,2.9025,2.8698,2.8086,2.7326,2.6667,2.6336,2.6208,2.5974,2.5928,2.6038,2.6354,2.6456,2.6602,0.0,0.0,0.0,2.6324,2.6348,2.6367,0.0,0.0,0.0,2.6806,0.0,0.0,0.0,2.2007,0.0,2.4898,2.6021,2.6941,2.7556,2.7875,2.8312,2.9008,2.942,2.9774,3.0109,3.0191,3.0227,3.0193,2.9887,2.9743,2.9823,3.0944,3.1482,3.1412,3.1911,3.166,3.0744,2.8333,2.6159,2.4127,2.1812,2.0053,1.8685,1.7661,1.6665,1.6171,2.0197,2.0643,1.8896,1.7962,1.6504,1.4458,2.9285,2.9434,2.9434,2.9455,2.8983,2.8578,2.8582,2.8027,2.7994,2.8933,2.9872,3.0449,3.051,3.1378,0.0,0.0,3.2425,3.222,3.3472,3.0622,2.7945,2.5966,2.3315,2.1112,1.9607,1.9486,1.9399,1.9336,2.0289,2.0289,1.9467,2.0224,1.9613,1.8036,1.9397,2.0281,2.0828,2.257,2.5067,2.7871,2.8682,2.9178,2.9454,2.9642,2.9712,2.9731,2.9954,3.022,3.05,3.05,3.0297,2.991,2.9245,2.9233,2.9243,2.8112,2.831,2.8707,2.8069,2.753,2.7328,2.7817,2.7725,2.7539,2.7533,0.0,2.7508,2.6443,0.0,2.6187,2.6385,0.0,0.0,0.0,0.0,0.0,1.8333,1.4977,1.5647,2.2802,2.5188,2.7025,2.895,2.8724,2.8886,2.996,2.9384,2.9457,3.0484,3.0224,3.0089,3.0204,2.9711,2.9593,2.9888,2.9366,2.9419,2.9997,2.8805,2.8028,2.7552,2.5328,2.2923,2.0445,1.9022,1.7011,1.4696,1.3785,1.2803,1.2115,1.586,1.6157,1.4345,1.3337,1.2256,1.0893,2.8993,2.8901,2.8798,2.9319,2.8913,2.8331,2.7824,2.8065,2.8638,2.961,3.0486,3.1294,0.0,0.0,0.0,0.0,0.0,3.3363,0.0,0.0,2.7301,2.5364,2.2092,1.9966,1.9299,1.8787,1.8529,1.8529,1.8911,1.9166,1.9299,1.9683,1.9766,1.9697,2.0065,2.1097,2.268,2.3368,2.5642,2.888,2.9439,3.0136,3.0716,2.9939,2.9511,2.9458,3.0323,3.0578,3.0582,3.1086,3.0769,3.011,2.9604,2.9493,2.9443,2.8766,2.8671,2.8743,2.8587,2.8582,2.8598,2.8502,2.8914,2.9044,2.8054,2.8244,2.833,2.7276,0.0,0.0,0.0,0.0,0.0,0.0,2.5373,2.2004,0.0,0.0,1.2318,1.8918,0.0,0.0,2.8365,2.8534,2.8749,2.9948,2.9214,2.8927,2.9418,2.9688,2.9561,2.8941,2.8626,2.8308,2.7932,2.7122,2.655,2.6207,2.4925,2.3904,2.3128,2.1259,1.9377,1.74,1.536,1.3663,1.2155,1.0789,0.9927,0.9604,1.1523,1.1787,1.1047,0.9999,0.902,0.7791,2.8851,2.8476,2.8214,2.8864,2.8595,2.8107,2.7522,2.831,2.9326,3.0369,3.1411,0.0,3.3295,3.3616,0.0,0.0,3.4569,3.3881,0.0,0.0,2.5319,0.0,0.0,0.0,1.816,1.8037,1.8008,1.8008,1.8008,1.8462,1.9309,1.9562,2.0054,2.0784,2.0792,2.1864,2.3689,2.406,2.6387,2.9819,3.0357,3.1166,3.1853,3.0406,2.9609,2.9439,3.0742,3.1058,3.0989,3.1884,3.1395,3.0347,3.014,2.9665,2.9164,2.8961,2.885,2.8799,2.8799,2.9205,2.9513,2.908,2.9593,2.9921,2.8802,2.883,2.887,2.8086,2.7189,0.0,0.0,0.0,2.689,2.682,0.0,2.1791,0.0,0.8394,0.0,0.0,1.4061,0.0,0.0,2.7776,2.7818,2.8909,2.7112,2.6605,2.8067,2.7589,2.7363,2.7582,2.7211,2.6526,2.5576,2.4269,2.3113,2.2101,2.0387,1.9349,1.8841,1.7446,1.5999,1.4605,1.2702,1.1262,1.0067,0.8617,0.7923,0.7946,0.8164,0.8198,0.799,0.7536,0.6685,0.56,2.8851,2.8356,2.7827,2.7846,2.7827,2.7877,2.805,2.8816,2.9833,0.0,0.0,0.0,0.0,0.0,0.0,0.0,0.0,3.3104,3.2681,0.0,2.127,0.0,0.0,1.612,0.0,1.7051,1.8008,1.8008,1.8008,1.8462,1.9299,2.0139,2.0437,2.0274,2.1629,2.2339,2.2672,2.4351,2.7155,3.0561,3.1479,3.2126,3.2422,3.1089,3.0186,2.9841,3.1053,3.16,3.1897,3.2832,3.2136,3.0886,3.0932,2.9934,2.872,2.872,2.9213,2.9614,2.8967,2.9335,2.9858,2.9705,2.9558,2.9517,2.9865,2.9653,2.9205,2.8602,2.8094,2.7896,2.8379,2.8335,2.7913,2.6963,2.5623,0.0,0.0,0.0,0.0,-0.1086,0.8321,0.0,0.0,2.6441,2.5842,2.6637,2.2114,2.1546,2.6685,2.3217,2.2766,2.6422,2.5532,2.4426,2.3233,2.0636,1.8973,1.8341,1.5171,1.4174,1.503,1.4128,1.3091,1.1911,1.1676,1.0374,0.8228,0.7346,0.7047,0.7091,0.6408,0.5582,0.4993,0.5906,0.56,0.4453,2.9212,2.8913,2.8594,2.8594,2.8154,2.7993,2.8596,3.0144,0.0,0.0,3.5162,0.0,0.0,3.7698,3.7302,0.0,0.0,3.159,2.883,2.2091,0.0,0.0,0.0,1.3848,0.0,0.0,1.7821,1.9363,1.9065,1.9788,2.1529,2.1464,2.1497,2.1592,2.1731,2.243,2.3615,2.4533,2.6816,3.0023,3.2162,3.3126,3.3184,3.2451,3.1366,3.0406,3.1602,3.1592,3.1191,3.2448,3.1602,3.0163,3.0847,3.0163,2.9173,2.9514,2.9802,2.9977,2.9882,3.0474,3.0937,3.0327,3.0513,3.0623,2.9729,2.947,2.9235,2.8672,2.8127,2.798,2.8762,2.8685,2.8376,2.8,2.7089,2.2617,0.0,-0.1913,-0.8389,-0.2057,0.7778,1.7047,0.0,0.0,0.0,2.7394,2.2773,2.1179,2.4021,2.0447,1.9338,2.1588,2.088,2.0278,1.98,1.6882,1.5027,1.4228,1.1794,1.0843,1.1224,1.155,1.115,1.0114,1.0007,0.8699,0.6694,0.5532,0.479,0.4311,0.4054,0.3825,0.3746,0.4833,0.4135,0.2347,3.0195,2.981,2.9255,2.8686,2.8467,2.8941,3.0618,0.0,0.0,0.0,3.7579,0.0,4.0034,0.0,3.822,0.0,3.4488,3.1154,2.6603,1.9486,0.0,1.5201,1.132,0.0,0.0,0.0,0.0,2.1319,2.0764,2.1403,2.3164,2.2099,2.174,2.2008,2.1855,2.2784,2.4475,2.52,2.7444,3.0818,3.32,3.412,3.4039,3.3846,3.2684,3.1314,3.2551,3.2537,3.2087,3.3218,3.2218,3.0622,3.117,3.0366,2.9251,2.9597,2.9996,3.0328,3.0327,3.0939,3.1405,3.0802,3.0916,3.0865,2.9725,2.9266,2.8984,2.8593,2.7967,2.7817,2.8879,2.8985,2.8795,2.8499,2.7725,2.2868,0.0,-0.2401,-0.7874,-0.0489,0.5394,1.2626,2.2303,2.4827,2.5418,2.4428,2.0723,1.8593,1.8799,1.5745,1.5073,1.7545,1.7479,1.7021,1.622,1.3746,1.1859,1.0605,0.8978,0.8389,0.8765,0.9437,0.9362,0.8756,0.8615,0.74,0.539,0.4656,0.3715,0.2869,0.2969,0.2777,0.2657,0.3361,0.2267,0.0235,3.1672,3.0997,2.9861,2.8356,2.8915,3.0648,0.0,0.0,3.6942,0.0,3.9879,4.0258,4.0672,4.0199,3.918,3.7576,3.524,3.1529,2.6049,1.8209,0.0,0.0,0.6871,0.8064,1.086,0.0,0.0,0.0,2.3119,2.3268,2.4075,2.2116,2.1314,2.163,2.2252,2.3491,2.529,2.6346,2.9045,3.2713,3.4351,3.493,3.4824,3.51,3.4032,3.2582,3.3832,3.4277,3.4335,3.4932,3.3809,3.2144,3.1937,3.0589,2.9151,2.9168,2.9935,3.0732,3.0406,3.0836,3.1329,3.1147,3.0767,3.0304,2.9762,2.9125,2.8594,2.832,2.7674,2.7544,2.8691,2.9147,2.9164,2.8496,2.7373,2.2112,0.9276,0.3473,0.1209,0.298,0.1579,0.5986,1.9987,2.2927,2.2264,1.8185,1.5915,1.3749,1.1527,0.9264,0.9935,1.4118,1.5186,1.4651,1.2505,1.1215,0.9622,0.7783,0.6795,0.6795,0.7706,0.7783,0.7783,0.7698,0.7509,0.6311,0.4448,0.4373,0.3699,0.2803,0.2866,0.2345,0.1489,0.1489,0.0235,-0.1651,3.2045,3.1898,3.2045,3.2228,3.2149,3.2697,3.4544,0.0,0.0,0.0,4.2077,4.2722,4.2538,4.1928,4.0152,3.6765,3.3088,0.0,0.0,0.0,0.0,-0.0084,0.0668,0.4534,1.1389,1.6369,0.0,2.605,0.0,2.4853,2.5546,2.4098,2.3269,2.2949,2.3541,2.4952,2.6887,2.7856,2.978,3.2168,3.2411,3.2839,3.3479,3.4715,3.478,3.4135,3.4039,3.3777,3.3517,3.3788,3.2917,3.1881,3.2601,3.1903,3.0881,3.1426,3.1951,3.2273,3.1966,3.2192,3.2301,3.1451,3.1151,3.0684,2.9225,2.911,2.8831,2.6977,2.7515,2.8098,2.7487,2.8362,2.895,2.823,2.4717,2.0237,1.4935,0.7563,0.3814,0.6785,0.5624,0.8429,1.8247,2.0814,2.0665,1.7753,1.2414,0.914,0.8706,0.4278,0.3534,0.7506,0.8885,0.9597,0.9597,0.8896,0.83,0.7783,0.6795,0.6412,0.6718,0.748,0.7403,0.6714,0.6565,0.539,0.3403,0.2634,0.1707,0.0778,0.0782,0.0627,0.0392,0.0392,-0.047,-0.173,3.3658,3.3938,3.4357,3.4816,3.4924,3.5362,3.6611,3.7644,0.0,4.1452,4.2668,0.0,4.2264,4.1597,3.9845,3.6428,3.2593,0.0,2.3835,0.0,0.0,0.0177,0.0788,0.4206,1.0286,1.76,0.0,2.706,0.0,2.6623,2.6662,2.5113,2.4327,2.4281,2.5014,2.6562,2.8687,2.965,3.0353,3.0794,3.0576,3.0881,0.0,3.3302,3.3959,3.4085,3.4367,3.4374,3.4244,3.4198,3.3599,3.2955,3.3438,3.3033,3.2411,3.2762,3.3121,3.3372,3.3203,3.3201,3.3016,3.2204,3.1575,3.0731,2.9206,2.8715,2.8104,2.6474,2.6627,2.6943,2.6392,2.7114,2.7671,2.7277,2.3971,2.0251,1.6833,1.1607,0.8139,0.8163,0.808,0.9602,1.3575,1.6795,1.6604,1.1682,0.5471,0.2026,0.2284,0.03,0.0517,0.3584,0.5955,0.7516,0.8111,0.7834,0.7736,0.7897,0.6828,0.6521,0.7047,0.713,0.7099,0.6868,0.5918,0.4595,0.3046,0.2035,0.0941,0.0,0.0,0.0,0.0,0.0,-0.0717,-0.176,3.5675,3.6273,3.6537,3.6389,3.7198,3.8188,3.9212,3.9296,3.997,4.1977,0.0,4.2404,4.1069,4.0345,3.8857,3.6,3.269,2.8748,2.3981,1.7255,1.0659,0.425,0.4114,0.5247,0.7632,1.8327,2.5039,0.0,0.0,2.8271,2.7715,2.5795,2.5232,2.5967,2.6757,2.8356,3.0498,3.1193,3.0567,2.9104,2.8824,2.9106,2.9839,3.132,3.2343,3.312,3.4388,3.5136,3.5512,3.5284,3.4937,3.4534,3.428,3.3979,3.3715,3.352,3.3818,3.4168,3.4054,3.3808,3.3442,3.2865,3.1812,3.0572,2.9255,2.8109,2.7104,2.6217,2.5574,2.5246,2.5427,2.58,2.6061,2.5968,2.4106,2.1195,1.7015,1.4881,1.2365,0.8618,0.9368,0.0,0.7717,1.178,1.1388,0.3811,-0.1678,-0.4674,-0.4661,-0.2755,-0.0735,0.1287,0.4717,0.6797,0.7335,0.7297,0.7479,0.7807,0.6791,0.6876,0.7961,0.6787,0.6872,0.7706,0.5458,0.3984,0.3046,0.1879,0.0941,0.0236,0.0236,0.0239,0.0243,0.0245,-0.0489,-0.1553,3.6173,3.7043,3.7746,0.0,3.8395,4.0018,4.0633,4.1282,4.2127,4.3335,4.4214,4.3794,4.1243,4.0391,3.8184,3.3648,3.1029,0.0,0.0,0.0,0.0,0.5829,0.4789,0.3828,0.2588,1.2939,2.1537,0.0,0.0,2.9193,2.897,2.756,2.7514,2.8634,2.9404,3.0525,3.1785,3.0737,2.9506,2.818,2.7519,2.7689,2.8474,2.9881,3.1135,3.2264,3.2721,3.396,3.5338,3.5226,3.5148,3.5038,3.4773,3.4592,3.4497,3.4467,3.4508,3.4522,3.4236,3.3882,3.3313,3.2102,3.1345,3.0335,2.8217,2.7976,2.7542,2.5149,2.5437,2.5758,2.4524,2.5227,2.573,2.4773,2.3077,2.1242,1.9442,1.498,1.1735,1.1378,0.9646,0.7327,0.4351,0.7244,0.7244,0.2279,-0.0758,-0.3098,-0.475,-0.4306,-0.2968,-0.0648,0.2244,0.4227,0.522,0.6063,0.6613,0.6788,0.6482,0.6876,0.7961,0.6787,0.6872,0.7625,0.4675,0.3279,0.2968,0.1097,0.0706,0.1335,0.1282,0.1359,0.1347,0.1316,0.066,-0.0491,3.8104,3.8018,0.0,0.0,3.9156,4.032,4.1015,4.2139,4.2758,4.2275,4.2661,4.2046,3.9551,3.935,3.7715,3.3521,3.0777,2.7419,2.3051,1.832,1.3003,0.7238,0.3946,0.1247,-0.0896,1.132,2.0209,2.5273,2.8622,3.0157,3.0038,2.9534,2.9849,3.0837,3.1678,3.2062,3.1977,2.9991,2.8363,2.6991,2.5583,2.5374,2.61,2.7373,2.8444,2.9376,3.0261,3.1446,3.2836,3.4344,3.5098,3.5444,3.5321,3.5295,3.5262,3.5037,3.4784,3.4454,3.3813,3.3214,3.2393,3.0805,2.9897,2.8933,2.724,2.6788,2.6217,2.4616,2.4754,2.4826,2.3834,2.4141,2.4358,2.3706,2.1426,1.9145,1.742,1.2659,0.9255,0.8954,0.7048,0.4807,0.2431,0.3192,0.2169,-0.1873,-0.3461,-0.459,-0.5387,-0.512,-0.3771,-0.1302,0.0953,0.272,0.3884,0.4886,0.573,0.6475,0.6356,0.6876,0.7961,0.6787,0.6872,0.7625,0.4441,0.3124,0.2968,0.0862,0.0314,0.0785,0.0795,0.0798,0.0801,0.0737,0.0413,-0.0166,4.0119,3.9265,3.8733,3.911,3.9663,4.0294,4.0917,4.2194,4.2647,4.1339,4.1262,4.0436,3.8212,3.8344,3.7217,3.373,3.0732,2.7217,2.3051,1.8289,1.3443,0.8631,0.3531,0.0729,0.0338,1.1056,1.9044,0.0,0.0,3.1141,3.1307,3.1403,3.1887,3.2683,3.3473,3.3169,3.1892,2.9776,2.7863,2.616,2.4381,2.3863,2.415,2.4967,2.5703,2.6487,2.7431,2.8396,2.9535,3.1853,3.3703,3.5059,3.5193,3.5201,3.5053,3.4529,3.3994,3.3323,3.2237,3.1396,3.0418,2.8692,2.7643,2.6778,2.5582,2.4824,2.4258,2.3891,2.3647,2.3354,2.27,2.2613,2.2482,2.1901,1.9191,1.6385,1.4232,1.0066,0.704,0.6406,0.5057,0.3714,0.2519,0.1203,-0.0906,-0.4216,-0.5388,-0.5882,-0.5696,-0.4822,-0.3262,-0.079,0.0642,0.1996,0.3356,0.4171,0.509,0.6071,0.6228,0.6876,0.7961,0.6787,0.6714,0.731,0.4363,0.2812,0.2345,0.0706,0.0157,0.0314,0.0314,0.0318,0.0323,0.0323,0.0163,-0.0167,4.1378,4.1051,4.0658,3.9577,4.0093,4.0613,4.0655,4.1387,4.215,4.2642,4.2697,4.1708,3.9053,3.8115,3.6304,3.2988,2.9809,2.6529,2.3061,1.8289,1.3984,1.0265,0.5322,0.54,1.1063,1.0966,1.6451,0.0,0.0,3.2083,3.3337,3.2794,3.3101,3.4121,3.4445,3.3695,3.2097,3.0851,2.8766,2.6242,2.5368,2.4705,2.4231,2.3535,2.4066,2.5075,2.4409,2.5032,2.6138,2.6425,2.9358,3.2991,3.3516,3.3268,3.2588,3.1871,3.1083,3.0074,2.855,2.7604,2.6675,2.524,2.4503,2.3751,2.2418,2.2042,2.2053,2.2113,2.2111,2.1708,2.0373,2.0529,2.0308,1.8549,1.6234,1.384,1.1667,0.8656,0.6885,0.7444,0.6617,0.5957,0.5989,0.3562,0.1321,-0.025,-0.2665,-0.4356,-0.4975,-0.2893,-0.0764,0.1255,0.1463,0.2509,0.4382,0.4603,0.479,0.502,0.5918,0.6876,0.7961,0.6787,0.6321,0.621,0.4051,0.2033,0.0314,0.0079,0.0549,0.1411,0.1411,0.1413,0.1415,0.1415,0.0867,0.0,4.2473,4.1186,4.0251,4.0413,4.013,4.0053,4.0534,4.1296,4.1622,4.1121,4.1459,4.0871,3.8495,3.7411,3.5469,3.1911,2.9389,2.6132,2.2061,1.864,1.4839,1.0536,0.6635,0.5993,0.8956,0.8923,1.4372,2.5641,3.0144,3.2889,3.3965,3.3916,3.4298,3.5011,3.4876,3.4414,3.3583,3.1615,2.971,2.7866,2.598,2.452,2.3454,2.2628,2.2372,2.2237,2.1337,2.1643,2.24,2.2184,2.5584,2.9915,2.9626,2.9704,2.9576,2.7998,2.7027,2.6127,2.4402,2.3975,2.3674,2.2255,2.2243,2.2261,2.1249,2.1043,2.1055,2.1101,2.1101,2.0778,1.9629,1.9308,1.8742,1.7222,1.4659,1.2569,1.1528,0.863,0.691,0.7746,0.6117,0.4887,0.4962,0.3001,0.1231,0.0191,-0.1947,-0.3023,-0.2758,-0.1816,-0.0687,0.0629,0.0653,0.0979,0.18,0.2503,0.2864,0.2958,0.3891,0.4626,0.505,0.4623,0.4057,0.3431,0.2579,0.1332,0.0,0.0,0.0235,0.0628,0.0628,0.0633,0.0641,0.0641,-0.0081,-0.1063,4.3173,4.123,3.986,4.0588,3.9668,3.9043,3.9676,4.024,4.0309,3.9358,3.9733,3.9373,3.761,3.6014,3.3891,3.0808,2.8379,2.5435,2.1854,1.8962,1.5667,1.1833,0.8158,0.6142,0.6119,1.0637,1.6602,2.41,3.0296,3.3761,3.4585,3.5169,3.565,3.6024,3.5681,3.5366,3.4996,3.326,3.1316,2.9281,2.7159,2.4969,2.288,2.1904,2.0824,1.9695,1.8787,1.8563,1.8778,1.8506,2.1225,2.4837,2.5249,2.5703,2.5636,2.362,2.2579,2.1701,1.9936,1.9727,1.9839,1.886,1.9415,2.0061,1.9564,1.9661,1.9824,1.9824,1.9792,1.9564,1.8609,1.7863,1.7035,1.5996,1.3688,1.1779,1.1129,0.8517,0.7068,0.7882,0.5832,0.4692,0.5528,0.352,0.2007,0.1636,-0.0269,-0.1293,-0.0938,-0.0946,-0.0549,0.035,0.0145,0.015,0.0392,0.1176,0.1586,0.1624,0.2609,0.2966,0.265,0.2025,0.1325,0.0625,0.0626,0.0236,-0.0476,-0.0157,0.0,0.0,0.0,0.0,0.0,0.0,-0.0746,-0.176,4.3332,4.1483,3.9964,3.9844,3.8502,3.7551,3.7776,3.7863,3.7863,3.7806,3.7806,3.7451,3.652,3.3871,3.1469,2.9643,2.6687,2.433,2.3075,1.9276,1.6468,1.513,1.0092,0.6539,0.4869,1.779,2.4673,2.479,3.1156,3.4702,3.5505,3.6651,3.7223,3.728,3.7141,3.6694,3.6084,3.6066,3.3723,2.9993,2.925,2.6582,2.282,2.1192,1.9488,1.7794,1.6954,1.607,1.5226,1.5226,1.5852,1.7149,2.0712,2.1457,2.0641,1.8808,1.7781,1.6792,1.5054,1.4664,1.479,1.4781,1.5713,1.6627,1.6627,1.7354,1.8008,1.8008,1.7997,1.7668,1.6757,1.586,1.511,1.4616,1.3123,1.1424,0.9832,0.8153,0.7283,0.7867,0.6359,0.6362,0.9069,0.6211,0.4522,0.5395,0.2992,0.1063,0.0067,0.0,0.035,0.1258,0.0442,0.0383,0.1254,0.1489,0.1586,0.1624,0.2609,0.2572,0.1554,-0.0544,-0.1554,-0.1555,-0.1563,-0.1589,-0.1458,-0.0476,0.0,0.0,0.0,0.0,0.0,0.0,-0.0756,-0.176,4.2057,4.0788,3.9542,3.8597,3.7987,3.7527,3.7037,3.7456,3.7573,3.7024,3.6399,3.5685,3.4727,3.3107,3.1082,2.8614,2.6206,2.3998,2.1975,2.0439,1.8185,1.5212,1.3063,1.0595,0.7685,1.9351,2.5839,2.6496,3.1971,3.522,3.6344,3.67,3.7068,3.7426,3.7403,3.7544,3.7771,3.6023,3.4091,3.19,2.8951,2.581,2.2623,2.0497,1.8532,1.6729,1.4451,1.3845,1.3947,1.2611,1.2371,1.2811,1.3964,1.5477,1.6276,1.3742,1.2777,1.2315,1.0974,1.1567,1.266,1.2778,1.4117,1.5334,1.559,1.5869,1.6088,1.6088,1.6062,1.5764,1.4799,1.3845,1.2862,1.2013,1.0661,0.9447,0.8845,0.7584,0.7127,0.8026,0.6007,0.518,0.6786,0.5416,0.4506,0.4785,0.3391,0.2002,0.0966,0.0354,0.0144,0.0432,0.0151,0.0156,0.0392,0.0479,0.0484,0.0488,0.0872,0.0394,-0.0799,-0.2275,-0.2947,-0.2947,-0.2133,-0.1731,-0.166,-0.0495,0.0,0.0,0.0,0.0,0.0,0.0,-0.13,-0.3063,4.0902,3.9547,3.8339,3.7483,3.7115,3.6768,3.629,3.6585,3.6768,3.6228,3.5359,3.4368,3.3459,3.1636,2.9579,2.7284,2.515,2.3272,2.1886,2.0976,1.9488,1.7139,1.5043,1.3257,1.2109,2.0363,2.5308,2.6597,3.2396,3.5857,3.7025,3.7294,3.7674,3.8098,3.8098,3.8393,3.8704,3.6676,3.4747,3.2788,2.9296,2.5863,2.2573,2.0123,1.7909,1.5781,1.3548,1.2924,1.3018,1.1761,1.1087,1.0765,1.0302,1.107,1.1754,0.994,0.9291,0.906,0.8314,0.8959,1.0107,1.1083,1.2393,1.3797,1.4796,1.5134,1.5234,1.5234,1.4879,1.445,1.3818,1.2618,1.142,1.0749,0.9564,0.8574,0.7996,0.6658,0.6165,0.7137,0.5111,0.4275,0.5706,0.5362,0.4924,0.4556,0.3563,0.2298,0.0729,0.0221,0.0,0.0,0.0,0.0,0.0,0.0,0.0,0.0,-0.0876,-0.1838,-0.2997,-0.4227,-0.4772,-0.4691,-0.3632,-0.3137,-0.2883,-0.136,-0.0688,-0.061,-0.0173,0.0,-0.009,-0.0536,-0.198,-0.3742,3.9748,3.7915,3.6461,3.6338,3.5721,3.5294,3.5294,3.5294,3.5294,3.5294,3.4409,3.3449,3.2593,2.9682,2.716,2.5835,2.3742,2.2539,2.251,2.1128,2.0289,2.0205,1.6121,1.5027,1.7582,2.1193,2.4051,2.613,3.281,3.6572,3.7539,3.8285,3.8789,3.9072,3.9016,3.8951,3.8868,3.7642,3.5536,3.2713,2.9982,2.6442,2.2513,2.0048,1.7484,1.5021,1.3875,1.2945,1.2298,1.2224,1.1539,1.0593,0.9469,0.8363,0.747,0.731,0.707,0.6873,0.6716,0.6852,0.7446,0.938,1.0679,1.2044,1.401,1.4718,1.4988,1.4988,1.4219,1.36,1.3528,1.197,1.0627,1.0437,0.9518,0.8423,0.7185,0.5514,0.4711,0.5544,0.4089,0.3832,0.5819,0.6061,0.5607,0.4626,0.3557,0.1955,-0.0235,-0.0308,-0.0231,-0.0158,-0.0161,-0.0082,0.0,0.0,0.0,-0.0157,-0.2328,-0.3893,-0.4955,-0.616,-0.6649,-0.6569,-0.5672,-0.5117,-0.4688,-0.2693,-0.1782,-0.157,-0.0454,0.0,-0.019,-0.1398,-0.262,-0.3976,3.7367,3.6183,3.5091,3.379,3.3435,3.3255,3.3255,3.3255,3.3255,3.3255,3.2464,3.1742,3.1536,2.8423,2.5777,2.4551,2.3568,2.2852,2.2539,2.1849,2.1089,2.0205,1.8701,1.8792,2.0764,2.3821,2.8033,3.3414,3.5762,3.722,3.7809,3.7783,3.8143,3.8785,3.814,3.7679,3.7262,3.6005,3.4034,3.148,2.87,2.5714,2.2429,1.9275,1.6853,1.4871,1.2398,1.1835,1.215,1.1391,1.1013,1.0593,0.9469,0.8264,0.7036,0.5419,0.4923,0.4855,0.4751,0.5186,0.6089,0.7432,0.9119,1.0729,1.1909,1.2445,1.2671,1.2671,1.2646,1.2432,1.1601,1.0484,0.9309,0.826,0.7208,0.6384,0.5854,0.4909,0.4596,0.5596,0.4938,0.4963,0.6274,0.6366,0.5934,0.49,0.2902,0.1128,-0.0164,-0.1803,-0.2298,-0.1404,-0.1351,-0.0941,0.0,0.0,-0.0409,-0.1255,-0.2775,-0.407,-0.5069,-0.6395,-0.6508,-0.5632,-0.4509,-0.3489,-0.2451,-0.1075,-0.0456,-0.0378,-0.0093,0.0,-0.0191,-0.1515,-0.2745,-0.3984,3.6091,3.4515,3.3213,3.2037,3.2009,3.209,3.1906,3.228,3.2593,3.2593,3.1742,3.118,3.118,2.818,2.5783,2.4919,2.3118,2.1938,2.1712,2.1231,2.1237,2.1603,2.0616,2.1715,2.5043,2.6823,3.0515,3.6274,3.6485,3.6809,3.7176,3.7406,3.7533,3.7606,3.7514,3.7058,3.6176,3.49,3.3176,3.1067,2.8323,2.543,2.2501,1.9501,1.7358,1.55,1.3055,1.2498,1.2806,1.1835,1.1162,1.057,0.9336,0.7923,0.6294,0.4148,0.3766,0.4026,0.3563,0.3742,0.4483,0.5903,0.8171,1.0209,1.0572,1.1279,1.1793,1.128,1.1424,1.1316,1.0265,0.9291,0.8328,0.7414,0.6144,0.529,0.5498,0.4402,0.418,0.5835,0.536,0.5371,0.6478,0.6512,0.5882,0.4349,0.237,0.0409,-0.161,-0.3482,-0.3655,-0.1873,-0.1809,-0.1209,0.0,0.0,-0.0567,-0.1594,-0.2968,-0.3872,-0.4337,-0.5717,-0.5654,-0.4529,-0.3934,-0.3328,-0.2525,-0.1402,-0.0852,-0.0771,-0.0191,-0.0385,-0.1074,-0.232,-0.3678,-0.4964,3.475,3.2736,3.1087,3.0559,3.0714,3.0894,3.067,3.1409,3.2006,3.2177,3.1462,3.097,3.097,2.8457,2.6538,2.5936,2.3327,2.1541,2.1225,2.0903,2.1646,2.369,2.2852,2.4616,2.9486,3.0432,3.2788,3.6651,3.6346,3.6267,3.638,3.7008,3.7,3.6486,3.685,3.6401,3.5249,3.3984,3.2462,3.0626,2.7977,2.521,2.2414,1.9993,1.8041,1.6399,1.4569,1.3818,1.36,1.2806,1.1842,1.0775,0.9296,0.7633,0.5768,0.3411,0.3021,0.3276,0.2678,0.2678,0.3276,0.4926,0.7548,0.9793,0.9644,1.076,1.1585,1.0712,1.0657,1.0484,0.9523,0.8466,0.7668,0.7169,0.5745,0.4913,0.557,0.4324,0.4103,0.6073,0.5624,0.5606,0.6639,0.645,0.5519,0.3615,0.1808,-0.0495,-0.3457,-0.4832,-0.4482,-0.2166,-0.2079,-0.1286,0.0251,0.0242,-0.0319,-0.138,-0.2737,-0.3306,-0.3379,-0.4526,-0.4439,-0.3319,-0.3482,-0.3328,-0.2959,-0.2034,-0.1663,-0.1378,-0.0393,-0.0694,-0.1909,-0.3259,-0.4658,-0.5914,3.1478,3.0183,2.932,2.8395,2.795,2.8115,2.897,2.8986,2.911,3.0126,3.0075,2.9998,2.9998,2.8755,2.7452,2.6285,2.6177,2.5505,2.3764,2.3811,2.4437,2.5768,2.7055,2.9237,3.2539,3.5737,3.7064,3.6453,3.7196,3.7282,3.6624,3.651,3.678,3.7239,3.5612,3.4569,3.393,3.2879,3.1024,2.8592,2.6495,2.4269,2.1931,1.9372,1.7825,1.6731,1.5452,1.445,1.3673,1.3528,1.2872,1.1717,0.9717,0.8246,0.6694,0.3765,0.1771,0.0734,0.1339,0.2611,0.401,0.5061,0.6815,0.8516,0.9209,1.047,1.1427,1.1283,1.1044,1.0484,0.9523,0.8466,0.7483,0.6388,0.5989,0.5792,0.5789,0.5787,0.5896,0.6254,0.645,0.6695,0.6892,0.592,0.4801,0.3619,0.0504,-0.2016,-0.3545,-0.5442,-0.5518,-0.3376,-0.3293,-0.1784,0.1307,0.1378,0.0808,-0.0242,-0.1491,-0.2543,-0.3295,-0.3694,-0.3215,-0.2125,-0.2075,-0.1537,-0.0585,-0.0385,-0.0293,-0.0301,-0.0099,-0.0099,-0.0605,-0.3106,-0.4107,-0.4616,3.0409,2.904,2.803,2.7295,2.6875,2.6813,2.774,2.8011,2.8518,2.9624,2.9792,2.9792,2.9792,2.9201,2.8795,2.8651,2.9263,2.9737,2.984,2.8407,2.8131,2.9665,3.099,3.2756,3.5021,3.7383,3.7713,3.5917,3.6085,3.5812,3.515,3.5465,3.5569,3.5477,3.4752,3.3734,3.2512,3.137,2.9518,2.7155,2.5517,2.3528,2.1455,1.9479,1.8323,1.7631,1.6093,1.547,1.5084,1.4027,1.3382,1.2597,0.9902,0.8346,0.6909,0.3783,0.1162,-0.0602,-0.0201,0.0869,0.2202,0.3535,0.5574,0.7478,0.8415,1.0062,1.1286,1.0723,1.0286,0.97,0.8754,0.7696,0.6846,0.6242,0.517,0.4803,0.5785,0.5196,0.5129,0.6398,0.6753,0.6959,0.7034,0.5858,0.4697,0.3635,0.0251,-0.2331,-0.3545,-0.5594,-0.5754,-0.3637,-0.1777,0.0,0.1625,0.2162,0.1851,0.0824,-0.0333,-0.1115,-0.1526,-0.2286,-0.1961,-0.086,-0.0867,-0.0489,0.0,0.0,0.0,0.0,0.0,-0.0398,-0.1292,-0.3303,-0.4489,-0.5445,2.9589,2.8025,2.6876,2.6993,2.6647,2.6551,2.7521,2.7929,2.8518,2.9624,2.9792,2.9856,3.0075,3.0126,3.0581,3.1504,3.2673,3.3895,3.5194,3.3836,3.3224,3.3902,3.4892,3.6015,3.7222,3.8112,3.758,3.5586,3.5325,3.4789,3.41,3.4641,3.453,3.3945,3.3679,3.2703,3.1076,2.9683,2.7856,2.5864,2.4353,2.2604,2.0754,1.9437,1.8642,1.8142,1.6741,1.6369,1.6349,1.4665,1.3882,1.3186,1.0402,0.863,0.6974,0.4167,0.096,-0.1608,-0.134,-0.0669,0.0467,0.2274,0.465,0.6885,0.7882,0.9831,1.123,1.052,0.9789,0.9115,0.8492,0.7273,0.6363,0.6363,0.4776,0.4024,0.5567,0.4575,0.438,0.6133,0.6685,0.6883,0.6724,0.5477,0.429,0.3238,0.0082,-0.2134,-0.3151,-0.4921,-0.4984,-0.3217,0.0165,0.1942,0.1931,0.2997,0.2961,0.1928,0.1093,0.061,0.0462,-0.0186,-0.0095,0.049,0.0098,-0.0199,-0.0504,-0.0807,-0.0907,-0.0907,-0.0605,-0.1096,-0.2156,-0.3491,-0.4858,-0.6349,2.7988,2.6404,2.5665,2.7744,2.7327,2.7291,2.9157,2.8656,2.8518,2.9624,2.9792,3.0139,3.097,3.1667,3.2709,3.4189,3.6532,3.766,3.7061,3.9996,4.0615,3.799,3.8893,3.9381,3.9192,3.903,3.7936,3.5883,3.6328,3.598,3.4899,3.457,3.4418,3.4248,3.2123,3.0695,2.9782,2.7734,2.5923,2.4326,2.2663,2.1104,1.9626,1.8714,1.8154,1.7781,1.7412,1.7015,1.6428,1.5438,1.445,1.3368,1.1279,0.9295,0.7236,0.5132,0.1108,-0.241,-0.1541,-0.0669,0.0467,0.2274,0.465,0.692,0.8076,0.9962,1.1503,1.1706,1.0565,0.9438,0.9375,0.7938,0.6668,0.6668,0.5579,0.4824,0.4992,0.4997,0.5069,0.5173,0.6224,0.6497,0.5634,0.4244,0.2991,0.2038,-0.0244,-0.1706,-0.1953,-0.2863,-0.283,-0.1816,0.1362,0.2964,0.2976,0.4066,0.4079,0.3016,0.3251,0.2831,0.185,0.3067,0.2925,0.1762,0.0497,-0.0702,-0.1913,-0.3215,-0.3715,-0.3615,-0.2314,-0.1891,-0.2156,-0.3491,-0.4845,-0.6412,2.6433,2.6314,2.6856,2.9182,2.8865,2.8951,3.0561,2.9935,2.9699,3.0771,3.0943,3.1397,3.2653,3.392,3.529,3.6816,3.8891,3.9853,3.9105,4.0562,4.1252,4.0804,4.1104,4.0476,3.875,3.8613,3.7456,3.5167,3.5067,3.4633,3.3862,3.3051,3.2648,3.2579,3.0666,2.9353,2.855,2.6624,2.4699,2.2812,2.1479,2.0201,1.902,1.8043,1.7874,1.8059,1.6863,1.6514,1.6349,1.4807,1.4027,1.3222,1.0708,0.9273,0.7784,0.3914,0.0997,-0.0985,-0.1198,-0.1029,-0.0201,0.2187,0.4904,0.7172,0.8299,1.0343,1.2004,1.2111,1.0894,0.9777,0.9922,0.8193,0.6476,0.5794,0.473,0.3853,0.3769,0.333,0.3288,0.3894,0.4499,0.4676,0.4327,0.3101,0.2208,0.1864,-0.032,-0.1678,-0.178,-0.2087,-0.2065,-0.1646,0.0868,0.2447,0.3124,0.4844,0.5203,0.4189,0.4309,0.3961,0.3102,0.2769,0.2418,0.186,-0.0299,-0.1488,-0.1948,-0.3384,-0.399,-0.3856,-0.34,-0.3279,-0.343,-0.479,-0.6134,-0.7581,2.6636,2.7246,2.8421,3.0986,3.1187,3.1356,3.2353,3.1596,3.1075,3.1875,3.1956,3.2614,3.4475,3.6091,3.7649,3.9389,4.0788,4.1126,4.0058,4.0411,4.0935,4.1517,4.207,4.125,3.8784,3.8715,3.7693,3.5646,3.4808,3.409,3.3376,3.1777,3.0946,3.0666,2.8786,2.761,2.6971,2.5206,2.3393,2.1657,2.0718,1.9644,1.8468,1.7687,1.7492,1.75,1.5995,1.5592,1.5334,1.3441,1.2767,1.2318,1.004,0.8757,0.7358,0.293,0.0946,0.0,-0.1017,-0.0847,0.0137,0.2318,0.5044,0.7445,0.8528,1.0556,1.2325,1.2418,1.1161,1.0013,1.0168,0.8383,0.6443,0.5402,0.4142,0.3249,0.2737,0.2168,0.2013,0.2712,0.3285,0.343,0.3086,0.2224,0.1603,0.1284,-0.0237,-0.1105,-0.1203,-0.1203,-0.1195,-0.1099,0.0627,0.1958,0.2657,0.4375,0.48,0.3853,0.4303,0.4047,0.32,0.2749,0.2106,0.1356,-0.0981,-0.2335,-0.3141,-0.4616,-0.5136,-0.499,-0.4785,-0.4862,-0.5373,-0.6275,-0.767,-0.9411,2.8993,2.921,3.0032,3.3059,3.4224,3.4677,3.4617,3.355,3.2718,3.2779,3.2779,3.3762,3.6378,3.8003,3.9761,4.1839,4.2208,4.1529,3.9651,4.0214,4.0393,3.9924,4.1897,4.1969,3.9758,3.9636,3.8976,3.7704,3.6096,3.48,3.3804,3.1066,2.9463,2.8761,2.6434,2.5299,2.508,2.3339,2.2013,2.0961,2.044,1.9231,1.7811,1.7801,1.6978,1.5806,1.4924,1.4182,1.331,1.1462,1.0784,1.0507,0.9583,0.7851,0.5609,0.2694,0.1106,0.0,-0.1018,0.0145,0.1809,0.2685,0.5117,0.765,0.8829,1.0765,1.2392,1.2768,1.1433,1.0203,1.0203,0.8496,0.6694,0.5536,0.4374,0.3215,0.1969,0.1791,0.1791,0.179,0.267,0.2932,0.1844,0.1611,0.1098,0.0079,0.0,0.0,0.0,0.0,0.0,0.0,0.1019,0.1568,0.1568,0.2579,0.2561,0.1593,0.3001,0.3014,0.2033,0.3388,0.2559,0.0095,-0.1227,-0.3305,-0.5693,-0.7164,-0.7811,-0.7727,-0.6481,-0.6836,-0.7976,-0.8031,-0.9502,-1.1598,2.8145,2.9675,3.1884,3.5494,3.714,3.7981,3.79,3.7222,3.6706,3.6774,3.6806,3.7771,4.0131,4.1196,4.2168,4.3375,4.3418,4.2548,4.0502,4.0924,4.1118,4.0692,4.2344,4.2395,4.0507,3.9897,3.8888,3.7419,3.5708,3.402,3.2293,2.9939,2.8164,2.7021,2.5388,2.464,2.4517,2.349,2.254,2.1531,2.0442,1.9519,1.8729,1.7859,1.7072,1.6216,1.4664,1.298,1.1279,0.9386,0.8716,0.8699,0.913,0.7974,0.622,0.5172,0.4132,0.313,0.2063,0.2748,0.365,0.3147,0.5845,0.8729,0.9337,1.1313,1.3019,1.3313,1.249,1.1448,1.06,0.9278,0.7474,0.4639,0.3796,0.2907,0.0809,-0.0181,-0.0728,-0.0717,-0.122,-0.1616,-0.1844,-0.1241,-0.0898,-0.1127,-0.0402,0.0,0.0,0.0,0.0,0.0,-0.0392,-0.0627,-0.0627,0.1827,0.3008,0.2765,0.3256,0.2919,0.2022,0.148,0.0371,-0.1204,-0.3476,-0.4847,-0.5567,-0.7184,-0.7753,-0.7685,-0.7445,-0.8192,-0.9421,-0.9375,-1.0964,-1.3036,2.8102,2.9836,3.2345,3.5957,3.8349,3.9877,4.0057,3.9703,3.9405,3.9342,3.9453,4.0325,4.229,4.3137,4.3825,4.452,4.3847,4.2981,4.2034,4.2165,4.2397,4.2692,4.3509,4.3148,4.1431,4.0749,3.9441,3.7426,3.5465,3.3258,3.085,2.8545,2.6766,2.5479,2.4162,2.3655,2.3787,2.3147,2.2337,2.1342,2.0517,1.9619,1.869,1.7494,1.6652,1.5754,1.3489,1.1338,0.9261,0.7327,0.6697,0.6688,0.7262,0.7328,0.6907,0.5876,0.5449,0.4985,0.3511,0.3904,0.4516,0.3917,0.6457,0.9239,0.9509,1.1402,1.326,1.344,1.285,1.198,1.0783,0.9666,0.7735,0.419,0.3609,0.2628,-0.0269,-0.1359,-0.1997,-0.2417,-0.316,-0.3533,-0.3486,-0.2443,-0.1586,-0.099,-0.033,0.0,0.0,0.0,0.0,0.0,-0.103,-0.1575,-0.159,-0.0162,0.0824,0.1339,0.1369,0.1056,0.0454,-0.0817,-0.1996,-0.3177,-0.4785,-0.5756,-0.6183,-0.722,-0.7587,-0.7539,-0.7834,-0.8724,-0.9994,-1.0556,-1.1691,-1.293,2.8462,2.9624,3.1524,3.4853,3.814,4.0518,4.1163,4.1297,4.1235,4.0986,4.1178,4.189,4.3388,4.4259,4.491,4.5343,4.386,4.323,4.3998,4.3717,4.4047,4.5269,4.5053,4.4118,4.2381,4.187,4.0307,3.7575,3.5155,3.2352,2.9303,2.6831,2.5097,2.4021,2.2832,2.2602,2.304,2.248,2.168,2.0719,2.0526,1.9486,1.792,1.6991,1.593,1.4689,1.1923,0.9456,0.7284,0.5287,0.4601,0.4672,0.4809,0.6131,0.7375,0.5649,0.5681,0.5976,0.4117,0.4283,0.4993,0.4905,0.7134,0.9301,0.9468,1.1456,1.3371,1.3398,1.2997,1.2151,1.0864,0.9662,0.7727,0.419,0.3396,0.2056,-0.1342,-0.1972,-0.2597,-0.3746,-0.4037,-0.4076,-0.4068,-0.2806,-0.1431,-0.0084,0.0,0.0,0.0,-0.0083,-0.0165,-0.0168,-0.1291,-0.1911,-0.1953,-0.2908,-0.2854,-0.176,-0.189,-0.2107,-0.2324,-0.3303,-0.4461,-0.5714,-0.5625,-0.616,-0.7153,-0.7309,-0.737,-0.74,-0.7682,-0.8656,-0.9927,-1.1264,-1.1601,-1.1721,2.7164,2.7629,2.9199,3.3245,3.6636,3.9481,4.1499,4.3,4.3881,4.3815,4.3862,4.4314,4.5379,4.5655,4.5864,4.6063,4.5536,4.5197,4.5223,4.5255,4.5344,4.553,4.5722,4.4832,4.2746,4.1624,3.9857,3.7341,3.3766,3.0149,2.6529,2.44,2.3047,2.2421,2.2128,2.2396,2.3065,2.2323,2.1832,2.1491,2.0139,1.8926,1.7823,1.6964,1.5508,1.3768,1.1632,0.9029,0.6083,0.3229,0.2397,0.2836,0.5195,0.5725,0.5946,0.7739,0.7918,0.7503,0.7563,0.7342,0.7049,0.6832,0.8032,0.9559,1.0461,1.2621,1.4494,1.467,1.4849,1.4092,1.1117,0.9634,0.7698,0.4188,0.1988,0.0182,-0.1524,-0.3443,-0.5084,-0.6225,-0.7166,-0.7722,-0.7588,-0.4813,-0.2238,-0.0173,0.0,0.0,0.0,-0.0928,-0.1419,-0.1426,-0.3316,-0.438,-0.4318,-0.4584,-0.4172,-0.3017,-0.3135,-0.4168,-0.5946,-0.5257,-0.6148,-0.8097,-0.7132,-0.6874,-0.7153,-0.7309,-0.737,-0.739,-0.7573,-0.8562,-0.9814,-1.014,-1.0899,-1.1681,2.5846,2.5509,2.6536,3.0917,3.4785,3.8267,4.1129,4.333,4.4608,4.4473,4.4432,4.4631,4.5221,4.5637,4.5929,4.6085,4.5947,4.5806,4.569,4.5767,4.5772,4.569,4.5527,4.4672,4.3071,4.0213,3.7343,3.4491,3.1051,2.7243,2.3119,2.1973,2.1246,2.0935,2.1369,2.1777,2.2159,2.1713,2.119,2.059,1.9694,1.8459,1.721,1.6271,1.4712,1.2705,1.0831,0.7769,0.4272,0.1141,0.083,0.2002,0.2919,0.4348,0.5781,0.681,0.7766,0.8514,0.8328,0.8454,0.8438,0.8323,0.9125,1.0137,1.0744,1.2939,1.4925,1.5482,1.5675,1.4837,1.194,0.9952,0.7687,0.4186,0.1618,-0.0631,-0.2416,-0.4676,-0.6662,-0.7819,-0.8956,-0.9,-0.7246,-0.4903,-0.2551,-0.0177,0.0,0.0,0.0,-0.1123,-0.1798,-0.1817,-0.3976,-0.5374,-0.593,-0.6515,-0.6763,-0.6756,-0.5175,-0.508,-0.6313,-0.6242,-0.6868,-0.8017,-0.7404,-0.7139,-0.7146,-0.7227,-0.7261,-0.7278,-0.7431,-0.7998,-0.8722,-0.9456,-1.017,-1.0541,2.4322,2.3143,2.3492,2.8117,3.24,3.6417,4.002,4.2686,4.4193,4.3848,4.3881,4.395,4.4036,4.4715,4.5227,4.5356,4.5279,4.5177,4.5167,4.5196,4.5149,4.5059,4.45,4.3513,4.2049,3.7928,3.4316,3.1321,2.8008,2.4155,1.9854,1.941,1.9165,1.9243,2.0272,2.0774,2.0831,2.093,2.0312,1.9299,1.8957,1.7862,1.628,1.5305,1.37,1.1723,0.9933,0.6506,0.2376,-0.0583,-0.0335,0.1085,0.0244,0.264,0.571,0.5065,0.6874,0.8854,0.8143,0.8486,0.9059,0.8944,0.9782,1.0553,1.0656,1.2975,1.5327,1.6304,1.6182,1.5162,1.2656,1.0177,0.733,0.3827,0.1068,-0.1425,-0.3568,-0.5954,-0.7891,-0.9056,-1.0009,-0.9265,-0.5897,-0.4526,-0.2945,-0.0447,-0.0537,-0.0628,-0.0628,-0.1761,-0.2545,-0.2677,-0.4651,-0.6295,-0.7513,-0.8551,-0.9493,-1.0417,-0.74,-0.6065,-0.6325,-0.6868,-0.7228,-0.7401,-0.7228,-0.7139,-0.7139,-0.7139,-0.7139,-0.7153,-0.7282,-0.735,-0.7478,-0.8532,-0.8981,-0.8768,2.2495,2.0446,2.0251,2.5147,2.8912,3.2794,3.7584,4.1106,4.2987,4.231,4.2775,4.2974,4.2554,4.306,4.3378,4.3236,4.294,4.2717,4.2614,4.2716,4.2544,4.2019,4.2061,4.0439,3.6869,3.4508,3.2505,3.0898,2.5576,2.1358,1.8225,1.6618,1.6228,1.6945,1.8261,1.9114,1.9475,1.9896,1.9775,1.9166,1.759,1.6349,1.5305,1.4314,1.2705,1.0881,0.9807,0.614,0.1448,-0.0841,-0.1509,-0.1168,-0.0244,0.157,0.3722,0.5349,0.6767,0.7863,0.8337,0.8268,0.7964,0.7641,0.8548,0.9734,1.0507,1.3558,1.6455,1.7318,1.7301,1.6062,1.2825,0.9461,0.6078,0.2573,-0.0889,-0.3568,-0.4999,-0.7207,-0.9052,-1.0265,-1.0524,-0.9551,-0.7031,-0.5796,-0.4166,-0.1744,-0.2565,-0.3126,-0.3126,-0.4275,-0.5331,-0.6383,-0.7683,-0.8901,-1.0125,-1.0221,-1.0393,-1.0565,-0.9126,-0.8965,-0.9826,-0.7921,-0.7665,-0.8627,-0.7577,-0.7139,-0.7139,-0.7139,-0.7139,-0.7143,-0.7163,-0.7255,-0.7295,-0.6584,-0.6426,-0.6634,2.0877,1.965,2.0138,2.4552,2.8496,3.2573,3.7124,4.0295,4.2159,4.2145,4.205,4.2098,4.2297,4.2087,4.1711,4.1188,4.0615,4.0234,4.0147,4.0191,3.9907,3.9142,3.8449,3.6594,3.3424,3.0053,2.6782,2.3603,2.0682,1.7698,1.4687,1.3345,1.3302,1.4494,1.5655,1.659,1.7311,1.7524,1.7385,1.6954,1.6131,1.5226,1.4235,1.3273,1.1676,0.9715,0.6976,0.4571,0.2197,-0.0663,-0.1236,-0.0821,-0.0881,0.0548,0.2463,0.3908,0.5503,0.7013,0.7917,0.8403,0.859,0.8421,0.9285,1.0404,1.1335,1.345,1.5772,1.7432,1.7372,1.6147,1.3612,0.9781,0.59,0.2395,-0.1245,-0.4016,-0.5267,-0.739,-0.9579,-1.1381,-1.0956,-0.9943,-0.8173,-0.6446,-0.4977,-0.3864,-0.3636,-0.3922,-0.4535,-0.5689,-0.6571,-0.7088,-0.8856,-1.0438,-1.1552,-1.1552,-1.1552,-1.1552,-1.0351,-0.9749,-0.9579,-0.7837,-0.7404,-0.7841,-0.7316,-0.7139,-0.7139,-0.7139,-0.7489,-0.8013,-0.7404,-0.6732,-0.6082,-0.4262,-0.4506,-0.5879]}]]